[[{"header":{"parameterUnit":"m.s-1","parameterCategory":1,"la1":31.0,"la2":29.5877,"lo1":-88.7671,"lo2":-86.6584,"dx":0.0162,"dy":0.0185,"nx":115,"ny":88,"refTime":"2022-11-24T06:00:00:Z","depth":0,"parameterNumber":2,"parameterNumberName":"U-component_of_WINDS"},"data":[0.0,0.0,0.0,0.0,0.0,0.0,0.0,0.0,0.0,0.0,0.0,0.0,0.0,0.0,0.0,0.0,0.0,0.0,0.0,0.0,0.0,0.0,0.0,0.0,0.0,0.0,0.0,0.0,0.0,0.0,0.0,0.0,0.0,0.0,0.0,0.0,0.0,0.0,0.0,0.0,0.0,0.0,0.0,0.0,0.0,0.0,0.0,0.0,0.0,0.0,0.0,0.0,0.0,0.0,0.0,0.0,0.0,0.0,0.0,0.0,0.0,0.0,0.0,0.0,0.0,0.0,0.0,0.0,0.0,0.0,0.0,0.0,0.0,0.0,0.0,0.0,0.0,0.0,0.0,0.0,0.0,0.0,0.0,0.0,0.0,0.0,0.0,0.0,0.0,0.0,0.0,0.0,0.0,0.0,0.0,0.0,0.0,0.0,0.0,0.0,0.0,0.0,0.0,0.0,0.0,0.0,0.0,0.0,0.0,0.0,0.0,0.0,0.0,0.0,0.0,0.0,0.0,0.0,0.0,0.0,0.0,0.0,0.0,0.0,0.0,0.0,0.0,0.0,0.0,0.0,0.0,0.0,0.0,0.0,0.0,0.0,0.0,0.0,0.0,0.0,0.0,0.0,0.0,0.0,0.0,0.0,0.0,0.0,0.0,0.0,0.0,0.0,0.0,0.0,0.0,0.0,0.0,0.0,0.0,0.0,0.0,0.0,0.0,0.0,0.0,0.0,0.0,0.0,0.0,0.0,0.0,0.0,0.0,0.0,0.0,0.0,0.0,0.0,0.0,0.0,0.0,0.0,0.0,0.0,0.0,0.0,0.0,0.0,0.0,0.0,0.0,0.0,0.0,0.0,0.0,0.0,0.0,0.0,0.0,0.0,0.0,0.0,0.0,0.0,0.0,0.0,0.0,0.0,0.0,0.0,0.0,0.0,0.0,0.0,0.0,0.0,0.0,0.0,0.0,0.0,0.0,0.0,0.0,0.0,0.0,0.0,0.0,0.0,0.0,0.0,0.0,0.0,0.0,0.0,0.0,0.0,0.0,0.0,0.0,0.0,0.0,0.0,0.0,0.0,0.0,0.0,0.0,0.0,0.0,0.0,0.0,0.0,0.0,0.0,0.0,0.0,0.0,0.0,0.0,0.0,0.0,0.0,0.0,0.0,0.0,0.0,0.0,0.0,0.0,0.0,0.0,0.0,0.0,0.0,0.0,0.0,0.0,0.0,0.0,0.0,0.0,0.0,0.0,0.0,0.0,0.0,0.0,0.0,0.0,0.0,0.0,0.0,0.0,0.0,0.0,0.0,0.0,0.0,0.0,0.0,0.0,0.0,0.0,0.0,0.0,0.0,0.0,0.0,0.0,0.0,0.0,0.0,0.0,0.0,0.0,0.0,0.0,0.0,0.0,0.0,0.0,0.0,0.0,0.0,0.0,0.0,0.0,0.0,0.0,0.0,0.0,0.0,0.0,0.0,0.0,0.0,0.0,0.0,0.0,0.0,0.0,0.0,0.0,0.0,0.0,0.0,0.0,0.0,0.0,0.0,0.0,0.0,0.0,0.0,0.0,0.0,0.0,0.0,0.0,0.0,0.0,0.0,0.0,0.0,0.0,0.0,0.0,0.0,0.0,0.0,0.0,0.0,0.0,0.0,0.0,0.0,0.0,0.0,0.0,0.0,0.0,0.0,0.0,0.0,0.0,0.0,0.0,0.0,0.0,0.0,0.0,0.0,0.0,0.0,0.0,0.0,0.0,0.0,0.0,0.0,0.0,0.0,0.0,0.0,0.0,0.0,0.0,0.0,0.0,0.0,0.0,0.0,0.0,0.0,0.0,0.0,0.0,0.0,0.0,0.0,0.0,0.0,0.0,0.0,0.0,0.0,0.0,0.0,0.0,0.0,0.0,0.0,0.0,0.0,0.0,0.0,0.0,0.0,0.0,0.0,0.0,0.0,0.0,0.0,0.0,0.0,0.0,0.0,0.0,0.0,0.0,0.0,0.0,0.0,0.0,0.0,0.0,0.0,0.0,0.0,0.0,0.0,0.0,0.0,0.0,0.0,0.0,0.0,0.0,0.0,0.0,0.0,0.0,0.0,0.0,0.0,0.0,0.0,0.0,0.0,0.0,0.0,0.0,0.0,0.0,0.0,0.0,0.0,0.0,0.0,0.0,0.0,0.0,0.0,0.0,0.0,0.0,0.0,0.0,0.0,0.0,0.0,0.0,0.0,0.0,0.0,0.0,0.0,0.0,0.0,0.0,0.0,0.0,0.0,0.0,0.0,0.0,0.0,0.0,0.0,0.0,0.0,0.0,0.0,0.0,0.0,0.0,0.0,0.0,0.0,0.0,0.0,0.0,0.0,0.0,0.0,0.0,0.0,0.0,0.0,0.0,0.0,0.0,0.0,0.0,0.0,0.0,0.0,0.0,0.0,0.0,0.0,0.0,0.0,0.0,0.0,0.0,0.0,0.0,0.0,0.0,0.0,0.0,0.0,0.0,0.0,0.0,0.0,0.0,0.0,0.0,0.0,0.0,0.0,0.0,0.0,0.0,0.0,0.0,0.0,0.0,0.0,0.0,0.0,0.0,0.0,0.0,0.0,0.0,0.0,0.0,0.0,0.0,0.0,0.0,0.0,0.0,0.0,0.0,0.0,0.0,0.0,0.0,0.0,0.0,0.0,0.0,0.0,0.0,0.0,0.0,0.0,0.0,0.0,0.0,0.0,0.0,0.0,0.0,0.0,0.0,0.0,0.0,0.0,0.0,0.0,0.0,0.0,0.0,0.0,0.0,0.0,0.0,0.0,0.0,0.0,0.0,0.0,0.0,0.0,0.0,0.0,0.0,0.0,0.0,0.0,0.0,0.0,0.0,0.0,0.0,0.0,0.0,0.0,0.0,0.0,0.0,0.0,0.0,0.0,0.0,0.0,0.0,0.0,0.0,0.0,0.0,0.0,0.0,0.0,0.0,0.0,0.0,0.0,0.0,0.0,0.0,0.0,0.0,0.0,0.0,0.0,0.0,0.0,0.0,0.0,0.0,0.0,0.0,0.0,0.0,0.0,0.0,0.0,0.0,0.0,0.0,0.0,0.0,0.0,0.0,0.0,0.0,0.0,0.0,0.0,0.0,0.0,0.0,0.0,0.0,0.0,0.0,0.0,0.0,0.0,0.0,0.0,0.0,0.0,0.0,0.0,0.0,0.0,0.0,0.0,0.0,0.0,0.0,0.0,0.0,0.0,0.0,0.0,0.0,0.0,0.0,0.0,0.0,0.0,0.0,0.0,0.0,0.0,0.0,0.0,0.0,0.0,0.0,0.0,0.0,0.0,0.0,0.0,0.0,0.0,0.0,0.0,0.0,0.0,0.0,0.0,0.0,0.0,0.0,0.0,0.0,0.0,0.0,0.0,0.0,0.0,0.0,0.0,0.0,0.0,0.0,0.0,0.0,0.0,0.0,0.0,0.0,0.0,0.0,0.0,0.0,0.0,0.0,0.0,0.0,0.0,0.0,0.0,0.0,0.0,0.0,0.0,0.0,0.0,0.0,0.0,0.0,0.0,0.0,0.0,0.0,0.0,0.0,0.0,0.0,0.0,0.0,0.0,0.0,0.0,0.0,0.0,0.0,0.0,0.0,0.0,0.0,0.0,0.0,0.0,0.0,0.0,0.0,0.0,0.0,0.0,0.0,0.0,0.0,0.0,0.0,0.0,0.0,0.0,0.0,0.0,0.0,0.0,0.0,0.0,0.0,0.0,0.0,0.0,0.0,0.0,0.0,0.0,0.0,0.0,0.0,0.0,0.0,0.0,0.0,0.0,0.0,0.0,0.0,0.0,0.0,0.0,0.0,0.0,0.0,0.0,0.0,0.0,0.0,0.0,0.0,0.0,0.0,0.0,0.0,0.0,0.0,0.0,0.0,0.0,0.0,0.0,0.0,0.0,0.0,0.0,0.0,0.0,0.0,0.0,0.0,0.0,0.0,0.0,0.0,0.0,0.0,0.0,0.0,0.0,0.0,0.0,0.0,0.0,0.0,0.0,0.0,0.0,0.0,0.0,0.0,0.0,0.0,0.0,0.0,0.0,0.0,0.0,0.0,0.0,0.0,0.0,0.0,0.0,0.0,0.0,0.0,0.0,0.0,0.0,0.0,0.0,0.0,0.0,0.0,0.0,0.0,0.0,0.0,0.0,0.0,0.0,0.0,0.0,0.0,0.0,0.0,0.0,0.0,0.0,0.0,0.0,0.0,0.0,0.0,0.0,1.239,0.0,0.0,0.0,1.1606,0.0,0.0,0.0,0.0,0.0,0.0,0.0,0.0,0.0,0.0,0.0,0.0,0.0,0.0,0.0,0.0,0.0,0.0,0.0,0.0,0.0,0.0,0.0,0.0,0.0,0.0,0.0,0.0,0.0,0.0,0.0,0.0,0.0,0.0,0.0,0.0,0.0,0.0,0.0,0.0,0.0,0.0,0.0,0.0,0.0,0.0,0.0,0.0,0.0,0.0,0.0,0.0,0.0,0.0,0.0,0.0,0.0,0.0,0.0,0.0,0.0,0.0,0.0,0.0,0.0,0.0,0.0,0.0,0.0,0.0,0.0,0.0,0.0,0.0,0.0,0.0,0.0,0.0,0.0,0.0,0.0,0.0,0.0,0.0,0.0,0.0,0.0,0.0,0.0,0.0,0.0,0.0,0.0,0.0,0.0,0.0,0.0,0.0,0.0,0.0,0.0,0.0,0.0,0.0,0.0,0.0,0.0,0.0,0.0,0.0,1.2392,1.2312,1.2213,1.2032,1.1798,0.0,0.0,0.0,0.0,0.0,0.0,0.0,0.0,0.0,0.0,0.0,0.0,0.0,0.0,0.0,0.0,0.0,0.0,0.0,0.0,0.0,0.0,0.0,0.0,0.0,0.0,0.0,0.0,0.0,0.0,0.0,0.0,0.0,0.0,0.0,0.0,0.0,0.0,0.0,0.0,0.0,0.0,0.0,0.0,0.0,0.0,0.0,0.0,0.0,0.0,0.0,0.0,0.0,0.0,0.0,0.0,0.0,0.0,0.0,0.0,0.0,0.0,0.0,0.0,0.0,0.0,0.0,0.0,0.0,0.0,0.0,0.0,0.0,0.0,0.0,0.0,0.0,0.0,0.0,0.0,0.0,0.0,0.0,0.0,0.0,0.0,0.0,0.0,0.0,0.0,0.0,0.0,0.0,0.0,0.0,0.0,0.0,0.0,0.0,0.0,0.0,0.0,0.0,0.0,0.0,0.0,0.0,0.0,0.0,0.0,0.0,0.0,1.2195,1.1995,1.1821,0.0,0.0,0.0,0.0,0.0,0.0,0.0,0.0,0.0,0.0,0.0,0.0,0.0,0.0,0.0,0.0,0.0,0.0,0.0,0.0,0.0,0.0,0.0,0.0,0.0,0.0,0.0,0.0,0.0,0.0,0.0,0.0,0.0,0.0,0.0,0.0,0.0,0.0,0.0,0.0,0.0,0.0,0.0,0.0,0.0,0.0,0.0,0.0,0.0,0.0,0.0,0.0,0.0,0.0,0.0,0.0,0.0,0.0,0.0,0.0,0.0,0.0,0.0,0.0,0.0,0.0,0.0,0.0,0.0,0.0,0.0,0.0,0.0,0.0,0.0,0.0,0.0,0.0,0.0,0.0,0.0,0.0,0.0,0.0,0.0,0.0,0.0,0.0,0.0,0.0,0.0,0.0,0.0,0.0,0.0,0.0,0.0,0.0,0.0,0.0,0.0,0.0,0.0,0.0,0.0,0.0,0.0,0.0,0.0,0.0,1.2339,1.2231,1.215,0.0,1.183,0.0,0.0,0.0,0.0,0.0,0.0,0.0,0.0,0.0,0.0,0.0,0.0,0.0,0.0,0.0,0.0,0.0,0.0,0.0,0.0,0.0,0.0,0.0,0.0,0.0,0.0,0.0,0.0,0.0,0.0,0.0,0.0,0.0,0.0,0.0,0.0,0.0,0.0,0.0,0.0,0.0,0.0,0.0,0.0,0.0,0.0,0.0,0.0,0.0,0.0,0.0,0.0,0.0,0.0,0.0,0.0,0.0,0.0,0.0,0.0,0.0,0.0,0.0,0.0,0.0,0.0,0.0,0.0,0.0,0.0,0.0,0.0,0.0,0.0,0.0,0.0,0.0,0.0,0.0,0.0,0.0,0.0,0.0,0.0,0.0,0.0,0.0,0.0,0.0,0.0,0.0,0.0,0.0,0.0,0.0,0.0,0.0,0.0,0.0,0.0,0.0,0.0,0.0,0.0,0.0,0.0,0.0,0.0,0.0,0.0,1.2365,1.2321,1.205,1.1881,0.0,0.0,0.0,0.0,0.0,0.0,0.0,0.0,0.0,0.0,0.0,0.0,0.0,0.0,0.0,0.0,0.0,0.0,0.0,0.0,0.0,0.0,0.0,0.0,0.0,0.0,0.0,0.0,0.0,0.0,0.0,0.0,0.0,0.0,0.0,0.0,0.0,0.0,0.0,0.0,0.0,0.0,0.0,0.0,0.0,0.0,0.0,0.0,0.0,0.0,0.0,0.0,0.0,0.0,0.0,0.0,0.0,0.0,0.0,0.0,0.0,0.0,0.0,0.0,0.0,0.0,0.0,0.0,0.0,0.0,0.0,0.0,0.0,0.0,0.0,0.0,0.0,0.0,0.0,0.0,0.0,0.0,0.0,0.0,0.0,0.0,0.0,0.0,0.0,0.0,0.0,0.0,0.0,0.0,0.0,0.0,0.0,0.0,0.0,0.0,0.0,0.0,0.0,0.0,0.0,0.0,0.0,0.0,0.0,0.0,1.2534,1.2559,1.2527,1.2196,1.1946,1.1812,0.0,0.0,0.0,0.0,0.0,0.0,0.0,0.0,0.0,0.0,0.0,0.0,0.0,0.0,0.0,0.0,0.0,0.0,0.0,0.0,0.0,0.0,0.0,0.0,0.0,0.0,0.0,0.0,0.0,0.0,0.0,0.0,0.0,0.0,0.0,0.0,0.0,0.0,0.0,0.0,0.0,0.0,0.0,0.0,0.0,0.0,0.0,0.0,0.0,0.0,0.0,0.0,0.0,0.0,0.0,0.0,0.0,0.0,0.0,0.0,0.0,0.0,0.0,0.0,0.0,0.0,0.0,0.0,0.0,0.0,0.0,0.0,0.0,0.0,0.0,0.0,0.0,0.0,0.0,0.0,0.0,0.0,0.0,0.0,0.0,0.0,0.0,0.0,0.0,0.0,0.0,0.0,0.0,0.0,0.0,0.0,0.0,0.0,0.0,0.0,0.0,0.0,0.0,0.0,0.0,0.0,0.0,0.0,1.2514,1.2868,1.2994,1.2873,1.268,1.2339,0.0,0.0,0.0,0.0,0.0,0.0,0.0,0.0,0.0,0.0,0.0,0.0,0.0,0.0,0.0,0.0,0.0,0.0,0.0,0.0,0.0,0.0,0.0,0.0,0.0,0.0,0.0,0.0,0.0,0.0,0.0,0.0,0.0,0.0,0.0,0.0,0.0,0.0,0.0,0.0,0.0,0.0,0.0,0.0,0.0,0.0,0.0,0.0,0.0,0.0,0.0,0.0,0.0,0.0,0.0,0.0,0.0,0.0,0.0,0.0,0.0,0.0,0.0,0.0,0.0,0.0,0.0,0.0,0.0,0.0,0.0,0.0,0.0,0.0,0.0,0.0,0.0,0.0,0.0,0.0,0.0,0.0,0.0,0.0,0.0,0.0,0.0,0.0,0.0,0.0,0.0,0.0,0.0,0.0,0.0,0.0,0.0,0.0,0.0,0.0,0.0,0.0,0.0,0.0,0.0,0.0,0.0,0.0,0.0,1.2943,1.3376,1.3516,1.3347,1.2874,1.2519,0.0,0.0,0.0,0.0,0.0,0.0,0.0,0.0,0.0,0.0,0.0,0.0,0.0,0.0,0.0,0.0,0.0,0.0,0.0,0.0,0.0,0.0,0.0,0.0,0.0,0.0,0.0,0.0,0.0,0.0,0.0,0.0,0.0,0.0,0.0,0.0,0.0,0.0,0.0,0.0,0.0,0.0,0.0,0.0,0.0,0.0,0.0,0.0,0.0,0.0,0.0,0.0,0.0,0.0,0.0,0.0,0.0,0.0,0.0,0.0,0.0,0.0,0.0,0.0,0.0,0.0,0.0,0.0,0.0,0.0,0.0,0.0,0.0,0.0,0.0,0.0,0.0,0.0,0.0,0.0,0.0,0.0,0.0,0.0,0.0,0.0,0.0,0.0,0.0,0.0,0.0,0.0,0.0,0.0,0.0,0.0,0.0,0.0,0.0,0.0,0.0,0.0,0.0,0.0,0.0,0.0,0.0,0.0,0.0,1.3664,1.3998,1.4083,1.3884,1.3189,1.2733,0.0,0.0,0.0,0.0,0.0,0.0,0.0,0.0,0.0,0.0,0.0,0.0,0.0,0.0,0.0,0.0,0.0,0.0,0.0,0.0,0.0,0.0,0.0,0.0,0.0,0.0,0.0,0.0,0.0,0.0,0.0,0.0,0.0,0.0,0.0,0.0,0.0,0.0,0.0,0.0,0.0,0.0,0.0,0.0,0.0,0.0,0.0,0.0,0.0,0.0,0.0,0.0,0.0,0.0,0.0,0.0,0.0,0.0,0.0,0.0,0.0,0.0,0.0,0.0,0.0,0.0,0.0,0.0,0.0,0.0,0.0,0.0,0.0,0.0,0.0,0.0,0.0,0.0,0.0,0.0,0.0,0.0,0.0,0.0,0.0,0.0,0.0,0.0,0.0,0.0,0.0,0.0,0.0,0.0,0.0,0.0,0.0,0.0,0.0,0.0,0.0,0.0,0.0,0.0,0.0,0.0,0.0,0.0,1.3573,1.4635,1.4727,1.471,1.4522,1.3776,1.3123,0.0,0.0,0.0,0.0,0.0,0.0,0.0,0.0,0.0,0.0,0.0,0.0,0.0,0.0,0.0,0.0,0.0,0.0,0.0,0.0,0.0,0.0,0.0,0.0,0.0,0.0,0.0,0.0,0.0,0.0,0.0,0.0,0.0,0.0,0.0,0.0,0.0,0.0,0.0,0.0,0.0,0.0,0.0,0.0,0.0,0.0,0.0,0.0,0.0,0.0,0.0,0.0,0.0,0.0,0.0,0.0,0.0,0.0,0.0,0.0,0.0,0.0,0.0,0.0,0.0,0.0,0.0,0.0,0.0,0.0,0.0,0.0,0.0,0.0,0.0,0.0,0.0,0.0,0.0,0.0,0.0,0.0,0.0,0.0,0.0,0.0,0.0,0.0,0.0,0.0,0.0,0.0,0.0,0.0,0.0,0.0,0.0,0.0,0.0,0.0,0.0,0.0,0.0,0.0,0.0,0.0,0.0,0.0,0.0,1.5122,1.5984,1.6327,1.6067,1.513,1.4311,0.0,0.0,0.0,0.0,0.0,0.0,0.0,0.0,0.0,0.0,0.0,0.0,0.0,0.0,0.0,0.0,0.0,0.0,0.0,0.0,0.0,0.0,0.0,0.0,0.0,0.0,0.0,0.0,0.0,0.0,0.0,0.0,0.0,0.0,0.0,0.0,0.0,0.0,0.0,0.0,0.0,0.0,0.0,0.0,0.0,0.0,0.0,0.0,0.0,0.0,0.0,0.0,0.0,0.0,0.0,0.0,0.0,0.0,0.0,0.0,0.0,0.0,0.0,0.0,0.0,0.0,0.0,0.0,0.0,0.0,0.0,0.0,0.0,0.0,0.0,0.0,0.0,0.0,0.0,0.0,0.0,0.0,0.0,0.0,0.0,0.0,0.0,0.0,0.0,0.0,0.0,0.0,0.0,0.0,0.0,0.0,0.0,0.0,0.0,0.0,0.0,0.0,0.0,0.0,0.0,0.0,0.0,0.0,0.0,1.6728,1.7228,1.7403,1.7254,1.6113,1.5154,1.4428,0.0,0.0,0.0,0.0,0.0,0.0,0.0,0.0,0.0,0.0,0.0,0.0,0.0,0.0,0.0,0.0,0.0,0.0,0.0,0.0,0.0,0.0,0.0,0.0,0.0,0.0,0.0,0.0,0.0,0.0,0.0,0.0,0.0,0.0,0.0,0.0,0.0,0.0,0.0,0.0,0.0,0.0,0.0,0.0,0.0,0.0,0.0,0.0,0.0,0.0,0.0,0.0,0.0,0.0,0.0,0.0,0.0,0.0,0.0,0.0,0.0,0.0,0.0,0.0,0.0,0.0,0.0,0.0,0.0,0.0,0.0,0.0,0.0,0.0,0.0,0.0,0.0,0.0,0.0,0.0,0.0,0.0,0.0,0.0,0.0,0.0,0.0,0.0,0.0,0.0,0.0,0.0,0.0,0.0,0.0,0.0,0.0,0.0,0.0,0.0,0.0,0.0,0.0,0.0,0.0,0.0,0.0,0.0,1.9258,1.8632,1.8254,1.8159,1.6864,1.581,0.0,0.0,0.0,0.0,0.0,0.0,0.0,0.0,0.0,0.0,0.0,0.0,0.0,0.0,0.0,0.0,0.0,0.0,0.0,0.0,0.0,0.0,0.0,0.0,0.0,0.0,0.0,0.0,0.0,0.0,0.0,0.0,0.0,0.0,0.0,0.0,0.0,0.0,0.0,0.0,0.0,0.0,0.0,0.0,0.0,0.0,0.0,0.0,0.0,0.0,0.0,0.0,0.0,0.0,0.0,0.0,0.0,0.0,0.0,0.0,0.0,0.0,0.0,0.0,0.0,0.0,0.0,0.0,0.0,0.0,0.0,0.0,0.0,0.0,0.0,0.0,0.0,0.0,0.0,0.0,0.0,0.0,0.0,0.0,0.0,0.0,0.0,0.0,0.0,0.0,0.0,0.0,0.0,0.0,0.0,0.0,0.0,0.0,0.0,0.0,0.0,0.0,0.0,0.0,0.0,0.0,0.0,0.0,0.0,2.1328,2.1677,2.1228,1.9957,1.8621,1.7346,0.0,0.0,0.0,0.0,0.0,0.0,0.0,0.0,0.0,0.0,0.0,0.0,0.0,0.0,0.0,0.0,0.0,0.0,0.0,0.0,0.0,0.0,0.0,0.0,0.0,0.0,0.0,0.0,0.0,0.0,0.0,0.0,0.0,0.0,0.0,0.0,0.0,0.0,0.0,0.0,0.0,0.0,0.0,0.0,0.0,0.0,0.0,0.0,0.0,0.0,0.0,0.0,0.0,0.0,0.0,0.0,0.0,0.0,0.0,0.0,0.0,0.0,0.0,0.0,0.0,0.0,0.0,0.0,0.0,0.0,0.0,0.0,0.0,0.0,0.0,0.0,0.0,0.0,0.0,0.0,0.0,0.0,0.0,0.0,0.0,0.0,0.0,0.0,0.0,0.0,0.0,0.0,0.0,0.0,0.0,0.0,0.0,0.0,0.0,0.0,0.0,0.0,0.0,0.0,0.0,0.0,0.0,0.0,2.0787,2.2703,2.3351,2.3286,2.2533,2.0677,1.8907,0.0,0.0,0.0,0.0,0.0,0.0,0.0,0.0,0.0,0.0,0.0,0.0,0.0,0.0,0.0,0.0,0.0,0.0,0.0,0.0,0.0,0.0,0.0,0.0,0.0,0.0,0.0,0.0,0.0,0.0,0.0,0.0,0.0,0.0,0.0,0.0,0.0,0.0,0.0,0.0,0.0,0.0,0.0,0.0,0.0,0.0,0.0,0.0,0.0,0.0,0.0,0.0,0.0,0.0,0.0,0.0,0.0,0.0,0.0,0.0,0.0,0.0,0.0,0.0,0.0,0.0,0.0,0.0,0.0,0.0,0.0,0.0,0.0,0.0,0.0,0.0,0.0,0.0,0.0,0.0,0.0,0.0,0.0,0.0,0.0,0.0,0.0,0.0,0.0,0.0,0.0,0.0,0.0,0.0,0.0,0.0,0.0,0.0,0.0,0.0,0.0,0.0,0.0,0.0,0.0,0.0,0.0,0.0,2.178,2.3705,2.4361,2.4821,2.5082,2.2661,2.0367,0.0,0.0,0.0,0.0,0.0,0.0,0.0,0.0,0.0,0.0,0.0,0.0,0.0,0.0,0.0,0.0,0.0,0.0,0.0,0.0,0.0,0.0,0.0,0.0,0.0,0.0,0.0,0.0,0.0,0.0,0.0,0.0,0.0,0.0,0.0,0.0,0.0,0.0,0.0,0.0,0.0,0.0,0.0,0.0,0.0,0.0,0.0,0.0,0.0,0.0,0.0,0.0,0.0,0.0,0.0,0.0,0.0,0.0,0.0,0.0,0.0,0.0,0.0,0.0,0.0,0.0,0.0,0.0,0.0,0.0,0.0,0.0,0.0,0.0,0.0,0.0,0.0,0.0,0.0,0.0,0.0,0.0,0.0,0.0,0.0,0.0,0.0,0.0,0.0,0.0,0.0,0.0,0.0,0.0,0.0,0.0,0.0,0.0,0.0,0.0,0.0,0.0,0.0,0.0,0.0,0.0,0.0,0.0,2.3739,2.5328,2.6463,2.6636,2.5738,2.3208,2.1091,0.0,0.0,0.0,0.0,0.0,0.0,0.0,0.0,0.0,0.0,0.0,0.0,0.0,0.0,0.0,0.0,0.0,0.0,0.0,0.0,0.0,0.0,0.0,0.0,0.0,0.0,0.0,0.0,0.0,0.0,0.0,0.0,0.0,0.0,0.0,0.0,0.0,0.0,0.0,0.0,0.0,0.0,0.0,0.0,0.0,0.0,0.0,0.0,1.5509,0.0,0.0,0.0,0.0,0.0,0.0,0.0,0.0,0.0,0.0,0.0,0.0,0.0,0.0,0.0,0.0,0.0,0.0,0.0,0.0,0.0,0.0,0.0,0.0,0.0,0.0,0.0,0.0,0.0,0.0,0.0,0.0,0.0,0.0,0.0,0.0,0.0,0.0,0.0,0.0,0.0,0.0,0.0,0.0,0.0,0.0,0.0,0.0,0.0,0.0,0.0,0.0,0.0,0.0,0.0,0.0,0.0,0.0,0.0,2.4488,2.6272,2.72,2.7348,2.6599,2.4333,2.2139,0.0,0.0,0.0,0.0,0.0,0.0,0.0,0.0,0.0,0.0,0.0,0.0,0.0,0.0,0.0,0.0,0.0,0.0,0.0,0.0,0.0,0.0,0.0,0.0,0.0,0.0,0.0,0.0,0.0,0.0,0.0,0.0,0.0,0.0,0.0,0.0,0.0,0.0,0.0,0.0,0.0,0.0,0.0,0.0,0.0,0.0,0.0,0.0,0.0,0.0,0.0,0.0,0.0,0.0,0.0,0.0,0.0,0.0,0.0,0.0,0.0,0.0,0.0,0.0,0.0,0.0,0.0,0.0,0.0,0.0,0.0,0.0,0.0,0.0,0.0,0.0,0.0,0.0,0.0,0.0,0.0,0.0,0.0,0.0,0.0,0.0,0.0,0.0,0.0,0.0,0.0,0.0,0.0,0.0,0.0,0.0,0.0,0.0,0.0,0.0,0.0,0.0,0.0,0.0,0.0,0.0,0.0,2.2718,2.4881,2.6992,2.7533,2.7717,2.763,2.563,2.3334,2.078,0.0,0.0,0.0,0.0,0.0,0.0,0.0,0.0,0.0,0.0,0.0,0.0,0.0,0.0,0.0,0.0,0.0,0.0,0.0,0.0,0.0,0.0,0.0,0.0,0.0,0.0,0.0,0.0,0.0,0.0,0.0,0.0,0.0,0.0,0.0,0.0,0.0,0.0,1.4846,1.6346,0.0,0.0,0.0,0.0,0.0,0.0,0.0,0.0,1.78,0.0,0.0,0.0,0.0,0.0,0.0,0.0,0.0,0.0,0.0,0.0,0.0,0.0,0.0,0.0,0.0,0.0,0.0,0.0,0.0,0.0,0.0,0.0,0.0,0.0,0.0,0.0,0.0,0.0,0.0,0.0,0.0,0.0,0.0,0.0,0.0,0.0,0.0,0.0,0.0,0.0,0.0,0.0,0.0,0.0,0.0,0.0,0.0,0.0,0.0,0.0,0.0,0.0,0.0,0.0,0.0,2.2107,2.3929,2.6027,2.8412,2.8694,2.8665,2.8328,2.6583,2.436,2.1694,0.0,0.0,0.0,0.0,0.0,0.0,0.0,0.0,0.0,0.0,0.0,0.0,0.0,0.0,0.0,0.0,0.0,0.0,0.0,0.0,0.0,0.0,0.0,0.0,0.0,0.0,0.0,0.0,0.0,0.0,0.0,0.0,0.0,0.0,0.0,0.0,0.0,0.0,0.0,1.746,1.814,0.0,0.0,0.0,0.0,0.0,0.0,0.0,0.0,1.8207,0.0,0.0,0.0,0.0,0.0,0.0,0.0,0.0,0.0,0.0,0.0,0.0,0.0,0.0,0.0,0.0,0.0,0.0,0.0,0.0,0.0,0.0,0.0,0.0,0.0,0.0,0.0,0.0,0.0,0.0,0.0,0.0,0.0,0.0,0.0,0.0,0.0,0.0,0.0,0.0,0.0,0.0,0.0,0.0,0.0,0.0,0.0,0.0,0.0,0.0,0.0,0.0,0.0,0.0,0.0,2.229,2.4608,2.6728,2.8589,2.9149,2.9112,2.8478,2.6765,2.456,0.0,0.0,0.0,0.0,0.0,0.0,0.0,0.0,0.0,0.0,0.0,0.0,0.0,0.0,0.0,0.0,0.0,0.0,0.0,0.0,0.0,0.0,0.0,0.0,0.0,0.0,0.0,0.0,0.0,0.0,0.0,0.0,0.0,0.0,0.0,0.0,0.0,0.0,0.0,0.0,1.8491,1.9549,1.9798,0.0,0.0,0.0,0.0,0.0,0.0,2.0034,1.9537,0.0,0.0,0.0,0.0,0.0,0.0,0.0,0.0,0.0,0.0,0.0,0.0,0.0,0.0,0.0,0.0,0.0,0.0,0.0,0.0,0.0,0.0,0.0,0.0,0.0,0.0,0.0,0.0,0.0,0.0,0.0,0.0,0.0,0.0,0.0,0.0,0.0,0.0,0.0,0.0,0.0,0.0,0.0,0.0,0.0,0.0,0.0,0.0,0.0,0.0,0.0,0.0,0.0,0.0,0.0,2.2303,2.4969,2.7096,2.8626,2.932,2.9302,2.8613,2.6819,2.4622,0.0,0.0,0.0,0.0,0.0,0.0,0.0,0.0,0.0,0.0,0.0,0.0,0.0,0.0,0.0,0.0,0.0,0.0,0.0,0.0,0.0,0.0,0.0,0.0,0.0,0.0,0.0,0.0,0.0,0.0,0.0,0.0,0.0,0.0,0.0,0.0,0.0,0.0,0.0,0.0,0.0,2.0817,2.1158,2.1996,0.0,0.0,0.0,0.0,2.2073,2.1525,0.0,0.0,0.0,0.0,0.0,0.0,0.0,0.0,0.0,0.0,0.0,0.0,0.0,0.0,0.0,0.0,0.0,0.0,0.0,0.0,0.0,0.0,0.0,0.0,0.0,0.0,0.0,0.0,0.0,0.0,0.0,0.0,0.0,0.0,0.0,0.0,0.0,0.0,0.0,0.0,0.0,0.0,0.0,0.0,0.0,0.0,0.0,0.0,0.0,0.0,0.0,0.0,0.0,0.0,0.0,0.0,2.2699,2.4908,2.7108,2.9166,2.9383,2.9298,2.9009,2.7322,2.5051,0.0,0.0,0.0,0.0,0.0,0.0,0.0,0.0,0.0,0.0,0.0,0.0,0.0,0.0,0.0,0.0,0.0,0.0,0.0,0.0,0.0,0.0,0.0,0.0,0.0,0.0,0.0,0.0,0.0,0.0,0.0,0.0,0.0,0.0,0.0,0.0,0.0,0.0,0.0,0.0,0.0,2.1223,2.27,2.3027,2.3301,0.0,0.0,2.3902,2.3823,2.3202,0.0,0.0,0.0,0.0,0.0,0.0,0.0,0.0,0.0,0.0,0.0,0.0,0.0,0.0,0.0,0.0,0.0,0.0,0.0,0.0,0.0,0.0,0.0,0.0,0.0,0.0,0.0,0.0,0.0,0.0,0.0,0.0,0.0,0.0,0.0,0.0,0.0,0.0,0.0,0.0,0.0,0.0,0.0,0.0,0.0,0.0,0.0,0.0,0.0,0.0,0.0,0.0,0.0,0.0,0.0,2.02,2.3006,2.5466,2.754,2.917,2.9778,2.9714,2.8962,2.7364,2.5266,0.0,0.0,0.0,0.0,0.0,0.0,0.0,0.0,0.0,0.0,0.0,0.0,0.0,0.0,0.0,0.0,0.0,0.0,0.0,0.0,0.0,0.0,0.0,0.0,0.0,0.0,0.0,0.0,0.0,0.0,0.0,0.0,0.0,0.0,0.0,0.0,0.0,0.0,0.0,0.0,0.0,0.0,2.3562,2.457,0.0,0.0,0.0,2.5724,2.5303,0.0,0.0,0.0,0.0,0.0,0.0,0.0,0.0,0.0,0.0,0.0,0.0,0.0,0.0,0.0,0.0,0.0,0.0,0.0,0.0,0.0,0.0,0.0,0.0,0.0,0.0,0.0,0.0,0.0,0.0,0.0,0.0,0.0,0.0,0.0,0.0,0.0,0.0,0.0,0.0,0.0,0.0,0.0,0.0,0.0,0.0,0.0,0.0,0.0,0.0,0.0,0.0,0.0,0.0,0.0,0.0,0.0,2.3212,2.5854,2.7824,2.908,2.998,2.9914,2.8887,2.7457,0.0,0.0,0.0,0.0,0.0,0.0,0.0,0.0,0.0,0.0,0.0,0.0,0.0,0.0,0.0,0.0,0.0,0.0,0.0,0.0,0.0,0.0,0.0,0.0,0.0,0.0,0.0,1.0171,0.0,0.0,0.0,0.0,0.0,0.0,0.0,0.0,0.0,0.0,0.0,0.0,0.0,0.0,2.3823,2.4706,2.6047,2.6976,0.0,0.0,2.7361,2.6815,2.6034,2.5154,0.0,0.0,0.0,0.0,0.0,0.0,0.0,0.0,0.0,0.0,0.0,0.0,0.0,0.0,0.0,0.0,0.0,0.0,0.0,0.0,0.0,0.0,0.0,0.0,0.0,0.0,0.0,0.0,0.0,0.0,0.0,0.0,0.0,0.0,0.0,0.0,0.0,0.0,0.0,0.0,0.0,0.0,0.0,0.0,0.0,0.0,0.0,0.0,0.0,0.0,0.0,0.0,0.0,0.0,2.0853,2.3265,2.5701,2.7648,2.9057,2.9647,2.967,2.908,2.7717,2.5795,0.0,0.0,0.0,0.0,0.0,0.0,0.0,0.0,0.0,0.0,0.0,0.0,0.0,0.0,0.0,0.0,0.0,0.0,0.0,0.0,0.0,0.0,0.0,0.0,0.0,0.0,0.0,0.0,0.0,0.0,0.0,0.0,0.0,0.0,0.0,0.0,0.0,0.0,0.0,0.0,0.0,2.492,2.6575,2.7344,2.7891,0.0,2.8487,2.8487,2.8418,2.7262,2.5954,2.4881,0.0,0.0,0.0,0.0,0.0,0.0,0.0,0.0,0.0,0.0,0.0,0.0,0.0,0.0,0.0,0.0,0.0,0.0,0.0,0.0,0.0,0.0,0.0,0.0,0.0,0.0,0.0,0.0,0.0,0.0,0.0,0.0,0.0,0.0,0.0,0.0,0.0,0.0,0.0,0.0,0.0,0.0,0.0,0.0,0.0,0.0,0.0,0.0,0.0,0.0,0.0,0.0,0.0,2.1227,2.3781,2.6162,2.803,2.9308,3.0094,3.0046,2.9103,2.8033,2.6376,0.0,0.0,0.0,0.0,0.0,0.0,0.0,0.0,0.0,0.0,0.0,0.0,0.0,0.0,0.0,0.0,0.0,0.0,0.0,0.0,0.0,0.0,0.0,0.0,0.0,0.0,0.0,0.0,1.3122,1.3582,1.41,0.0,0.0,0.0,0.0,0.0,0.0,0.0,0.0,0.0,0.0,2.5825,2.6866,2.8234,0.0,0.0,2.9227,2.9295,2.8531,2.7934,2.7038,2.5544,2.4432,0.0,0.0,0.0,0.0,0.0,0.0,0.0,0.0,0.0,0.0,0.0,0.0,0.0,0.0,0.0,0.0,0.0,0.0,0.0,0.0,0.0,0.0,0.0,0.0,0.0,0.0,0.0,0.0,0.0,0.0,0.0,0.0,0.0,0.0,0.0,0.0,0.0,0.0,0.0,0.0,0.0,0.0,0.0,0.0,0.0,0.0,0.0,0.0,0.0,0.0,0.0,0.0,2.1826,2.4434,2.6595,2.8321,2.9593,3.0394,3.0411,2.9581,2.8562,2.7107,0.0,0.0,0.0,0.0,0.0,0.0,0.0,0.0,0.0,0.0,0.0,0.0,0.0,0.0,0.0,0.0,0.0,0.0,0.0,0.0,0.0,0.0,0.0,0.0,0.0,0.0,0.0,0.0,1.415,1.4442,1.4227,0.0,0.0,0.0,0.0,0.0,0.0,0.0,0.0,0.0,0.0,2.6788,2.7521,2.9108,3.0008,2.9516,2.9891,2.9884,2.8836,2.8451,2.7708,2.6148,0.0,0.0,0.0,0.0,0.0,0.0,0.0,0.0,0.0,0.0,0.0,0.0,0.0,0.0,0.0,0.0,0.0,0.0,0.0,0.0,0.0,0.0,0.0,0.0,0.0,0.0,0.0,1.3514,0.0,0.0,1.277,0.0,0.0,0.0,0.0,0.0,0.0,0.0,0.0,0.0,0.0,0.0,0.0,0.0,0.0,0.0,0.0,0.0,0.0,0.0,0.0,0.0,0.0,2.2779,2.514,2.6863,2.8431,2.9847,3.0356,3.0599,3.0533,2.9392,2.807,2.654,0.0,0.0,0.0,0.0,0.0,0.0,0.0,0.0,0.0,0.0,0.0,0.0,0.0,0.0,0.0,0.0,0.0,0.0,0.0,0.0,0.0,0.0,0.0,0.0,0.0,0.0,1.4959,1.5707,1.574,0.0,0.0,0.0,0.0,0.0,0.0,0.0,0.0,0.0,2.3911,2.6065,2.7852,2.8865,2.9971,3.0638,3.0613,3.0476,3.0205,2.9622,2.8747,2.7755,0.0,0.0,0.0,0.0,0.0,0.0,0.0,0.0,0.0,0.0,0.0,0.0,0.0,0.0,0.0,0.0,0.0,0.0,0.0,0.0,0.0,0.0,0.0,0.0,0.0,0.0,0.0,1.5456,1.5421,0.0,0.0,0.0,0.0,0.0,0.0,0.0,0.0,0.0,0.0,0.0,2.1042,2.17,0.0,0.0,0.0,0.0,0.0,0.0,0.0,0.0,0.0,0.0,0.0,0.0,2.4028,2.6102,2.794,2.9432,3.0529,3.1033,3.1121,3.0792,3.0105,2.8593,2.6212,0.0,0.0,0.0,0.0,0.0,0.0,0.0,0.0,0.0,0.0,0.0,0.0,0.0,0.0,0.0,0.0,0.0,0.0,0.0,0.0,0.0,0.0,0.0,0.0,0.0,1.5108,0.0,0.0,0.0,0.0,0.0,0.0,0.0,0.0,0.0,0.0,2.246,2.4122,2.5898,2.7381,2.8509,2.9072,2.9959,3.0452,0.0,0.0,0.0,0.0,0.0,0.0,0.0,0.0,0.0,0.0,0.0,0.0,0.0,0.0,2.3508,2.224,2.2194,2.2551,2.3111,0.0,0.0,0.0,0.0,0.0,0.0,0.0,0.0,0.0,0.0,0.0,0.0,0.0,0.0,1.7797,1.7719,1.7154,0.0,0.0,0.0,0.0,0.0,0.0,0.0,0.0,2.1607,2.2641,2.3518,2.4165,2.4391,2.419,2.4169,2.2897,0.0,0.0,0.0,0.0,0.0,0.0,0.0,0.0,2.5318,2.7086,2.8986,3.0362,3.1127,3.1782,3.1979,3.1651,3.0865,2.927,2.6736,2.4945,2.3054,0.0,0.0,0.0,0.0,0.0,0.0,0.0,0.0,0.0,0.0,0.0,0.0,0.0,0.0,0.0,0.0,0.0,0.0,0.0,0.0,0.0,0.0,0.0,1.6487,0.0,0.0,0.0,0.0,0.0,0.0,0.0,0.0,0.0,2.2734,2.4075,2.5583,2.7358,2.8502,2.9415,2.9984,0.0,0.0,0.0,0.0,0.0,0.0,0.0,2.9453,2.8773,2.8683,2.8411,2.7645,2.7353,2.7198,2.7133,0.0,0.0,2.5066,2.4948,2.5436,2.5988,2.633,2.6761,2.7628,2.7965,2.8347,0.0,0.0,0.0,0.0,2.0475,0.0,0.0,0.0,2.0519,2.0537,0.0,1.9661,0.0,0.0,0.0,0.0,1.9371,2.1073,0.0,0.0,2.4179,2.5293,2.604,2.6686,2.7146,2.7369,2.7391,2.6911,2.5842,2.2918,0.0,0.0,0.0,0.0,0.0,0.0,2.6671,2.8111,2.9969,3.1149,3.1647,3.2595,3.3076,3.3032,3.1673,3.001,2.8154,2.6736,2.5076,2.3154,2.1116,0.0,0.0,0.0,0.0,0.0,0.0,0.0,0.0,0.0,0.0,0.0,0.0,0.0,0.0,0.0,0.0,0.0,0.0,0.0,0.0,1.7324,0.0,0.0,0.0,0.0,0.0,0.0,0.0,0.0,0.0,2.3735,2.4177,2.4985,2.627,2.8324,0.0,0.0,0.0,0.0,3.2394,3.2111,3.1872,3.1427,3.0688,3.0386,3.0112,2.9572,0.0,0.0,2.9482,2.9838,3.0224,3.0598,3.0984,3.0626,2.8268,2.814,2.8598,2.9213,2.9371,2.9605,3.0121,3.061,3.1059,2.5192,0.0,0.0,0.0,0.0,2.2769,2.304,2.3329,2.3309,2.3329,2.3288,2.2749,0.0,0.0,0.0,0.0,0.0,0.0,2.4508,2.5941,2.6539,2.7453,2.8621,2.9186,2.9494,2.9591,2.9763,2.953,2.8941,2.8043,2.6237,2.3588,0.0,0.0,0.0,0.0,2.8264,3.0013,3.0952,3.1826,3.266,3.2945,3.3098,3.3098,3.2001,3.0971,3.01,2.8352,2.6671,2.512,2.3182,0.0,0.0,0.0,0.0,0.0,0.0,0.0,0.0,0.0,0.0,0.0,0.0,0.0,0.0,0.0,0.0,0.0,0.0,0.0,1.8718,1.9288,1.9575,0.0,0.0,0.0,0.0,0.0,0.0,0.0,0.0,0.0,2.8092,2.7978,2.8349,0.0,0.0,3.1294,3.1671,3.212,3.2413,3.2338,3.2264,0.0,3.1887,3.1791,3.1721,3.1562,3.154,3.1466,3.1293,3.1503,3.19,3.2361,3.2989,3.3351,3.3224,3.1968,3.1298,3.174,3.1996,3.2371,3.3191,3.3495,3.3773,2.8193,2.625,2.5235,2.4902,2.5088,2.5357,2.573,2.6142,2.6142,2.6142,2.61,2.5668,2.5315,2.5068,2.5068,0.0,0.0,0.0,2.7117,2.8384,2.8861,2.9696,3.0763,3.1291,3.1593,3.1698,3.1988,3.188,3.145,3.1553,3.0275,2.772,0.0,2.7457,2.8024,2.8963,3.0098,3.1455,3.2128,3.2765,3.336,3.3579,3.3579,3.3382,3.2681,3.1906,3.1037,2.9613,2.8094,2.6519,2.4793,2.2867,0.0,0.0,0.0,0.0,0.0,0.0,0.0,0.0,0.0,0.0,0.0,1.2519,1.3544,0.0,0.0,0.0,1.8137,1.9681,2.1372,2.1525,0.0,0.0,0.0,0.0,0.0,0.0,0.0,2.614,2.7261,2.876,3.0854,3.0854,3.0889,3.1665,3.2027,3.2356,3.2779,0.0,3.328,3.3376,3.3394,3.3368,3.3236,3.3236,3.3236,3.3236,3.3236,3.3184,3.3025,3.3285,3.3666,3.4137,3.4719,3.5308,3.5908,3.5021,3.4225,3.4252,3.4361,3.4716,3.548,3.5782,3.6097,3.0636,3.0056,2.8425,2.7866,2.8065,2.8148,2.8417,2.8835,2.8893,2.8918,2.8831,2.8417,2.821,2.8169,2.8169,0.0,2.8272,2.912,2.9787,3.0284,3.1181,3.1913,3.2553,3.3,3.3352,3.3586,3.3919,3.3873,3.3471,3.3725,3.3454,3.2538,3.1226,3.0531,3.0425,3.128,3.2001,3.2573,3.3442,3.3923,3.3967,3.4332,3.4332,3.3868,3.3534,3.2723,3.1404,3.0568,2.9335,2.7613,2.608,2.4386,2.2414,0.0,0.0,0.0,0.0,0.0,0.0,0.0,0.0,0.0,0.0,0.0,0.0,0.0,0.0,1.8785,2.0744,0.0,2.3812,2.3965,0.0,0.0,0.0,2.5185,2.6081,2.6299,2.7064,2.888,0.0,0.0,3.2715,3.34,3.3613,3.3428,3.3321,3.3615,3.4531,3.4637,3.4756,3.4902,3.5007,3.4967,3.4728,3.4737,3.4781,3.4781,3.4725,3.4753,3.4775,3.5037,3.5485,3.5881,3.6285,3.6704,3.6965,3.7394,3.7517,3.6708,3.6498,3.6613,3.7061,3.7496,3.7851,3.2478,3.2016,3.1581,3.0698,2.9559,3.0263,3.0642,3.0781,3.1436,3.1519,3.1161,3.1058,3.0837,3.0479,3.0479,3.0692,3.1043,3.1271,3.1816,3.2589,3.2838,3.3198,3.3692,3.4031,3.419,3.4278,3.462,3.4701,3.4595,3.4682,3.4411,3.3869,3.3826,3.3197,3.1931,3.2464,3.3158,3.3983,3.4578,3.5059,3.5459,3.499,3.4681,3.4545,3.3574,3.2846,3.2483,3.13,3.027,2.9441,2.7717,2.5994,2.4304,2.2793,0.0,0.0,0.0,0.0,0.0,0.0,0.0,0.0,0.0,1.6617,1.8014,0.0,1.9998,0.0,2.3744,2.5164,2.5864,2.6213,0.0,0.0,2.7545,2.8004,2.8594,2.9598,3.0578,3.1458,3.2263,3.3251,3.4465,3.5084,3.5529,3.5806,3.5354,3.5013,3.5087,3.5439,3.5674,3.5792,3.607,3.626,3.6224,3.6479,3.6675,3.6697,3.6697,3.6697,3.6697,3.6784,3.71,3.7744,3.7989,3.8301,3.8916,3.9201,3.9187,3.8957,3.8357,3.7974,3.844,3.862,3.8867,3.3555,3.3327,3.3327,3.2851,3.2154,3.2258,3.2424,3.2652,3.312,3.3182,3.2934,3.2934,3.2809,3.2582,3.2739,3.2996,3.3244,3.3422,3.3898,3.459,3.459,3.4868,3.5273,3.5457,3.5519,3.5549,3.5856,3.6009,3.6009,3.6161,3.6009,3.5563,3.5584,3.5037,3.3914,3.3899,3.4207,3.4719,3.4978,3.5265,3.5525,3.512,3.479,3.4575,3.3635,3.2917,3.2497,3.1625,3.073,2.9875,2.8764,2.7406,2.5745,2.4534,2.3285,0.0,0.0,0.0,0.0,0.0,0.0,0.0,0.0,0.0,0.0,0.0,2.3387,2.5424,2.6561,2.7545,2.8417,2.8746,2.9183,2.9904,3.0209,3.0671,3.1349,3.211,3.294,3.3907,3.4475,3.5218,3.6326,3.6741,3.7112,3.754,3.7298,3.6911,3.6595,3.6741,3.6981,3.7221,3.7483,3.7606,3.7636,3.7855,3.8029,3.8029,3.8029,3.8029,3.8029,3.8029,3.8178,3.8596,3.8693,3.8821,3.9294,3.9547,3.9711,3.9711,3.9613,3.9454,3.9377,3.9528,3.9788,3.4313,3.4283,3.4304,3.4591,3.4932,3.4125,3.398,3.4371,3.4433,3.4454,3.4454,3.4454,3.4454,3.4475,3.4868,3.5085,3.5076,3.5418,3.578,3.6183,3.6173,3.6411,3.6804,3.6804,3.6804,3.6804,3.7093,3.7221,3.7253,3.7562,3.7477,3.7053,3.6651,3.6248,3.5825,3.5452,3.5227,3.5189,3.5189,3.5189,3.5189,3.5095,3.4803,3.4355,3.3726,3.3,3.2068,3.1789,3.105,2.9794,2.9532,2.8661,2.6966,2.61,2.5211,0.0,2.308,0.0,0.0,0.0,0.0,0.0,0.0,0.0,0.0,2.5323,2.7283,2.8988,2.9274,2.9862,3.1149,3.1323,3.1738,3.2634,3.2809,3.3229,3.4032,3.4272,3.484,3.6136,3.6333,3.6858,3.7964,3.8248,3.8466,3.8794,3.8903,3.875,3.8444,3.8226,3.8239,3.8763,3.885,3.8806,3.8915,3.8981,3.8981,3.9003,3.8981,3.8981,3.8981,3.9003,3.8981,3.9034,3.9122,3.9165,3.9068,3.9569,3.9907,4.0005,4.0519,4.0738,4.0196,4.0332,4.0701,3.5387,3.5408,3.5408,3.564,3.5977,3.5813,3.5745,3.5749,3.6121,3.6287,3.6287,3.6287,3.6287,3.6287,3.637,3.6432,3.6411,3.6494,3.6597,3.668,3.668,3.6722,3.6804,3.6804,3.6804,3.6804,3.6869,3.6901,3.6901,3.6965,3.6955,3.684,3.6768,3.6653,3.657,0.0,0.0,0.0,3.6137,3.6146,3.6116,3.5492,3.499,3.4636,3.3905,0.0,3.2385,3.1963,3.147,3.0817,3.0323,0.0,0.0,0.0,0.0,0.0,0.0,0.0,0.0,0.0,0.0,0.0,2.7162,2.7178,2.693,2.8762,3.0275,3.1018,3.183,3.2551,3.3207,3.3595,3.4026,3.46,3.5065,3.5546,3.6085,3.6806,3.7418,3.7658,3.802,3.8348,3.8632,3.9034,3.9328,3.9437,3.9787,3.9984,3.9875,3.9165,3.8719,3.8828,3.9187,3.959,3.9952,3.9973,3.9908,3.9995,4.0017,3.9973,3.9952,3.9952,3.9995,3.9995,4.0323,4.0541,4.0585,4.0978,4.1197,4.1262,4.1415,4.1405,4.0903,4.1155,4.1473,3.5718,3.5718,3.5718,3.5937,0.0,3.6355,3.6432,3.6607,3.6747,3.6804,3.6804,3.6804,3.6804,3.6804,3.7053,3.7136,3.7156,3.7384,3.7488,3.7488,3.7488,3.7488,3.7488,3.7488,3.7488,3.7488,3.7488,3.7488,3.7488,3.7488,3.7488,3.7488,3.726,3.7136,3.7136,3.6908,3.6612,3.6237,3.6237,3.6132,3.5901,3.5496,3.5115,3.4755,3.4074,0.0,0.0,0.0,0.0,0.0,0.0,0.0,0.0,2.9689,0.0,2.8363,2.8073,2.7924,2.7928,2.7928,2.842,2.9589,3.0976,3.1387,3.0476,3.1578,3.2634,3.3333,3.3835,3.4425,3.5146,3.5452,3.5867,3.6544,3.6872,3.7221,3.7702,3.813,3.8554,3.8794,3.9034,3.9274,3.9515,3.9765,3.9918,3.994,4.0159,4.0312,4.0268,3.9864,3.9558,3.9537,3.9743,4.0028,4.0246,4.0312,4.0312,4.0312,4.0312,4.0312,4.0312,4.0312,4.0345,4.0585,4.0847,4.1066,4.1306,4.1546,4.161,4.1484,4.1624,4.1643,4.1247,4.1294,4.1516,3.5547,3.5547,3.5547,3.5831,3.6237,3.6303,3.6603,3.7072,3.7004,0.0,0.0,3.7021,3.7053,3.7074,3.7446,3.7612,3.7653,3.8005,3.8225,3.8225,3.8225,3.8225,3.8225,3.8225,3.8225,3.8225,3.8225,3.8225,3.8225,3.8225,3.8225,3.8183,3.7798,3.7612,3.7591,3.7239,3.6825,3.639,3.6235,3.6059,3.5687,3.5635,3.5428,3.4942,3.4421,3.3851,3.3236,3.2964,3.2585,3.2069,3.229,3.2019,3.1148,3.1126,3.0946,3.0491,3.0118,3.0077,3.045,3.047,3.0998,3.2189,3.3955,3.4604,3.3683,3.406,3.4709,3.5648,3.5714,3.6107,3.6981,3.7068,3.7374,3.816,3.8313,3.851,3.8872,3.9024,3.9253,3.9634,3.97,3.9853,4.0203,4.0268,4.0312,4.0312,4.029,4.0312,4.0312,4.0268,4.0224,4.0224,4.0224,4.029,4.0312,4.0312,4.0312,4.0312,4.0312,4.0312,4.0312,4.0312,4.0498,4.0759,4.0976,4.1236,4.154,4.168,4.1634,4.1327,4.1581,4.1826,4.1505,4.1262,4.1383,3.4986,3.5005,3.5005,3.5248,3.5665,3.5918,3.6465,3.7092,3.7393,3.7499,3.7499,3.7852,3.7984,3.8005,3.8067,3.8121,3.8088,3.8171,3.8225,3.8225,3.8225,3.8225,3.8225,3.8225,3.8225,3.8225,3.8225,3.8225,3.8225,3.8191,3.8225,3.8204,3.8142,3.8088,3.8088,3.8026,3.7757,3.7301,3.6908,3.668,3.6597,3.6618,3.6263,3.5547,3.538,3.4836,3.3749,3.3648,3.3427,3.3034,3.3262,3.3155,3.2632,3.286,3.2809,3.2367,3.2264,3.2264,3.2305,3.2326,3.2841,3.4026,3.5131,3.5699,3.5634,3.6027,3.6675,3.7571,3.7636,3.792,3.8435,3.8457,3.8501,3.8719,3.91,3.9416,3.9481,3.9809,4.0039,4.0159,4.0203,4.0203,4.029,4.0312,4.0312,4.0312,4.0312,4.0312,4.0279,4.0312,4.0312,4.0312,4.0312,4.0312,4.0279,4.0312,4.0279,4.0312,4.0247,4.0214,4.0214,4.0268,4.0384,4.048,4.0881,4.1259,4.1417,4.1689,4.1852,4.1769,4.1875,4.1904,4.1777,4.1573,4.1524,3.4301,3.4336,3.4543,3.4749,3.494,3.5264,3.5722,3.6259,3.6622,3.6995,3.7334,3.7536,3.7603,3.7603,3.7603,3.7725,3.7915,3.8172,3.8397,3.8644,3.8814,3.8916,3.8916,3.8916,3.8916,3.8916,3.8916,3.8758,3.853,3.851,3.8419,3.8212,3.8225,3.8225,3.8225,3.8225,3.8088,3.786,3.7405,3.7053,3.6804,3.6804,3.6605,3.6271,3.6058,3.5715,3.5182,3.475,3.4375,3.4116,3.4024,3.3828,3.3576,3.3682,3.3658,3.3472,3.3699,3.3824,3.3824,3.427,3.498,3.5933,3.6404,3.6875,3.7336,3.7487,3.7814,3.8413,3.8479,3.8707,3.9165,3.9231,3.9318,3.9602,3.9853,3.9984,4.0006,4.0159,4.0312,4.0312,4.0312,4.0312,4.0312,4.0312,4.0312,4.0312,4.0312,4.0236,4.004,4.0007,4.0051,4.0247,4.0312,4.0182,4.0018,3.9986,3.992,3.9757,3.9691,3.967,3.9745,3.9913,4.021,4.0476,4.0938,4.1358,4.1558,4.1848,4.1926,4.1756,4.1756,4.1664,4.1452,4.1274,4.1239,3.3593,3.3736,3.4015,3.4244,3.4441,3.4685,3.5062,3.552,3.5749,3.6186,3.6719,3.7006,3.7109,3.7143,3.7211,3.7425,3.774,3.8144,3.8499,3.8893,3.9226,3.9399,3.9399,3.9468,3.9502,3.9502,3.9502,3.9316,3.8972,3.8965,3.8799,3.8502,3.8378,3.8336,3.8316,3.8233,3.8225,3.8204,3.7839,3.7488,3.7136,3.7115,3.7074,3.697,3.6691,3.6521,3.6418,3.5814,3.5437,3.5342,3.5025,3.48,3.4714,3.4723,3.4723,3.4744,3.5055,3.5262,3.5283,3.5873,3.6569,3.7283,3.7356,3.7685,3.8409,3.8466,3.854,3.8795,3.888,3.9063,3.9517,3.9615,3.98,4.0236,4.0312,4.029,4.0312,4.0312,4.0312,4.0312,4.0214,4.0171,4.0258,4.0236,4.0257,4.0366,4.0377,4.0245,3.9981,3.9915,4.0047,4.018,4.0203,3.992,3.9625,3.97,3.9644,3.938,3.9508,3.9647,3.9699,3.9887,4.0168,4.0591,4.0925,4.1256,4.1651,4.1714,4.1629,4.1402,4.1366,4.1295,4.1025,4.0933,4.0897,3.302,3.3305,3.3411,3.3786,3.4378,3.4414,3.4845,3.5383,3.5168,3.5222,3.5755,3.6726,3.7148,3.7219,3.7514,3.7693,3.7788,3.8192,3.8406,3.8502,3.8879,3.9053,3.9128,3.935,3.9502,3.9488,3.9509,3.9475,3.9371,3.9385,3.9385,3.9337,3.8965,3.8703,3.8716,3.8365,3.8191,3.8225,3.8183,3.8109,3.8067,3.8067,3.786,3.7446,3.7393,3.7153,3.6823,3.6699,3.6625,3.6616,3.6534,3.6545,3.6515,3.6535,3.6535,3.6494,3.6556,3.6618,3.6618,3.6701,3.6982,3.7396,3.7512,3.7829,3.8588,3.8675,3.8819,3.9082,3.9148,3.9366,3.9659,3.9692,3.9909,4.0258,4.0334,4.0312,4.0312,4.0312,4.0312,4.0312,4.0061,3.9908,4.0296,4.0182,4.0152,4.0519,4.054,4.0506,4.0392,4.0337,4.0325,4.0341,3.9894,3.9436,3.937,3.9647,3.9772,3.9823,4.0142,4.0236,4.0218,4.0364,4.0654,4.0549,4.0835,4.1007,4.1034,4.1025,4.1061,4.1061,4.1025,4.0954,4.0918,4.0918,4.0918,3.2782,3.2957,3.3208,3.3585,3.4035,3.4053,3.4359,3.4812,3.4666,3.4846,3.5228,3.5705,3.6029,3.6223,3.6633,3.6945,3.7248,3.7818,3.8276,3.8549,3.912,3.9404,3.944,3.9546,3.9617,3.9617,3.9617,3.9475,3.9266,3.8987,3.8844,3.8844,3.8661,3.8683,3.887,3.8753,3.865,3.8551,3.8564,3.844,3.8212,3.8225,3.8109,3.7922,3.7902,3.7819,3.7612,3.7363,3.7218,3.7198,3.697,3.6804,3.6804,3.6804,3.6804,3.6825,3.7053,3.7343,3.7612,3.7632,3.7695,3.7935,3.815,3.8411,3.8732,3.8995,3.9229,3.9344,3.9504,3.9668,3.9823,4.0058,4.0296,4.0464,4.0464,4.0442,4.0464,4.0497,4.0464,4.0464,4.0329,4.0271,4.0442,4.0405,4.0388,4.058,4.0601,4.0541,4.0383,4.0293,4.019,3.9943,3.9595,3.9529,3.9635,3.985,3.993,3.9767,3.9825,3.995,4.0055,4.0243,4.0375,4.043,4.0699,4.0897,4.0933,4.0918,4.0918,4.0959,4.0918,4.0918,4.0918,4.0918,4.0918,3.2795,3.2934,3.3258,3.3585,3.3788,3.3825,3.4056,3.4359,3.4302,3.4461,3.4802,3.4819,3.4983,3.5248,3.5701,3.6212,3.6693,3.7311,3.7827,3.8336,3.9027,3.9389,3.9389,3.9642,3.9714,3.9714,3.9694,3.9497,3.9089,3.8666,3.8507,3.8557,3.8457,3.8643,3.8972,3.8926,3.8785,3.8685,3.8596,3.8329,3.8076,3.7965,3.8004,3.8191,3.8225,3.8225,3.8171,3.786,3.7695,3.7674,3.7363,3.7177,3.7198,3.7177,3.7198,3.7218,3.7488,3.7881,3.8336,3.8378,3.8419,3.8564,3.8841,3.9006,3.9047,3.9316,3.9482,3.9495,3.9796,3.9956,3.9998,4.0252,4.0477,4.0567,4.0601,4.0601,4.058,4.0601,4.0593,4.0601,4.0482,4.0459,4.0496,4.0554,4.0681,4.0681,4.0659,4.0638,4.0375,4.0348,4.0243,3.9944,3.9909,3.9889,3.9965,4.0055,3.9924,3.9869,3.9827,4.0062,3.9909,4.0241,4.0371,4.0657,4.0794,4.0897,4.0959,4.0959,4.1187,4.125,4.1291,4.1291,4.1415,4.1312,4.125,3.2932,3.3309,3.3631,3.3789,3.3823,3.3806,3.405,3.4333,3.4029,3.4084,3.4403,3.4441,3.4444,3.4541,3.5218,3.5849,3.6238,3.6682,3.7088,3.7513,3.8282,3.8647,3.872,3.9353,3.9642,3.9498,3.9462,3.9333,3.9024,3.8714,3.877,3.8984,3.8608,3.866,3.8919,3.8618,3.8447,3.8421,3.8093,3.7811,3.771,3.7368,3.7556,3.8058,3.8191,3.8158,3.8171,3.815,3.815,3.815,3.8088,3.8121,3.8088,3.8088,3.8088,3.8129,3.815,3.8357,3.8716,3.8778,3.8944,3.9337,3.942,3.9482,3.9482,3.9564,3.9626,3.9544,4.0021,4.0195,4.0137,4.0227,4.033,4.0604,4.0631,4.0596,4.0631,4.0613,4.0588,4.0562,4.042,4.0312,4.0298,4.0607,4.0817,4.0859,4.0865,4.0844,4.0817,4.0809,4.0788,4.0752,4.0655,4.051,3.9806,4.0035,4.0228,4.0185,4.0406,4.0732,4.0835,4.0877,4.082,4.08,4.0841,4.0939,4.1001,4.125,4.1643,4.185,4.1975,4.2037,4.1892,4.212,4.2016,3.3474,3.3648,3.3748,3.3799,3.3799,3.3799,3.3875,3.3988,3.3875,3.3875,3.3988,3.4026,3.4026,3.4026,3.431,3.4799,3.5456,3.6089,3.6516,3.6738,3.7439,3.7843,3.7843,3.8136,3.8246,3.8246,3.8226,3.8173,3.8026,3.788,3.788,3.799,3.7891,3.7977,3.8301,3.822,3.8239,3.8445,3.8281,3.8047,3.7734,3.7582,3.7516,3.7489,3.7482,3.7482,3.7502,3.7703,3.7837,3.7803,3.8037,3.8225,3.8245,3.846,3.8716,3.8985,3.9027,3.9089,3.9233,3.9254,3.9316,3.9502,3.9792,3.9937,3.9999,4.022,4.0386,4.0427,4.051,4.0637,4.0624,4.0597,4.0667,4.0737,4.0808,4.0787,4.0773,4.0793,4.0773,4.0773,4.0667,4.061,4.0643,4.0779,4.0897,4.0918,4.0918,4.0918,4.0918,4.0918,4.0918,4.0918,4.0862,4.0779,4.051,4.051,4.0655,4.0675,4.0814,4.0835,4.0897,4.0897,4.0841,4.0841,4.0897,4.1001,4.1104,4.1415,4.185,4.2265,4.241,4.2493,4.2285,4.2493,4.2368,3.3799,3.3799,3.3799,3.3867,3.397,3.397,3.4055,3.4158,3.4213,3.4213,3.4175,3.4175,3.4196,3.4213,3.4158,3.4464,3.4982,3.5467,3.5698,3.5866,3.6497,3.6812,3.6849,3.696,3.6997,3.6997,3.6886,3.6812,3.6812,3.6701,3.6682,3.6812,3.6812,3.7089,3.753,3.7604,3.778,3.8075,3.8027,3.7779,3.744,3.7262,3.7065,3.6809,3.6784,3.6884,3.7085,3.7456,3.7705,3.7861,3.8219,3.8525,3.8667,3.8861,3.9171,3.9461,3.9482,3.9564,3.9688,3.973,3.9792,3.9937,4.0206,4.0412,4.0412,4.0717,4.0877,4.0918,4.0918,4.0918,4.0918,4.0897,4.0918,4.0918,4.0918,4.0918,4.0918,4.0897,4.0877,4.0891,4.0891,4.0877,4.0918,4.0897,4.0918,4.0918,4.0918,4.0918,4.0918,4.0918,4.0918,4.0918,4.0918,4.0897,4.0737,4.0758,4.0814,4.0856,4.0856,4.0897,4.0918,4.0918,4.0918,4.0918,4.098,4.1084,4.1312,4.1622,4.2037,4.2534,4.2845,4.2952,4.2886,4.2803,4.27,3.3795,3.3791,3.3778,3.3979,3.4252,3.4269,3.4569,3.4808,3.4859,3.4808,3.483,3.4955,3.4886,3.4955,3.4847,3.4994,3.4956,3.4765,3.483,3.5153,3.5547,3.5716,3.5717,3.6052,3.6201,3.6163,3.5829,3.5642,3.568,3.5418,3.5381,3.5605,3.5717,3.6052,3.6775,3.6775,3.696,3.7178,3.7023,3.6796,3.6758,3.6396,3.6204,3.6112,3.6112,3.6437,3.703,3.7439,3.7811,3.8214,3.8643,3.9116,3.9337,3.9433,3.9488,3.9606,3.9564,3.9785,4.0137,4.022,4.0406,4.0634,4.082,4.08,4.08,4.0877,4.0918,4.0918,4.0918,4.0918,4.0918,4.0918,4.0918,4.0918,4.0918,4.0918,4.0918,4.0918,4.0918,4.0918,4.0918,4.0918,4.0918,4.0918,4.0918,4.0918,4.0918,4.0918,4.0918,4.0918,4.0918,4.0918,4.0918,4.0918,4.0918,4.0918,4.0897,4.0897,4.0897,4.0918,4.0918,4.0918,4.0918,4.0918,4.0918,4.1042,4.1747,4.2078,4.2497,4.2952,4.3221,4.3387,4.3304,4.3201,4.3159,3.3714,3.3731,3.3731,3.382,3.392,3.392,3.4122,3.4497,3.4497,3.4693,3.4984,3.5006,3.5006,3.5023,3.5006,3.5023,3.4989,3.4865,3.4894,3.505,3.5432,3.5442,3.5248,3.5306,3.5381,3.5344,3.5269,3.5194,3.5157,3.5044,3.5082,3.5157,3.5194,3.5306,3.5568,3.5568,3.5754,3.6071,3.6054,3.5981,3.5943,3.5831,3.5736,3.5691,3.5672,3.5913,3.639,3.7012,3.7525,3.7947,3.8346,3.8882,3.9441,3.9573,3.9857,4.0392,4.0468,4.0489,4.0613,4.069,4.0717,4.0877,4.0918,4.0918,4.0918,4.0918,4.0918,4.0918,4.0918,4.0918,4.0918,4.0918,4.0918,4.0918,4.0918,4.0918,4.0918,4.0918,4.0918,4.0918,4.0918,4.0918,4.0918,4.0918,4.0918,4.0918,4.0918,4.0918,4.0918,4.0918,4.0918,4.0918,4.0918,4.0918,4.0918,4.0918,4.0918,4.0918,4.0918,4.0918,4.0918,4.0918,4.0918,4.0918,4.0918,4.1229,4.1933,4.2451,4.2783,4.318,4.3428,4.3532,4.3594,4.3532,4.3428,3.371,3.371,3.371,3.3793,3.3892,3.3869,3.4213,3.4647,3.4704,3.4982,3.5355,3.5435,3.5395,3.5435,3.5435,3.5435,3.5435,3.5395,3.533,3.5202,3.526,3.5222,3.4977,3.4837,3.4766,3.4749,3.4626,3.4556,3.4556,3.4574,3.4574,3.4536,3.4574,3.4649,3.4744,3.4799,3.4969,3.5306,3.5363,3.5367,3.5372,3.5355,3.5339,3.5321,3.5321,3.5521,3.5884,3.6535,3.7069,3.7633,3.8279,3.8979,3.9577,3.9632,3.9897,4.0315,4.0596,4.0647,4.0704,4.077,4.0918,4.0918,4.0918,4.0918,4.0918,4.0918,4.0918,4.0918,4.0918,4.0918,4.0918,4.0918,4.0918,4.0918,4.0918,4.0918,4.0918,4.0918,4.0918,4.0918,4.0918,4.0918,4.0918,4.0918,4.0918,4.0918,4.0918,4.0918,4.0918,4.0918,4.0918,4.0918,4.0918,4.0918,4.0918,4.0918,4.0918,4.0918,4.0918,4.0918,4.0918,4.0918,4.0918,4.0918,4.0918,4.1146,4.1767,4.2161,4.2534,4.2994,4.3491,4.3594,4.3615,4.3615,4.3532,3.3697,3.3697,3.3697,3.3832,3.4078,3.4095,3.446,3.5163,3.5221,3.5406,3.5827,3.5776,3.5867,3.5925,3.5776,3.5776,3.5982,3.5914,3.5726,3.5441,3.5302,3.5158,3.4968,3.4693,3.4573,3.4483,3.4153,3.3943,3.4036,3.3985,3.3799,3.3912,3.395,3.3988,3.4328,3.4365,3.4536,3.4819,3.4894,3.4914,3.4896,3.4896,3.4934,3.4936,3.4956,3.5142,3.5553,3.5906,3.6496,3.7326,3.8317,3.8964,3.9442,3.9606,3.9586,3.9714,4.0058,4.0238,4.0346,4.0596,4.0811,4.0811,4.0847,4.0918,4.0918,4.0918,4.0918,4.0918,4.0918,4.0918,4.0918,4.0918,4.0918,4.0918,4.0918,4.0918,4.0918,4.0918,4.0918,4.0918,4.0918,4.0918,4.0918,4.0918,4.0918,4.0918,4.0918,4.0918,4.0918,4.0918,4.0918,4.0918,4.0918,4.0918,4.0918,4.0918,4.0918,4.0918,4.0918,4.0918,4.0918,4.0918,4.0918,4.0918,4.0939,4.1187,4.1498,4.1912,4.2389,4.289,4.3242,4.3491,4.3615,4.3615,4.3594,3.3531,3.3531,3.3572,3.3595,3.37,3.3676,3.3993,3.44,3.4458,3.4743,3.5068,3.5109,3.519,3.5149,3.5149,3.5149,3.523,3.5474,3.5578,3.55,3.5737,3.5446,3.5109,3.492,3.4813,3.4761,3.4436,3.4248,3.4231,3.3953,3.3816,3.3799,3.3799,3.3837,3.395,3.3988,3.3988,3.4101,3.4139,3.4177,3.4177,3.4177,3.4273,3.4536,3.4574,3.4762,3.5119,3.5269,3.5978,3.727,3.762,3.8063,3.8445,3.87,3.8974,3.9208,3.957,3.9822,3.993,4.0238,4.0453,4.0489,4.0704,4.0882,4.0918,4.0918,4.0918,4.0918,4.0918,4.0918,4.0918,4.0918,4.0918,4.0918,4.0918,4.0918,4.0918,4.0918,4.0918,4.0918,4.0918,4.0918,4.0918,4.0918,4.0918,4.0918,4.0918,4.0918,4.0918,4.0918,4.0918,4.0918,4.0918,4.0918,4.0918,4.0918,4.0918,4.0918,4.0918,4.0918,4.0918,4.0918,4.0918,4.0918,4.0918,4.1084,4.1374,4.1726,4.2207,4.2704,4.2956,4.3221,4.3511,4.3615,4.3573,3.3533,3.3533,3.3533,3.3533,3.3533,3.3533,3.3722,3.4049,3.409,3.4376,3.4702,3.4783,3.4783,3.4783,3.4783,3.4783,3.4824,3.5027,3.5149,3.519,3.5376,3.5462,3.5418,3.5309,3.5189,3.5155,3.4813,3.4595,3.4385,3.4162,3.397,3.3833,3.3799,3.3799,3.3837,3.3799,3.3799,3.3837,3.3799,3.3799,3.3799,3.3799,3.3912,3.4101,3.4139,3.4328,3.4687,3.4762,3.5362,3.6386,3.6812,3.7107,3.7457,3.788,3.8173,3.8428,3.8902,3.9245,3.9317,3.9734,4.0058,4.013,4.0417,4.0632,4.0668,4.0775,4.0918,4.0918,4.0918,4.0918,4.0918,4.0918,4.0918,4.0918,4.0918,4.0918,4.0918,4.0918,4.0918,4.0918,4.0918,4.0918,4.0918,4.0918,4.0918,4.0918,4.0918,4.0918,4.0918,4.0918,4.0918,4.0918,4.0918,4.0918,4.0918,4.0918,4.0918,4.0918,4.0918,4.0918,4.0918,4.0918,4.0918,4.0918,4.0918,4.098,4.1229,4.1519,4.1975,4.2352,4.2663,4.3035,4.3346,4.3408,4.3408,3.3533,3.3533,3.3533,3.3533,3.3533,3.3517,3.3681,3.3968,3.4009,3.4213,3.4498,3.4621,3.4539,3.4661,3.4498,3.4637,3.4621,3.4661,3.4783,3.4824,3.4946,3.5163,3.5638,3.5423,3.5305,3.5276,3.5049,3.4686,3.437,3.4239,3.4082,3.3839,3.3736,3.3761,3.3799,3.3799,3.3799,3.3799,3.3799,3.3799,3.3799,3.3799,3.3837,3.3875,3.3875,3.3988,3.4252,3.4365,3.4687,3.5344,3.5847,3.6201,3.6608,3.6997,3.7218,3.7402,3.7953,3.8355,3.8574,3.9063,3.9534,3.957,3.9914,4.0202,4.0274,4.0561,4.0755,4.0775,4.0882,4.0918,4.0918,4.0918,4.0918,4.0918,4.0918,4.0918,4.0918,4.0918,4.0918,4.0918,4.0918,4.0918,4.0918,4.0918,4.0918,4.0918,4.0918,4.0918,4.0918,4.0918,4.0918,4.0918,4.0918,4.0918,4.0918,4.0918,4.0918,4.0918,4.0918,4.0918,4.0918,4.0918,4.0918,4.0918,4.0918,4.0918,4.098,4.1332,4.1705,4.1995,4.2269,4.2766,4.3221,4.3118,4.3077,3.3533,3.3533,3.3533,3.3533,3.3533,3.3533,3.3574,3.364,3.364,3.3722,3.3763,3.3804,3.3804,3.382,3.3845,3.3779,3.3886,3.4131,3.4417,3.4783,3.4783,3.4865,3.5068,3.4951,3.4951,3.4892,3.4569,3.4352,3.4169,3.3781,3.3542,3.371,3.3521,3.3517,3.3761,3.3799,3.3799,3.3799,3.3799,3.3799,3.3799,3.3799,3.3799,3.3799,3.3799,3.3837,3.3912,3.395,3.4026,3.4328,3.4837,3.5344,3.553,3.5829,3.6163,3.6497,3.6886,3.7329,3.766,3.8099,3.8482,3.8773,3.9156,3.9482,3.9822,4.0166,4.0382,4.0489,4.0704,4.0847,4.0918,4.0918,4.0918,4.0918,4.0918,4.0918,4.0918,4.0918,4.0918,4.0918,4.0918,4.0918,4.0918,4.0918,4.0918,4.0918,4.0918,4.0918,4.0918,4.0918,4.0918,4.0918,4.0918,4.0918,4.0918,4.0918,4.0918,4.0918,4.0918,4.0918,4.0918,4.0918,4.0918,4.0918,4.0918,4.0918,4.0918,4.0959,4.1312,4.1602,4.1912,4.2327,4.2638,4.2658,4.2658,3.3533,3.3533,3.3533,3.3533,3.3533,3.3533,3.3533,3.3533,3.3533,3.3533,3.3533,3.3533,3.3533,3.3533,3.3533,3.3533,3.3533,3.3681,3.3927,3.4131,3.4172,3.4172,3.4188,3.4254,3.4335,3.4669,3.4642,3.442,3.4083,3.3671,3.3509,3.3657,3.3398,3.3458,3.3761,3.3799,3.3799,3.3799,3.3799,3.3799,3.3799,3.3799,3.3799,3.3799,3.3799,3.3799,3.3837,3.3799,3.3799,3.3912,3.4197,3.4536,3.4744,3.5082,3.5418,3.5642,3.6015,3.6293,3.6608,3.7107,3.753,3.7751,3.8226,3.8737,3.9136,3.9518,3.9914,4.0238,4.0489,4.0668,4.0882,4.0918,4.0918,4.0918,4.0918,4.0918,4.0918,4.0918,4.0918,4.0918,4.0918,4.0918,4.0918,4.0918,4.0882,4.0882,4.0882,4.0882,4.0918,4.0918,4.0918,4.0918,4.0918,4.0918,4.0918,4.0918,4.0918,4.0918,4.0918,4.0918,4.0918,4.0918,4.0918,4.0918,4.0918,4.0918,4.0918,4.0939,4.1042,4.1457,4.1767,4.1912,4.2099,4.2327,4.2265,3.3533,3.3533,3.3533,3.3533,3.3533,3.3533,3.3533,3.3533,3.3533,3.3533,3.3533,3.3533,3.3533,3.3533,3.3533,3.3533,3.3533,3.3533,3.3656,3.3656,3.3656,3.364,3.3656,3.3697,3.3902,3.4539,3.4466,3.4302,3.404,3.3759,3.3549,3.3598,3.3329,3.3428,3.3719,3.3816,3.3867,3.3936,3.3953,3.4021,3.4094,3.4094,3.4076,3.3936,3.3816,3.3816,3.3799,3.3799,3.3799,3.3799,3.3799,3.3988,3.429,3.4574,3.4857,3.4894,3.5287,3.5493,3.568,3.6126,3.6553,3.6645,3.7273,3.797,3.8428,3.8902,3.9409,3.9986,4.0346,4.0632,4.0847,4.0918,4.0918,4.0918,4.0918,4.0918,4.0882,4.0882,4.0775,4.0918,4.0918,4.0918,4.0918,4.0918,4.0882,4.079,4.079,4.0755,4.0775,4.074,4.0612,4.054,4.0433,4.0596,4.0632,4.0882,4.0882,4.0918,4.0918,4.0918,4.0918,4.0918,4.0918,4.0918,4.0918,4.0918,4.0918,4.0918,4.1104,4.1436,4.1498,4.1519,4.1747,4.2037,4.185,3.3533,3.3533,3.3533,3.3533,3.3533,3.3533,3.3533,3.3533,3.3533,3.3533,3.3533,3.3533,3.3533,3.3533,3.3533,3.3533,3.3533,3.3533,3.3533,3.3533,3.3533,3.3533,3.3533,3.3533,3.3656,3.364,3.3763,3.3756,3.3587,3.329,3.3368,3.3555,3.3309,3.3336,3.3669,3.3833,3.3924,3.409,3.4163,3.4265,3.4491,3.4491,3.441,3.4154,3.386,3.3778,3.3799,3.3799,3.3799,3.3799,3.3799,3.3837,3.395,3.4026,3.4197,3.4461,3.4574,3.4799,3.5044,3.5231,3.568,3.6126,3.6497,3.7107,3.7806,3.8465,3.8974,3.9698,4.0346,4.0775,4.0882,4.0755,4.0882,4.0882,4.0811,4.0811,4.0775,4.0632,4.0489,4.0596,4.074,4.0811,4.0683,4.0612,4.054,4.0433,4.0417,4.0289,4.0182,4.011,4.0002,3.993,3.9858,4.0074,4.031,4.0668,4.0847,4.0882,4.0918,4.0918,4.0918,4.0918,4.0918,4.0918,4.0918,4.0918,4.0918,4.0918,4.098,4.1167,4.1146,4.1048,4.1312,4.1519,4.1374,3.3533,3.3533,3.3533,3.3533,3.3533,3.3533,3.3533,3.3533,3.3533,3.3533,3.3533,3.3533,3.3533,3.3533,3.3533,3.3533,3.3533,3.3533,3.3533,3.3533,3.3533,3.3533,3.3533,3.3533,3.3533,3.3517,3.3517,3.3533,3.3485,3.3167,3.3275,3.3441,3.3257,3.3308,3.3659,3.3775,3.3847,3.4054,3.4088,3.4155,3.4289,3.4189,3.3975,3.3966,3.3737,3.3626,3.3799,3.3799,3.3799,3.3799,3.3799,3.3799,3.3799,3.3837,3.3892,3.4064,3.4101,3.4177,3.4386,3.4536,3.4912,3.5212,3.5605,3.6201,3.696,3.7623,3.8428,3.9301,3.9858,4.0289,4.0254,4.0289,4.0289,4.0289,4.0289,4.0289,4.0218,4.0094,4.0058,4.0058,4.0038,4.0074,4.0218,4.0146,4.0146,4.0074,3.9986,3.9786,3.957,3.9534,3.9462,3.9606,3.9606,3.9842,4.0058,4.0346,4.0612,4.0683,4.0755,4.0755,4.0811,4.0719,4.0847,4.0918,4.0918,4.0847,4.0918,4.0918,4.0918,4.0918,4.0959,4.098,4.0939,4.0918,4.0918,3.3533,3.3533,3.3533,3.3533,3.3533,3.3533,3.3533,3.3533,3.3533,3.3533,3.3533,3.3533,3.3533,3.3533,3.3533,3.3533,3.3533,3.3533,3.3533,3.3533,3.3533,3.3533,3.3533,3.3533,3.3533,3.3533,3.3533,3.3533,3.3485,3.3279,3.3346,3.3475,3.3273,3.3285,3.3638,3.3713,3.371,3.3809,3.3809,3.3809,3.3727,3.3479,3.337,3.3657,3.3398,3.3403,3.3761,3.3799,3.3799,3.3799,3.3799,3.3799,3.3799,3.3799,3.3799,3.3799,3.3799,3.3799,3.3912,3.4064,3.4365,3.4591,3.5025,3.5568,3.6349,3.7218,3.8026,3.8902,3.9409,3.9714,3.9822,3.975,3.9678,3.9606,3.9606,3.9534,3.9462,3.9317,3.91,3.9136,3.9208,3.9281,3.9317,3.9462,3.9389,3.9208,3.9063,3.9083,3.8918,3.9047,3.9083,3.9281,3.9462,3.9662,3.9842,3.9986,4.0238,4.0325,4.0361,4.0361,4.0433,4.0504,4.0576,4.054,4.0704,4.0668,4.0775,4.0882,4.0918,4.0918,4.0918,4.0918,4.0918,4.0918,4.0918,3.3533,3.3533,3.3533,3.3533,3.3533,3.3533,3.3533,3.3533,3.3533,3.3533,3.3533,3.3533,3.3533,3.3533,3.3533,3.3533,3.3533,3.3533,3.3533,3.3533,3.3533,3.3533,3.3533,3.3533,3.3533,3.3533,3.3533,3.3533,3.347,3.3422,3.3441,3.354,3.3492,3.3562,3.3572,3.3529,3.3875,3.405,3.4043,3.4083,3.4017,3.3681,3.3603,3.3558,3.3394,3.3289,3.3572,3.3647,3.3685,3.3723,3.3761,3.3761,3.3799,3.3799,3.3799,3.3799,3.3799,3.3799,3.3799,3.3912,3.4064,3.4252,3.4554,3.5137,3.6089,3.7052,3.7897,3.8574,3.8938,3.9136,3.9353,3.957,3.9462,3.9208,3.8991,3.8865,3.8756,3.8409,3.8226,3.7897,3.7861,3.8117,3.8299,3.8501,3.8611,3.8372,3.819,3.8246,3.8319,3.8392,3.8574,3.8793,3.9011,3.9192,3.9554,3.9698,3.9842,3.9966,4.0002,4.0002,4.011,4.0146,4.0002,4.0002,4.0218,4.0433,4.054,4.0647,4.0811,4.0918,4.0918,4.0918,4.0918,4.0918,4.0918,3.304,3.3533,3.3533,3.3533,3.3533,3.3533,3.3533,3.3533,3.3533,3.3533,3.3533,3.3533,3.3533,3.3533,3.3533,3.3533,3.3533,3.3533,3.3533,3.3533,3.3533,3.3533,3.3533,3.3533,3.3533,3.3501,3.3501,3.3358,3.3358,3.3406,3.3544,3.3466,3.3355,3.321,3.3273,3.3064,3.304,3.3105,3.3153,3.3153,3.3128,3.2925,3.2823,3.3033,3.2709,3.2828,3.3061,3.3099,3.3099,3.3099,3.3099,3.3099,3.3099,3.3099,3.3099,3.3137,3.3365,3.3555,3.3761,3.3799,3.3912,3.4064,3.4328,3.495,3.5978,3.6645,3.7273,3.788,3.8026,3.8246,3.8372,3.8372,3.8299,3.8209,3.8136,3.788,3.7696,3.7513,3.7218,3.683,3.6571,3.6867,3.7199,3.7457,3.766,3.7696,3.7623,3.766,3.7696,3.777,3.799,3.8265,3.8484,3.8667,3.9067,3.9393,3.9482,3.9606,3.9714,3.975,3.9786,3.975,3.9462,3.9534,3.9822,4.0038,4.0218,4.0504,4.0719,4.0847,4.0918,4.0847,4.0811,4.0918,4.0918,3.2587,3.3148,3.3205,3.3205,3.3205,3.3271,3.3312,3.3328,3.3451,3.3533,3.3533,3.3533,3.3533,3.3533,3.3533,3.3533,3.3533,3.3533,3.3533,3.3533,3.3533,3.3533,3.3533,3.3533,3.347,3.339,3.3342,3.3167,3.3024,3.3056,3.3127,3.3206,3.2953,3.2873,3.277,3.2634,3.2563,3.2563,3.2523,3.2475,3.2348,3.2101,3.2161,3.2233,3.2193,3.2184,3.2512,3.2626,3.2642,3.2626,3.2664,3.2719,3.2702,3.2702,3.2719,3.2778,3.3044,3.3365,3.3572,3.3723,3.3799,3.3912,3.4177,3.4742,3.5436,3.5829,3.6126,3.6849,3.6923,3.6997,3.7071,3.7144,3.7071,3.7034,3.6923,3.6664,3.6479,3.6386,3.6275,3.6015,3.5717,3.553,3.5903,3.6349,3.6664,3.6886,3.6997,3.7071,3.7181,3.7255,3.7513,3.7826,3.7899,3.8082,3.8338,3.872,3.8938,3.9047,3.9136,3.91,3.8918,3.8882,3.8737,3.8955,3.9245,3.9353,3.9389,4.0002,4.0612,4.0469,4.0433,4.0632,4.0704,4.0811,4.0882,3.2216,3.2298,3.2298,3.2298,3.2381,3.2695,3.286,3.2917,3.3287,3.341,3.3353,3.3492,3.3451,3.3492,3.3492,3.3533,3.3533,3.3533,3.3533,3.3533,3.3517,3.346,3.3429,3.3406,3.3286,3.3072,3.3024,3.2793,3.2539,3.2507,3.2539,3.2475,3.2459,3.2459,3.2412,3.2316,3.2253,3.2253,3.2253,3.2142,3.2015,3.1856,3.1939,3.2007,3.2025,3.2184,3.255,3.2473,3.2435,3.2435,3.2397,3.2397,3.2359,3.2397,3.2397,3.249,3.2778,3.3006,3.3175,3.3572,3.3799,3.3912,3.4139,3.4441,3.4799,3.4969,3.5306,3.5754,3.594,3.6015,3.6163,3.6238,3.6126,3.6052,3.5978,3.5754,3.5568,3.5381,3.5269,3.5119,3.4969,3.4819,3.4782,3.5287,3.5754,3.6015,3.6275,3.6349,3.6812,3.696,3.7218,3.7402,3.7365,3.7458,3.7495,3.7696,3.7806,3.7843,3.788,3.7806,3.766,3.7696,3.7806,3.7953,3.8117,3.8355,3.8611,3.9063,3.9498,3.9786,4.0002,4.0218,4.0397,4.0453,4.0576,3.1331,3.1331,3.1331,3.1662,3.2216,3.2381,3.2422,3.2463,3.2628,3.2711,3.2752,3.2942,3.3081,3.3164,3.3394,3.3533,3.3533,3.3533,3.3476,3.3533,3.3517,3.3349,3.331,3.3151,3.3008,3.2738,3.2642,3.2444,3.2142,3.211,3.1935,3.1903,3.2015,3.2094,3.2078,3.1935,3.184,3.1824,3.1808,3.1697,3.1649,3.1586,3.1599,3.1642,3.1625,3.1686,3.184,3.184,3.184,3.1878,3.1916,3.1916,3.1955,3.1955,3.1955,3.1993,3.2337,3.2512,3.2702,3.3251,3.3799,3.3799,3.395,3.4139,3.4328,3.4536,3.4837,3.5082,3.5194,3.5306,3.5381,3.5456,3.5418,3.5269,3.5119,3.4932,3.4782,3.4687,3.4574,3.4536,3.4348,3.4197,3.4215,3.429,3.4724,3.5157,3.5418,3.5754,3.6163,3.6479,3.6664,3.6775,3.6738,3.6812,3.6849,3.6775,3.6664,3.6664,3.6664,3.6664,3.6664,3.6701,3.6812,3.6923,3.7107,3.7365,3.7677,3.8026,3.8501,3.91,3.9534,3.9858,4.0002,4.0038,4.011,3.0776,3.0776,3.0776,3.1164,3.176,3.1926,3.1994,3.2009,3.2174,3.2174,3.2216,3.2505,3.2628,3.2752,3.2917,3.3081,3.3081,3.3189,3.3151,3.317,3.3172,3.3111,3.2945,3.2786,3.2618,3.2348,3.2237,3.2055,3.176,3.176,3.1649,3.1586,3.1617,3.1729,3.1713,3.1538,3.1395,3.1395,3.1395,3.1395,3.1395,3.1411,3.1411,3.1433,3.1433,3.1472,3.151,3.1494,3.151,3.151,3.1472,3.1433,3.1433,3.1395,3.1395,3.1549,3.1725,3.1993,3.2261,3.2871,3.3647,3.3761,3.3799,3.3988,3.4139,3.4215,3.4386,3.4536,3.4612,3.4632,3.4669,3.4649,3.4649,3.4536,3.4536,3.4423,3.431,3.4215,3.4101,3.3988,3.3875,3.3912,3.395,3.4026,3.4328,3.4744,3.5119,3.5344,3.5568,3.5791,3.5866,3.594,3.594,3.6052,3.6182,3.5978,3.5829,3.5829,3.5829,3.5829,3.5829,3.5829,3.5866,3.5978,3.6201,3.6479,3.6719,3.7015,3.7787,3.8664,3.8955,3.9136,3.9317,3.9337,3.9373,3.0776,3.0776,3.0776,3.0817,3.0984,3.1331,3.1523,3.1579,3.1911,3.205,3.205,3.2174,3.2216,3.2216,3.2381,3.2433,3.2428,3.2633,3.2616,3.2448,3.271,3.2665,3.2499,3.234,3.2253,3.1999,3.1864,3.1744,3.1443,3.149,3.1427,3.1411,3.1458,3.1474,3.1427,3.1411,3.1395,3.1395,3.1395,3.1395,3.1395,3.1395,3.1395,3.1395,3.1395,3.1395,3.1395,3.1395,3.1395,3.1395,3.1395,3.1395,3.1395,3.1395,3.1395,3.1433,3.1725,3.1955,3.2069,3.2795,3.3213,3.3572,3.3572,3.3761,3.3799,3.3837,3.3912,3.4139,3.4026,3.395,3.3912,3.3912,3.395,3.4026,3.4064,3.4064,3.3988,3.395,3.3875,3.3837,3.3837,3.3799,3.3837,3.3875,3.4064,3.4386,3.4782,3.5007,3.5157,3.5269,3.5381,3.5381,3.5381,3.5324,3.5362,3.5157,3.5007,3.5044,3.5007,3.5007,3.5007,3.5025,3.5044,3.5119,3.5306,3.5568,3.5791,3.5978,3.6682,3.7346,3.7934,3.8226,3.8465,3.8611,3.8611,3.0776,3.0776,3.0776,3.0776,3.0817,3.0957,3.1025,3.1067,3.1191,3.1289,3.1372,3.1579,3.1745,3.1787,3.2005,3.2011,3.191,3.1905,3.1899,3.1687,3.2002,3.1943,3.1818,3.185,3.1864,3.1665,3.1554,3.1554,3.1411,3.1347,3.1379,3.1395,3.1284,3.1395,3.1395,3.1395,3.1395,3.1395,3.1395,3.1395,3.1395,3.1395,3.1395,3.1395,3.1395,3.1395,3.1395,3.1395,3.1395,3.1395,3.1395,3.1395,3.1395,3.1395,3.1395,3.1395,3.1609,3.1725,3.1916,3.2337,3.2566,3.2909,3.3251,3.3403,3.3403,3.3685,3.3761,3.3761,3.3685,3.3723,3.3837,3.3837,3.3875,3.3875,3.3875,3.3875,3.3837,3.3837,3.3799,3.3799,3.3799,3.373,3.3713,3.3594,3.3727,3.396,3.4319,3.4689,3.4894,3.5007,3.5119,3.5025,3.495,3.4724,3.4574,3.4536,3.4423,3.4423,3.431,3.4215,3.4197,3.4348,3.4461,3.4612,3.4649,3.4724,3.51,3.5381,3.5456,3.5903,3.6719,3.7273,3.7513,3.7696,3.777,3.0776,3.0776,3.0776,3.0776,3.0776,3.0776,3.0776,3.0776,3.0776,3.0776,3.0859,3.115,3.1233,3.1327,3.1445,3.1519,3.1248,3.129,3.1103,3.091,3.1222,3.1149,3.1121,3.13,3.1323,3.1273,3.1325,3.1386,3.1172,3.1204,3.1093,3.0982,3.1029,3.095,3.1029,3.1157,3.1395,3.1395,3.1395,3.1395,3.1395,3.1395,3.1395,3.1395,3.1395,3.1395,3.1395,3.1395,3.1395,3.1395,3.1395,3.1395,3.1395,3.1395,3.1395,3.1395,3.1433,3.1549,3.1725,3.1763,3.1993,3.2146,3.2664,3.293,3.3006,3.3175,3.3306,3.3344,3.342,3.342,3.3403,3.3441,3.3441,3.3458,3.3424,3.3386,3.3521,3.3521,3.3515,3.357,3.3631,3.3559,3.3474,3.3405,3.3377,3.3589,3.3839,3.4226,3.4559,3.4632,3.4707,3.4612,3.4499,3.4328,3.4177,3.4064,3.395,3.3837,3.3799,3.3799,3.3837,3.4064,3.4101,3.4139,3.4197,3.4331,3.4649,3.4857,3.4916,3.5178,3.5791,3.6275,3.6553,3.6701,3.6812,3.0803,3.0776,3.0776,3.0776,3.0776,3.0776,3.0776,3.0776,3.0776,3.0776,3.0817,3.0817,3.0871,3.0771,3.0578,3.0483,3.0432,3.0453,3.0291,3.021,3.0436,3.0326,3.0383,3.0547,3.0678,3.0886,3.0945,3.09,3.0817,3.0877,3.068,3.0489,3.0505,3.0505,3.0664,3.0902,3.1188,3.1236,3.1268,3.13,3.1363,3.1395,3.1395,3.1395,3.1395,3.1395,3.1395,3.1395,3.1395,3.1395,3.1395,3.1395,3.1395,3.1395,3.1395,3.1395,3.1395,3.1433,3.1472,3.151,3.151,3.1702,3.2146,3.2452,3.2642,3.2757,3.2871,3.2871,3.2871,3.2778,3.2702,3.274,3.2778,3.2762,3.2728,3.2826,3.3037,3.3104,3.3123,3.315,3.3252,3.3186,3.2998,3.2912,3.3032,3.3223,3.3452,3.3678,3.3969,3.4067,3.4122,3.4101,3.4026,3.3912,3.3837,3.3799,3.3837,3.3799,3.3799,3.3799,3.3799,3.3799,3.3912,3.395,3.3802,3.3885,3.396,3.4147,3.4326,3.468,3.4817,3.5291,3.5608,3.5587,3.5605,3.0522,3.0551,3.0729,3.0776,3.0776,3.0776,3.0776,3.0776,3.0776,3.0776,3.0776,3.0776,3.0685,3.0522,3.0419,3.0097,2.9859,2.9649,2.9483,2.9503,2.9673,2.9715,2.9774,2.9862,3.0015,3.0098,3.0164,3.0272,3.0184,3.0287,3.0404,3.0346,3.0108,3.0124,3.0256,3.0484,3.0684,3.0928,3.0991,3.1204,3.1331,3.1395,3.1395,3.1395,3.1395,3.1395,3.1395,3.1395,3.1395,3.1395,3.1395,3.1395,3.1395,3.1395,3.1395,3.1395,3.1395,3.1395,3.1395,3.1395,3.1395,3.1395,3.1686,3.1878,3.2146,3.2375,3.2473,3.2435,3.2397,3.2359,3.2342,3.2364,3.2331,3.2282,3.22,3.2149,3.2342,3.2413,3.2433,3.2577,3.2677,3.2724,3.2555,3.2552,3.2689,3.2861,3.3066,3.3272,3.3511,3.37,3.3782,3.3799,3.3799,3.3799,3.3761,3.3761,3.3799,3.3799,3.3761,3.3761,3.3782,3.3782,3.3799,3.3696,3.3508,3.3272,3.3108,3.3342,3.3663,3.3379,3.3459,3.4103,3.457,3.4641,3.4786,3.0199,3.0229,3.0364,3.0451,3.0437,3.0451,3.0437,3.0481,3.07,3.0773,3.0642,3.0627,3.0466,3.0214,3.0038,2.9774,2.9467,2.9276,2.9056,2.8861,2.8942,2.8901,2.8975,2.9108,2.9245,2.9313,2.9394,2.9548,2.9452,2.934,2.9372,2.9357,2.9424,2.944,2.9388,2.9382,2.9647,3.0125,3.0596,3.1023,3.1252,3.1356,3.1395,3.1395,3.1395,3.1395,3.1395,3.1395,3.1395,3.1395,3.1395,3.1395,3.1395,3.1395,3.1395,3.1395,3.1395,3.1395,3.1395,3.1395,3.1395,3.1395,3.1395,3.1533,3.1686,3.1916,3.1993,3.2031,3.2069,3.2091,3.2043,3.1994,3.1929,3.188,3.1674,3.1505,3.1539,3.1663,3.1793,3.1918,3.2074,3.2208,3.2246,3.2261,3.2383,3.2501,3.2758,3.3066,3.3357,3.3665,3.3748,3.3799,3.3761,3.3761,3.3685,3.3555,3.35,3.35,3.3479,3.3517,3.3651,3.3611,3.3457,3.3286,3.3152,3.2912,3.2616,3.2724,3.2902,3.2672,3.2741,3.3431,3.3931,3.4,3.4127,2.9862,2.9877,2.9892,2.995,2.9906,2.995,2.995,2.9965,3.0466,3.0583,3.0375,3.0346,3.017,2.9877,2.9657,2.9496,2.9193,2.8988,2.8754,2.8394,2.8403,2.8338,2.8276,2.8311,2.8469,2.8657,2.8761,2.8808,2.8609,2.8566,2.8479,2.8109,2.8278,2.8412,2.8494,2.8479,2.8854,2.9482,3.0115,3.0669,3.1038,3.1241,3.1302,3.1318,3.1318,3.1302,3.1395,3.1395,3.1395,3.1395,3.1395,3.1395,3.1395,3.1395,3.1395,3.1395,3.1395,3.1395,3.1395,3.1395,3.1395,3.1395,3.1395,3.1433,3.1549,3.1571,3.1702,3.1654,3.1676,3.1564,3.1538,3.1291,3.1162,3.1066,3.0911,3.0808,3.0822,3.0934,3.1066,3.1207,3.1378,3.1475,3.1494,3.1473,3.1606,3.1941,3.2283,3.2657,3.3014,3.3371,3.3562,3.3647,3.3647,3.3479,3.3251,3.312,3.3108,3.3125,3.3091,3.2995,3.2956,3.2957,3.3009,3.2674,3.2304,3.2365,3.2229,3.2266,3.2336,3.2477,3.2614,3.3066,3.3312,3.3418,3.3702,2.9525,2.9555,2.9804,2.9906,2.9892,2.9906,2.9892,2.9921,3.0053,3.0082,3.0024,2.9994,2.9833,2.9525,2.9437,2.9237,2.8959,2.8754,2.8496,2.8277,2.8131,2.7955,2.7838,2.7806,2.7821,2.7792,2.7917,2.8127,2.8131,2.8082,2.8057,2.8057,2.8021,2.7985,2.7985,2.8,2.8334,2.8934,2.9312,2.9945,3.0377,3.0492,3.0531,3.0817,3.0933,3.1087,3.1202,3.1356,3.1395,3.1395,3.1395,3.1395,3.1395,3.1395,3.1395,3.1395,3.1318,3.1279,3.1356,3.1341,3.1341,3.1363,3.1363,3.1379,3.1433,3.1395,3.1347,3.1284,3.1188,3.1099,3.0956,3.0648,3.0426,3.0299,3.0156,3.0134,3.0132,3.0248,3.0362,3.0535,3.0669,3.0743,3.0762,3.0845,3.0907,3.119,3.1556,3.1922,3.2326,3.2697,3.3053,3.3175,3.3327,3.3196,3.2892,3.2707,3.2657,3.2508,3.2425,3.2318,3.2213,3.2194,3.2137,3.1686,3.134,3.1538,3.1683,3.1652,3.1755,3.205,3.2377,3.2736,3.2949,3.3075,3.3405,2.9164,2.9178,2.9393,2.9467,2.9467,2.9467,2.9467,2.9467,2.9467,2.9467,2.9511,2.9584,2.9511,2.9232,2.9164,2.9003,2.871,2.8496,2.8174,2.7993,2.7824,2.7619,2.7495,2.7378,2.7342,2.7298,2.732,2.7486,2.7674,2.7601,2.7565,2.7638,2.7638,2.7674,2.7638,2.7698,2.7982,2.8522,2.8589,2.9002,2.9642,2.9897,3.0168,3.0454,3.0531,3.0686,3.0686,3.084,3.0801,3.0801,3.0763,3.0956,3.0971,3.0894,3.0801,3.0801,3.0801,3.0917,3.1071,3.1117,3.1092,3.109,3.1141,3.1109,3.0823,3.0807,3.0966,3.0902,3.0759,3.0632,3.0537,3.0315,3.0172,3.0029,2.9806,2.9668,2.9765,2.9901,3.0056,3.0167,3.0351,3.0565,3.0598,3.0833,3.0929,3.1112,3.135,3.1672,3.2001,3.2151,3.2467,3.2681,3.2778,3.2702,3.2435,3.2272,3.219,3.201,3.1851,3.1721,3.1618,3.1473,3.1221,3.1,3.0917,3.1009,3.1101,3.1254,3.1406,3.1713,3.204,3.2386,3.2564,3.2757,3.299,2.89,2.8886,2.89,2.89,2.89,2.89,2.8915,2.8915,2.89,2.8915,2.8973,2.9262,2.9144,2.8973,2.8827,2.8637,2.8408,2.8189,2.7891,2.7642,2.7466,2.7335,2.7188,2.7042,2.7056,2.7056,2.7071,2.7071,2.7144,2.7129,2.7129,2.7034,2.6998,2.7013,2.7042,2.7166,2.7519,2.8018,2.8268,2.845,2.8961,2.9547,2.9819,2.9989,3.0028,3.0052,3.009,3.0129,3.0129,3.0168,3.0245,3.0415,3.0531,3.0454,3.0322,3.0284,3.0215,3.0384,3.0523,3.0522,3.0557,3.0621,3.0672,3.0551,3.0245,3.0251,3.0393,3.0383,3.0203,3.0235,3.0119,2.9976,2.9854,2.9758,2.9504,2.9329,2.9493,2.962,2.9728,2.9835,3.0014,3.0228,3.0425,3.0694,3.0891,3.1092,3.1334,3.1659,3.1911,3.1918,3.2059,3.2146,3.2184,3.2069,3.1916,3.1906,3.1841,3.1599,3.141,3.1206,3.104,3.0929,3.0815,3.0627,3.0598,3.0709,3.0945,3.1183,3.1334,3.1523,3.2027,3.2426,3.2438,3.2609,3.2629,2.8886,2.8886,2.8886,2.8886,2.8886,2.8886,2.8886,2.8886,2.8886,2.8886,2.8915,2.893,2.893,2.8886,2.8584,2.8408,2.8291,2.7984,2.773,2.7518,2.7247,2.7086,2.7049,2.6998,2.6998,2.6998,2.6998,2.6998,2.6998,2.6998,2.7013,2.7027,2.7013,2.713,2.7415,2.7481,2.7656,2.8057,2.8291,2.8467,2.8739,2.9173,2.929,2.9446,2.9601,2.9834,2.9974,3.009,3.009,3.009,3.0021,3.006,3.0029,2.996,2.9853,2.9684,2.9632,2.9724,2.9793,2.9731,2.9736,2.9703,2.9716,2.9648,2.9452,2.9429,2.9528,2.9555,2.9535,2.9807,2.9785,2.9595,2.9472,2.9472,2.9314,2.9314,2.9369,2.9405,2.9441,2.9513,2.9549,2.9765,3.0022,3.0267,3.0492,3.0739,3.1082,3.1383,3.163,3.1644,3.1686,3.1686,3.1725,3.1571,3.1533,3.1571,3.1513,3.1219,3.1001,3.0846,3.0653,3.0505,3.0361,3.0389,3.0396,3.0515,3.0734,3.1155,3.1322,3.1581,3.2161,3.2527,3.2429,3.2353,3.2304]},{"header":{"parameterUnit":"m.s-1","parameterCategory":1,"la1":31.0,"la2":29.5877,"lo1":-88.7671,"lo2":-86.6584,"dx":0.0162,"dy":0.0185,"nx":115,"ny":88,"refTime":"2022-11-24T06:00:00:Z","depth":0,"parameterNumber":3,"parameterNumberName":"V-component_of_WINDS"},"data":[0.0,0.0,0.0,0.0,0.0,0.0,0.0,0.0,0.0,0.0,0.0,0.0,0.0,0.0,0.0,0.0,0.0,0.0,0.0,0.0,0.0,0.0,0.0,0.0,0.0,0.0,0.0,0.0,0.0,0.0,0.0,0.0,0.0,0.0,0.0,0.0,0.0,0.0,0.0,0.0,0.0,0.0,0.0,0.0,0.0,0.0,0.0,0.0,0.0,0.0,0.0,0.0,0.0,0.0,0.0,0.0,0.0,0.0,0.0,0.0,0.0,0.0,0.0,0.0,0.0,0.0,0.0,0.0,0.0,0.0,0.0,0.0,0.0,0.0,0.0,0.0,0.0,0.0,0.0,0.0,0.0,0.0,0.0,0.0,0.0,0.0,0.0,0.0,0.0,0.0,0.0,0.0,0.0,0.0,0.0,0.0,0.0,0.0,0.0,0.0,0.0,0.0,0.0,0.0,0.0,0.0,0.0,0.0,0.0,0.0,0.0,0.0,0.0,0.0,0.0,0.0,0.0,0.0,0.0,0.0,0.0,0.0,0.0,0.0,0.0,0.0,0.0,0.0,0.0,0.0,0.0,0.0,0.0,0.0,0.0,0.0,0.0,0.0,0.0,0.0,0.0,0.0,0.0,0.0,0.0,0.0,0.0,0.0,0.0,0.0,0.0,0.0,0.0,0.0,0.0,0.0,0.0,0.0,0.0,0.0,0.0,0.0,0.0,0.0,0.0,0.0,0.0,0.0,0.0,0.0,0.0,0.0,0.0,0.0,0.0,0.0,0.0,0.0,0.0,0.0,0.0,0.0,0.0,0.0,0.0,0.0,0.0,0.0,0.0,0.0,0.0,0.0,0.0,0.0,0.0,0.0,0.0,0.0,0.0,0.0,0.0,0.0,0.0,0.0,0.0,0.0,0.0,0.0,0.0,0.0,0.0,0.0,0.0,0.0,0.0,0.0,0.0,0.0,0.0,0.0,0.0,0.0,0.0,0.0,0.0,0.0,0.0,0.0,0.0,0.0,0.0,0.0,0.0,0.0,0.0,0.0,0.0,0.0,0.0,0.0,0.0,0.0,0.0,0.0,0.0,0.0,0.0,0.0,0.0,0.0,0.0,0.0,0.0,0.0,0.0,0.0,0.0,0.0,0.0,0.0,0.0,0.0,0.0,0.0,0.0,0.0,0.0,0.0,0.0,0.0,0.0,0.0,0.0,0.0,0.0,0.0,0.0,0.0,0.0,0.0,0.0,0.0,0.0,0.0,0.0,0.0,0.0,0.0,0.0,0.0,0.0,0.0,0.0,0.0,0.0,0.0,0.0,0.0,0.0,0.0,0.0,0.0,0.0,0.0,0.0,0.0,0.0,0.0,0.0,0.0,0.0,0.0,0.0,0.0,0.0,0.0,0.0,0.0,0.0,0.0,0.0,0.0,0.0,0.0,0.0,0.0,0.0,0.0,0.0,0.0,0.0,0.0,0.0,0.0,0.0,0.0,0.0,0.0,0.0,0.0,0.0,0.0,0.0,0.0,0.0,0.0,0.0,0.0,0.0,0.0,0.0,0.0,0.0,0.0,0.0,0.0,0.0,0.0,0.0,0.0,0.0,0.0,0.0,0.0,0.0,0.0,0.0,0.0,0.0,0.0,0.0,0.0,0.0,0.0,0.0,0.0,0.0,0.0,0.0,0.0,0.0,0.0,0.0,0.0,0.0,0.0,0.0,0.0,0.0,0.0,0.0,0.0,0.0,0.0,0.0,0.0,0.0,0.0,0.0,0.0,0.0,0.0,0.0,0.0,0.0,0.0,0.0,0.0,0.0,0.0,0.0,0.0,0.0,0.0,0.0,0.0,0.0,0.0,0.0,0.0,0.0,0.0,0.0,0.0,0.0,0.0,0.0,0.0,0.0,0.0,0.0,0.0,0.0,0.0,0.0,0.0,0.0,0.0,0.0,0.0,0.0,0.0,0.0,0.0,0.0,0.0,0.0,0.0,0.0,0.0,0.0,0.0,0.0,0.0,0.0,0.0,0.0,0.0,0.0,0.0,0.0,0.0,0.0,0.0,0.0,0.0,0.0,0.0,0.0,0.0,0.0,0.0,0.0,0.0,0.0,0.0,0.0,0.0,0.0,0.0,0.0,0.0,0.0,0.0,0.0,0.0,0.0,0.0,0.0,0.0,0.0,0.0,0.0,0.0,0.0,0.0,0.0,0.0,0.0,0.0,0.0,0.0,0.0,0.0,0.0,0.0,0.0,0.0,0.0,0.0,0.0,0.0,0.0,0.0,0.0,0.0,0.0,0.0,0.0,0.0,0.0,0.0,0.0,0.0,0.0,0.0,0.0,0.0,0.0,0.0,0.0,0.0,0.0,0.0,0.0,0.0,0.0,0.0,0.0,0.0,0.0,0.0,0.0,0.0,0.0,0.0,0.0,0.0,0.0,0.0,0.0,0.0,0.0,0.0,0.0,0.0,0.0,0.0,0.0,0.0,0.0,0.0,0.0,0.0,0.0,0.0,0.0,0.0,0.0,0.0,0.0,0.0,0.0,0.0,0.0,0.0,0.0,0.0,0.0,0.0,0.0,0.0,0.0,0.0,0.0,0.0,0.0,0.0,0.0,0.0,0.0,0.0,0.0,0.0,0.0,0.0,0.0,0.0,0.0,0.0,0.0,0.0,0.0,0.0,0.0,0.0,0.0,0.0,0.0,0.0,0.0,0.0,0.0,0.0,0.0,0.0,0.0,0.0,0.0,0.0,0.0,0.0,0.0,0.0,0.0,0.0,0.0,0.0,0.0,0.0,0.0,0.0,0.0,0.0,0.0,0.0,0.0,0.0,0.0,0.0,0.0,0.0,0.0,0.0,0.0,0.0,0.0,0.0,0.0,0.0,0.0,0.0,0.0,0.0,0.0,0.0,0.0,0.0,0.0,0.0,0.0,0.0,0.0,0.0,0.0,0.0,0.0,0.0,0.0,0.0,0.0,0.0,0.0,0.0,0.0,0.0,0.0,0.0,0.0,0.0,0.0,0.0,0.0,0.0,0.0,0.0,0.0,0.0,0.0,0.0,0.0,0.0,0.0,0.0,0.0,0.0,0.0,0.0,0.0,0.0,0.0,0.0,0.0,0.0,0.0,0.0,0.0,0.0,0.0,0.0,0.0,0.0,0.0,0.0,0.0,0.0,0.0,0.0,0.0,0.0,0.0,0.0,0.0,0.0,0.0,0.0,0.0,0.0,0.0,0.0,0.0,0.0,0.0,0.0,0.0,0.0,0.0,0.0,0.0,0.0,0.0,0.0,0.0,0.0,0.0,0.0,0.0,0.0,0.0,0.0,0.0,0.0,0.0,0.0,0.0,0.0,0.0,0.0,0.0,0.0,0.0,0.0,0.0,0.0,0.0,0.0,0.0,0.0,0.0,0.0,0.0,0.0,0.0,0.0,0.0,0.0,0.0,0.0,0.0,0.0,0.0,0.0,0.0,0.0,0.0,0.0,0.0,0.0,0.0,0.0,0.0,0.0,0.0,0.0,0.0,0.0,0.0,0.0,0.0,0.0,0.0,0.0,0.0,0.0,0.0,0.0,0.0,0.0,0.0,0.0,0.0,0.0,0.0,0.0,0.0,0.0,0.0,0.0,0.0,0.0,0.0,0.0,0.0,0.0,0.0,0.0,0.0,0.0,0.0,0.0,0.0,0.0,0.0,0.0,0.0,0.0,0.0,0.0,0.0,0.0,0.0,0.0,0.0,0.0,0.0,0.0,0.0,0.0,0.0,0.0,0.0,0.0,0.0,0.0,0.0,0.0,0.0,0.0,0.0,0.0,0.0,0.0,0.0,0.0,0.0,0.0,0.0,0.0,0.0,0.0,0.0,0.0,0.0,0.0,0.0,0.0,0.0,0.0,0.0,0.0,0.0,0.0,0.0,0.0,0.0,0.0,0.0,0.0,0.0,0.0,0.0,0.0,0.0,0.0,0.0,0.0,0.0,0.0,0.0,0.0,0.0,0.0,0.0,0.0,0.0,0.0,0.0,0.0,0.0,0.0,0.0,0.0,0.0,0.0,0.0,0.0,0.0,0.0,0.0,0.0,0.0,0.0,0.0,0.0,0.0,0.0,0.0,0.0,0.0,0.0,0.0,0.0,0.0,0.0,0.0,0.0,0.0,0.0,0.0,0.0,0.0,0.0,0.0,0.0,0.0,0.0,0.0,0.0,0.0,0.0,0.0,0.0,0.0,0.0,0.0,0.0,0.0,0.0,0.0,0.0,0.0,0.0,1.6293,0.0,0.0,0.0,1.6575,0.0,0.0,0.0,0.0,0.0,0.0,0.0,0.0,0.0,0.0,0.0,0.0,0.0,0.0,0.0,0.0,0.0,0.0,0.0,0.0,0.0,0.0,0.0,0.0,0.0,0.0,0.0,0.0,0.0,0.0,0.0,0.0,0.0,0.0,0.0,0.0,0.0,0.0,0.0,0.0,0.0,0.0,0.0,0.0,0.0,0.0,0.0,0.0,0.0,0.0,0.0,0.0,0.0,0.0,0.0,0.0,0.0,0.0,0.0,0.0,0.0,0.0,0.0,0.0,0.0,0.0,0.0,0.0,0.0,0.0,0.0,0.0,0.0,0.0,0.0,0.0,0.0,0.0,0.0,0.0,0.0,0.0,0.0,0.0,0.0,0.0,0.0,0.0,0.0,0.0,0.0,0.0,0.0,0.0,0.0,0.0,0.0,0.0,0.0,0.0,0.0,0.0,0.0,0.0,0.0,0.0,0.0,0.0,0.0,0.0,1.6389,1.645,1.6523,1.6656,1.6869,0.0,0.0,0.0,0.0,0.0,0.0,0.0,0.0,0.0,0.0,0.0,0.0,0.0,0.0,0.0,0.0,0.0,0.0,0.0,0.0,0.0,0.0,0.0,0.0,0.0,0.0,0.0,0.0,0.0,0.0,0.0,0.0,0.0,0.0,0.0,0.0,0.0,0.0,0.0,0.0,0.0,0.0,0.0,0.0,0.0,0.0,0.0,0.0,0.0,0.0,0.0,0.0,0.0,0.0,0.0,0.0,0.0,0.0,0.0,0.0,0.0,0.0,0.0,0.0,0.0,0.0,0.0,0.0,0.0,0.0,0.0,0.0,0.0,0.0,0.0,0.0,0.0,0.0,0.0,0.0,0.0,0.0,0.0,0.0,0.0,0.0,0.0,0.0,0.0,0.0,0.0,0.0,0.0,0.0,0.0,0.0,0.0,0.0,0.0,0.0,0.0,0.0,0.0,0.0,0.0,0.0,0.0,0.0,0.0,0.0,0.0,0.0,1.6537,1.6682,1.6901,0.0,0.0,0.0,0.0,0.0,0.0,0.0,0.0,0.0,0.0,0.0,0.0,0.0,0.0,0.0,0.0,0.0,0.0,0.0,0.0,0.0,0.0,0.0,0.0,0.0,0.0,0.0,0.0,0.0,0.0,0.0,0.0,0.0,0.0,0.0,0.0,0.0,0.0,0.0,0.0,0.0,0.0,0.0,0.0,0.0,0.0,0.0,0.0,0.0,0.0,0.0,0.0,0.0,0.0,0.0,0.0,0.0,0.0,0.0,0.0,0.0,0.0,0.0,0.0,0.0,0.0,0.0,0.0,0.0,0.0,0.0,0.0,0.0,0.0,0.0,0.0,0.0,0.0,0.0,0.0,0.0,0.0,0.0,0.0,0.0,0.0,0.0,0.0,0.0,0.0,0.0,0.0,0.0,0.0,0.0,0.0,0.0,0.0,0.0,0.0,0.0,0.0,0.0,0.0,0.0,0.0,0.0,0.0,0.0,0.0,1.643,1.651,1.657,0.0,1.6895,0.0,0.0,0.0,0.0,0.0,0.0,0.0,0.0,0.0,0.0,0.0,0.0,0.0,0.0,0.0,0.0,0.0,0.0,0.0,0.0,0.0,0.0,0.0,0.0,0.0,0.0,0.0,0.0,0.0,0.0,0.0,0.0,0.0,0.0,0.0,0.0,0.0,0.0,0.0,0.0,0.0,0.0,0.0,0.0,0.0,0.0,0.0,0.0,0.0,0.0,0.0,0.0,0.0,0.0,0.0,0.0,0.0,0.0,0.0,0.0,0.0,0.0,0.0,0.0,0.0,0.0,0.0,0.0,0.0,0.0,0.0,0.0,0.0,0.0,0.0,0.0,0.0,0.0,0.0,0.0,0.0,0.0,0.0,0.0,0.0,0.0,0.0,0.0,0.0,0.0,0.0,0.0,0.0,0.0,0.0,0.0,0.0,0.0,0.0,0.0,0.0,0.0,0.0,0.0,0.0,0.0,0.0,0.0,0.0,0.0,1.6409,1.6443,1.6642,1.6811,0.0,0.0,0.0,0.0,0.0,0.0,0.0,0.0,0.0,0.0,0.0,0.0,0.0,0.0,0.0,0.0,0.0,0.0,0.0,0.0,0.0,0.0,0.0,0.0,0.0,0.0,0.0,0.0,0.0,0.0,0.0,0.0,0.0,0.0,0.0,0.0,0.0,0.0,0.0,0.0,0.0,0.0,0.0,0.0,0.0,0.0,0.0,0.0,0.0,0.0,0.0,0.0,0.0,0.0,0.0,0.0,0.0,0.0,0.0,0.0,0.0,0.0,0.0,0.0,0.0,0.0,0.0,0.0,0.0,0.0,0.0,0.0,0.0,0.0,0.0,0.0,0.0,0.0,0.0,0.0,0.0,0.0,0.0,0.0,0.0,0.0,0.0,0.0,0.0,0.0,0.0,0.0,0.0,0.0,0.0,0.0,0.0,0.0,0.0,0.0,0.0,0.0,0.0,0.0,0.0,0.0,0.0,0.0,0.0,0.0,1.6576,1.6704,1.6776,1.7019,1.71,1.6908,0.0,0.0,0.0,0.0,0.0,0.0,0.0,0.0,0.0,0.0,0.0,0.0,0.0,0.0,0.0,0.0,0.0,0.0,0.0,0.0,0.0,0.0,0.0,0.0,0.0,0.0,0.0,0.0,0.0,0.0,0.0,0.0,0.0,0.0,0.0,0.0,0.0,0.0,0.0,0.0,0.0,0.0,0.0,0.0,0.0,0.0,0.0,0.0,0.0,0.0,0.0,0.0,0.0,0.0,0.0,0.0,0.0,0.0,0.0,0.0,0.0,0.0,0.0,0.0,0.0,0.0,0.0,0.0,0.0,0.0,0.0,0.0,0.0,0.0,0.0,0.0,0.0,0.0,0.0,0.0,0.0,0.0,0.0,0.0,0.0,0.0,0.0,0.0,0.0,0.0,0.0,0.0,0.0,0.0,0.0,0.0,0.0,0.0,0.0,0.0,0.0,0.0,0.0,0.0,0.0,0.0,0.0,0.0,1.6346,1.7058,1.75,1.7638,1.7777,1.754,0.0,0.0,0.0,0.0,0.0,0.0,0.0,0.0,0.0,0.0,0.0,0.0,0.0,0.0,0.0,0.0,0.0,0.0,0.0,0.0,0.0,0.0,0.0,0.0,0.0,0.0,0.0,0.0,0.0,0.0,0.0,0.0,0.0,0.0,0.0,0.0,0.0,0.0,0.0,0.0,0.0,0.0,0.0,0.0,0.0,0.0,0.0,0.0,0.0,0.0,0.0,0.0,0.0,0.0,0.0,0.0,0.0,0.0,0.0,0.0,0.0,0.0,0.0,0.0,0.0,0.0,0.0,0.0,0.0,0.0,0.0,0.0,0.0,0.0,0.0,0.0,0.0,0.0,0.0,0.0,0.0,0.0,0.0,0.0,0.0,0.0,0.0,0.0,0.0,0.0,0.0,0.0,0.0,0.0,0.0,0.0,0.0,0.0,0.0,0.0,0.0,0.0,0.0,0.0,0.0,0.0,0.0,0.0,0.0,1.7001,1.7751,1.8183,1.8307,1.807,1.7796,0.0,0.0,0.0,0.0,0.0,0.0,0.0,0.0,0.0,0.0,0.0,0.0,0.0,0.0,0.0,0.0,0.0,0.0,0.0,0.0,0.0,0.0,0.0,0.0,0.0,0.0,0.0,0.0,0.0,0.0,0.0,0.0,0.0,0.0,0.0,0.0,0.0,0.0,0.0,0.0,0.0,0.0,0.0,0.0,0.0,0.0,0.0,0.0,0.0,0.0,0.0,0.0,0.0,0.0,0.0,0.0,0.0,0.0,0.0,0.0,0.0,0.0,0.0,0.0,0.0,0.0,0.0,0.0,0.0,0.0,0.0,0.0,0.0,0.0,0.0,0.0,0.0,0.0,0.0,0.0,0.0,0.0,0.0,0.0,0.0,0.0,0.0,0.0,0.0,0.0,0.0,0.0,0.0,0.0,0.0,0.0,0.0,0.0,0.0,0.0,0.0,0.0,0.0,0.0,0.0,0.0,0.0,0.0,0.0,1.8072,1.8554,1.8881,1.8979,1.8469,1.8122,0.0,0.0,0.0,0.0,0.0,0.0,0.0,0.0,0.0,0.0,0.0,0.0,0.0,0.0,0.0,0.0,0.0,0.0,0.0,0.0,0.0,0.0,0.0,0.0,0.0,0.0,0.0,0.0,0.0,0.0,0.0,0.0,0.0,0.0,0.0,0.0,0.0,0.0,0.0,0.0,0.0,0.0,0.0,0.0,0.0,0.0,0.0,0.0,0.0,0.0,0.0,0.0,0.0,0.0,0.0,0.0,0.0,0.0,0.0,0.0,0.0,0.0,0.0,0.0,0.0,0.0,0.0,0.0,0.0,0.0,0.0,0.0,0.0,0.0,0.0,0.0,0.0,0.0,0.0,0.0,0.0,0.0,0.0,0.0,0.0,0.0,0.0,0.0,0.0,0.0,0.0,0.0,0.0,0.0,0.0,0.0,0.0,0.0,0.0,0.0,0.0,0.0,0.0,0.0,0.0,0.0,0.0,0.0,1.8238,1.9443,1.9521,1.9632,1.9625,1.9202,1.8612,0.0,0.0,0.0,0.0,0.0,0.0,0.0,0.0,0.0,0.0,0.0,0.0,0.0,0.0,0.0,0.0,0.0,0.0,0.0,0.0,0.0,0.0,0.0,0.0,0.0,0.0,0.0,0.0,0.0,0.0,0.0,0.0,0.0,0.0,0.0,0.0,0.0,0.0,0.0,0.0,0.0,0.0,0.0,0.0,0.0,0.0,0.0,0.0,0.0,0.0,0.0,0.0,0.0,0.0,0.0,0.0,0.0,0.0,0.0,0.0,0.0,0.0,0.0,0.0,0.0,0.0,0.0,0.0,0.0,0.0,0.0,0.0,0.0,0.0,0.0,0.0,0.0,0.0,0.0,0.0,0.0,0.0,0.0,0.0,0.0,0.0,0.0,0.0,0.0,0.0,0.0,0.0,0.0,0.0,0.0,0.0,0.0,0.0,0.0,0.0,0.0,0.0,0.0,0.0,0.0,0.0,0.0,0.0,0.0,2.025,2.1068,2.1593,2.1689,2.073,1.9925,0.0,0.0,0.0,0.0,0.0,0.0,0.0,0.0,0.0,0.0,0.0,0.0,0.0,0.0,0.0,0.0,0.0,0.0,0.0,0.0,0.0,0.0,0.0,0.0,0.0,0.0,0.0,0.0,0.0,0.0,0.0,0.0,0.0,0.0,0.0,0.0,0.0,0.0,0.0,0.0,0.0,0.0,0.0,0.0,0.0,0.0,0.0,0.0,0.0,0.0,0.0,0.0,0.0,0.0,0.0,0.0,0.0,0.0,0.0,0.0,0.0,0.0,0.0,0.0,0.0,0.0,0.0,0.0,0.0,0.0,0.0,0.0,0.0,0.0,0.0,0.0,0.0,0.0,0.0,0.0,0.0,0.0,0.0,0.0,0.0,0.0,0.0,0.0,0.0,0.0,0.0,0.0,0.0,0.0,0.0,0.0,0.0,0.0,0.0,0.0,0.0,0.0,0.0,0.0,0.0,0.0,0.0,0.0,0.0,2.1974,2.2477,2.2835,2.2948,2.1801,2.0906,2.0321,0.0,0.0,0.0,0.0,0.0,0.0,0.0,0.0,0.0,0.0,0.0,0.0,0.0,0.0,0.0,0.0,0.0,0.0,0.0,0.0,0.0,0.0,0.0,0.0,0.0,0.0,0.0,0.0,0.0,0.0,0.0,0.0,0.0,0.0,0.0,0.0,0.0,0.0,0.0,0.0,0.0,0.0,0.0,0.0,0.0,0.0,0.0,0.0,0.0,0.0,0.0,0.0,0.0,0.0,0.0,0.0,0.0,0.0,0.0,0.0,0.0,0.0,0.0,0.0,0.0,0.0,0.0,0.0,0.0,0.0,0.0,0.0,0.0,0.0,0.0,0.0,0.0,0.0,0.0,0.0,0.0,0.0,0.0,0.0,0.0,0.0,0.0,0.0,0.0,0.0,0.0,0.0,0.0,0.0,0.0,0.0,0.0,0.0,0.0,0.0,0.0,0.0,0.0,0.0,0.0,0.0,0.0,0.0,2.4511,2.4009,2.3709,2.3585,2.2557,2.1636,0.0,0.0,0.0,0.0,0.0,0.0,0.0,0.0,0.0,0.0,0.0,0.0,0.0,0.0,0.0,0.0,0.0,0.0,0.0,0.0,0.0,0.0,0.0,0.0,0.0,0.0,0.0,0.0,0.0,0.0,0.0,0.0,0.0,0.0,0.0,0.0,0.0,0.0,0.0,0.0,0.0,0.0,0.0,0.0,0.0,0.0,0.0,0.0,0.0,0.0,0.0,0.0,0.0,0.0,0.0,0.0,0.0,0.0,0.0,0.0,0.0,0.0,0.0,0.0,0.0,0.0,0.0,0.0,0.0,0.0,0.0,0.0,0.0,0.0,0.0,0.0,0.0,0.0,0.0,0.0,0.0,0.0,0.0,0.0,0.0,0.0,0.0,0.0,0.0,0.0,0.0,0.0,0.0,0.0,0.0,0.0,0.0,0.0,0.0,0.0,0.0,0.0,0.0,0.0,0.0,0.0,0.0,0.0,0.0,2.7207,2.7529,2.6988,2.5601,2.4461,2.3415,0.0,0.0,0.0,0.0,0.0,0.0,0.0,0.0,0.0,0.0,0.0,0.0,0.0,0.0,0.0,0.0,0.0,0.0,0.0,0.0,0.0,0.0,0.0,0.0,0.0,0.0,0.0,0.0,0.0,0.0,0.0,0.0,0.0,0.0,0.0,0.0,0.0,0.0,0.0,0.0,0.0,0.0,0.0,0.0,0.0,0.0,0.0,0.0,0.0,0.0,0.0,0.0,0.0,0.0,0.0,0.0,0.0,0.0,0.0,0.0,0.0,0.0,0.0,0.0,0.0,0.0,0.0,0.0,0.0,0.0,0.0,0.0,0.0,0.0,0.0,0.0,0.0,0.0,0.0,0.0,0.0,0.0,0.0,0.0,0.0,0.0,0.0,0.0,0.0,0.0,0.0,0.0,0.0,0.0,0.0,0.0,0.0,0.0,0.0,0.0,0.0,0.0,0.0,0.0,0.0,0.0,0.0,0.0,2.6787,2.851,2.9192,2.9144,2.8296,2.6674,2.5175,0.0,0.0,0.0,0.0,0.0,0.0,0.0,0.0,0.0,0.0,0.0,0.0,0.0,0.0,0.0,0.0,0.0,0.0,0.0,0.0,0.0,0.0,0.0,0.0,0.0,0.0,0.0,0.0,0.0,0.0,0.0,0.0,0.0,0.0,0.0,0.0,0.0,0.0,0.0,0.0,0.0,0.0,0.0,0.0,0.0,0.0,0.0,0.0,0.0,0.0,0.0,0.0,0.0,0.0,0.0,0.0,0.0,0.0,0.0,0.0,0.0,0.0,0.0,0.0,0.0,0.0,0.0,0.0,0.0,0.0,0.0,0.0,0.0,0.0,0.0,0.0,0.0,0.0,0.0,0.0,0.0,0.0,0.0,0.0,0.0,0.0,0.0,0.0,0.0,0.0,0.0,0.0,0.0,0.0,0.0,0.0,0.0,0.0,0.0,0.0,0.0,0.0,0.0,0.0,0.0,0.0,0.0,0.0,2.7597,2.9208,2.9983,3.0617,3.1008,2.8842,2.6814,0.0,0.0,0.0,0.0,0.0,0.0,0.0,0.0,0.0,0.0,0.0,0.0,0.0,0.0,0.0,0.0,0.0,0.0,0.0,0.0,0.0,0.0,0.0,0.0,0.0,0.0,0.0,0.0,0.0,0.0,0.0,0.0,0.0,0.0,0.0,0.0,0.0,0.0,0.0,0.0,0.0,0.0,0.0,0.0,0.0,0.0,0.0,0.0,0.0,0.0,0.0,0.0,0.0,0.0,0.0,0.0,0.0,0.0,0.0,0.0,0.0,0.0,0.0,0.0,0.0,0.0,0.0,0.0,0.0,0.0,0.0,0.0,0.0,0.0,0.0,0.0,0.0,0.0,0.0,0.0,0.0,0.0,0.0,0.0,0.0,0.0,0.0,0.0,0.0,0.0,0.0,0.0,0.0,0.0,0.0,0.0,0.0,0.0,0.0,0.0,0.0,0.0,0.0,0.0,0.0,0.0,0.0,0.0,3.0181,3.1312,3.2353,3.2564,3.1784,2.9505,2.7736,0.0,0.0,0.0,0.0,0.0,0.0,0.0,0.0,0.0,0.0,0.0,0.0,0.0,0.0,0.0,0.0,0.0,0.0,0.0,0.0,0.0,0.0,0.0,0.0,0.0,0.0,0.0,0.0,0.0,0.0,0.0,0.0,0.0,0.0,0.0,0.0,0.0,0.0,0.0,0.0,0.0,0.0,0.0,0.0,0.0,0.0,0.0,0.0,1.7206,0.0,0.0,0.0,0.0,0.0,0.0,0.0,0.0,0.0,0.0,0.0,0.0,0.0,0.0,0.0,0.0,0.0,0.0,0.0,0.0,0.0,0.0,0.0,0.0,0.0,0.0,0.0,0.0,0.0,0.0,0.0,0.0,0.0,0.0,0.0,0.0,0.0,0.0,0.0,0.0,0.0,0.0,0.0,0.0,0.0,0.0,0.0,0.0,0.0,0.0,0.0,0.0,0.0,0.0,0.0,0.0,0.0,0.0,0.0,3.1133,3.2407,3.3365,3.3546,3.2846,3.1006,2.9147,0.0,0.0,0.0,0.0,0.0,0.0,0.0,0.0,0.0,0.0,0.0,0.0,0.0,0.0,0.0,0.0,0.0,0.0,0.0,0.0,0.0,0.0,0.0,0.0,0.0,0.0,0.0,0.0,0.0,0.0,0.0,0.0,0.0,0.0,0.0,0.0,0.0,0.0,0.0,0.0,0.0,0.0,0.0,0.0,0.0,0.0,0.0,0.0,0.0,0.0,0.0,0.0,0.0,0.0,0.0,0.0,0.0,0.0,0.0,0.0,0.0,0.0,0.0,0.0,0.0,0.0,0.0,0.0,0.0,0.0,0.0,0.0,0.0,0.0,0.0,0.0,0.0,0.0,0.0,0.0,0.0,0.0,0.0,0.0,0.0,0.0,0.0,0.0,0.0,0.0,0.0,0.0,0.0,0.0,0.0,0.0,0.0,0.0,0.0,0.0,0.0,0.0,0.0,0.0,0.0,0.0,0.0,2.954,3.1668,3.3332,3.4,3.4304,3.4273,3.2768,3.079,2.8406,0.0,0.0,0.0,0.0,0.0,0.0,0.0,0.0,0.0,0.0,0.0,0.0,0.0,0.0,0.0,0.0,0.0,0.0,0.0,0.0,0.0,0.0,0.0,0.0,0.0,0.0,0.0,0.0,0.0,0.0,0.0,0.0,0.0,0.0,0.0,0.0,0.0,0.0,1.6488,1.8134,0.0,0.0,0.0,0.0,0.0,0.0,0.0,0.0,1.9769,0.0,0.0,0.0,0.0,0.0,0.0,0.0,0.0,0.0,0.0,0.0,0.0,0.0,0.0,0.0,0.0,0.0,0.0,0.0,0.0,0.0,0.0,0.0,0.0,0.0,0.0,0.0,0.0,0.0,0.0,0.0,0.0,0.0,0.0,0.0,0.0,0.0,0.0,0.0,0.0,0.0,0.0,0.0,0.0,0.0,0.0,0.0,0.0,0.0,0.0,0.0,0.0,0.0,0.0,0.0,0.0,2.9171,3.122,3.3351,3.5599,3.5673,3.5796,3.6014,3.4255,3.2217,2.9963,0.0,0.0,0.0,0.0,0.0,0.0,0.0,0.0,0.0,0.0,0.0,0.0,0.0,0.0,0.0,0.0,0.0,0.0,0.0,0.0,0.0,0.0,0.0,0.0,0.0,0.0,0.0,0.0,0.0,0.0,0.0,0.0,0.0,0.0,0.0,0.0,0.0,0.0,0.0,1.9391,2.0146,0.0,0.0,0.0,0.0,0.0,0.0,0.0,0.0,2.0243,0.0,0.0,0.0,0.0,0.0,0.0,0.0,0.0,0.0,0.0,0.0,0.0,0.0,0.0,0.0,0.0,0.0,0.0,0.0,0.0,0.0,0.0,0.0,0.0,0.0,0.0,0.0,0.0,0.0,0.0,0.0,0.0,0.0,0.0,0.0,0.0,0.0,0.0,0.0,0.0,0.0,0.0,0.0,0.0,0.0,0.0,0.0,0.0,0.0,0.0,0.0,0.0,0.0,0.0,0.0,2.9816,3.2471,3.4636,3.6306,3.7058,3.7137,3.6492,3.5198,3.319,0.0,0.0,0.0,0.0,0.0,0.0,0.0,0.0,0.0,0.0,0.0,0.0,0.0,0.0,0.0,0.0,0.0,0.0,0.0,0.0,0.0,0.0,0.0,0.0,0.0,0.0,0.0,0.0,0.0,0.0,0.0,0.0,0.0,0.0,0.0,0.0,0.0,0.0,0.0,0.0,2.0513,2.1663,2.1964,0.0,0.0,0.0,0.0,0.0,0.0,2.2225,2.1674,0.0,0.0,0.0,0.0,0.0,0.0,0.0,0.0,0.0,0.0,0.0,0.0,0.0,0.0,0.0,0.0,0.0,0.0,0.0,0.0,0.0,0.0,0.0,0.0,0.0,0.0,0.0,0.0,0.0,0.0,0.0,0.0,0.0,0.0,0.0,0.0,0.0,0.0,0.0,0.0,0.0,0.0,0.0,0.0,0.0,0.0,0.0,0.0,0.0,0.0,0.0,0.0,0.0,0.0,0.0,3.0244,3.3324,3.5633,3.6971,3.8211,3.8274,3.7079,3.6038,3.3968,0.0,0.0,0.0,0.0,0.0,0.0,0.0,0.0,0.0,0.0,0.0,0.0,0.0,0.0,0.0,0.0,0.0,0.0,0.0,0.0,0.0,0.0,0.0,0.0,0.0,0.0,0.0,0.0,0.0,0.0,0.0,0.0,0.0,0.0,0.0,0.0,0.0,0.0,0.0,0.0,0.0,2.3044,2.3421,2.4348,0.0,0.0,0.0,0.0,2.4542,2.3932,0.0,0.0,0.0,0.0,0.0,0.0,0.0,0.0,0.0,0.0,0.0,0.0,0.0,0.0,0.0,0.0,0.0,0.0,0.0,0.0,0.0,0.0,0.0,0.0,0.0,0.0,0.0,0.0,0.0,0.0,0.0,0.0,0.0,0.0,0.0,0.0,0.0,0.0,0.0,0.0,0.0,0.0,0.0,0.0,0.0,0.0,0.0,0.0,0.0,0.0,0.0,0.0,0.0,0.0,0.0,0.0,3.0922,3.3661,3.6261,3.8574,3.8949,3.9013,3.8936,3.722,3.4718,0.0,0.0,0.0,0.0,0.0,0.0,0.0,0.0,0.0,0.0,0.0,0.0,0.0,0.0,0.0,0.0,0.0,0.0,0.0,0.0,0.0,0.0,0.0,0.0,0.0,0.0,0.0,0.0,0.0,0.0,0.0,0.0,0.0,0.0,0.0,0.0,0.0,0.0,0.0,0.0,0.0,2.3519,2.5239,2.5575,2.5907,0.0,0.0,2.6575,2.6487,2.5995,0.0,0.0,0.0,0.0,0.0,0.0,0.0,0.0,0.0,0.0,0.0,0.0,0.0,0.0,0.0,0.0,0.0,0.0,0.0,0.0,0.0,0.0,0.0,0.0,0.0,0.0,0.0,0.0,0.0,0.0,0.0,0.0,0.0,0.0,0.0,0.0,0.0,0.0,0.0,0.0,0.0,0.0,0.0,0.0,0.0,0.0,0.0,0.0,0.0,0.0,0.0,0.0,0.0,0.0,0.0,2.8582,3.181,3.4851,3.7303,3.9108,3.9922,4.0019,3.9409,3.8011,3.5669,0.0,0.0,0.0,0.0,0.0,0.0,0.0,0.0,0.0,0.0,0.0,0.0,0.0,0.0,0.0,0.0,0.0,0.0,0.0,0.0,0.0,0.0,0.0,0.0,0.0,0.0,0.0,0.0,0.0,0.0,0.0,0.0,0.0,0.0,0.0,0.0,0.0,0.0,0.0,0.0,0.0,0.0,2.6197,2.7287,0.0,0.0,0.0,2.898,2.8726,0.0,0.0,0.0,0.0,0.0,0.0,0.0,0.0,0.0,0.0,0.0,0.0,0.0,0.0,0.0,0.0,0.0,0.0,0.0,0.0,0.0,0.0,0.0,0.0,0.0,0.0,0.0,0.0,0.0,0.0,0.0,0.0,0.0,0.0,0.0,0.0,0.0,0.0,0.0,0.0,0.0,0.0,0.0,0.0,0.0,0.0,0.0,0.0,0.0,0.0,0.0,0.0,0.0,0.0,0.0,0.0,0.0,3.2768,3.5873,3.8208,3.9661,4.0841,4.0938,3.985,3.876,0.0,0.0,0.0,0.0,0.0,0.0,0.0,0.0,0.0,0.0,0.0,0.0,0.0,0.0,0.0,0.0,0.0,0.0,0.0,0.0,0.0,0.0,0.0,0.0,0.0,0.0,0.0,1.3855,0.0,0.0,0.0,0.0,0.0,0.0,0.0,0.0,0.0,0.0,0.0,0.0,0.0,0.0,2.675,2.7742,2.9215,3.0324,0.0,0.0,3.1234,3.0881,3.0214,2.9322,0.0,0.0,0.0,0.0,0.0,0.0,0.0,0.0,0.0,0.0,0.0,0.0,0.0,0.0,0.0,0.0,0.0,0.0,0.0,0.0,0.0,0.0,0.0,0.0,0.0,0.0,0.0,0.0,0.0,0.0,0.0,0.0,0.0,0.0,0.0,0.0,0.0,0.0,0.0,0.0,0.0,0.0,0.0,0.0,0.0,0.0,0.0,0.0,0.0,0.0,0.0,0.0,0.0,0.0,3.027,3.3732,3.6366,3.8672,4.0642,4.1468,4.15,4.0722,3.9676,3.7444,0.0,0.0,0.0,0.0,0.0,0.0,0.0,0.0,0.0,0.0,0.0,0.0,0.0,0.0,0.0,0.0,0.0,0.0,0.0,0.0,0.0,0.0,0.0,0.0,0.0,0.0,0.0,0.0,0.0,0.0,0.0,0.0,0.0,0.0,0.0,0.0,0.0,0.0,0.0,0.0,0.0,2.8698,3.0572,3.1456,3.212,0.0,3.2843,3.2843,3.28,3.199,3.0897,2.9554,0.0,0.0,0.0,0.0,0.0,0.0,0.0,0.0,0.0,0.0,0.0,0.0,0.0,0.0,0.0,0.0,0.0,0.0,0.0,0.0,0.0,0.0,0.0,0.0,0.0,0.0,0.0,0.0,0.0,0.0,0.0,0.0,0.0,0.0,0.0,0.0,0.0,0.0,0.0,0.0,0.0,0.0,0.0,0.0,0.0,0.0,0.0,0.0,0.0,0.0,0.0,0.0,0.0,3.1103,3.4562,3.7712,4.0077,4.1614,4.278,4.2861,4.1805,4.055,3.8466,0.0,0.0,0.0,0.0,0.0,0.0,0.0,0.0,0.0,0.0,0.0,0.0,0.0,0.0,0.0,0.0,0.0,0.0,0.0,0.0,0.0,0.0,0.0,0.0,0.0,0.0,0.0,0.0,1.7453,1.784,1.8231,0.0,0.0,0.0,0.0,0.0,0.0,0.0,0.0,0.0,0.0,2.9774,3.094,3.2804,0.0,0.0,3.4678,3.5029,3.4343,3.3924,3.3093,3.1439,3.0578,0.0,0.0,0.0,0.0,0.0,0.0,0.0,0.0,0.0,0.0,0.0,0.0,0.0,0.0,0.0,0.0,0.0,0.0,0.0,0.0,0.0,0.0,0.0,0.0,0.0,0.0,0.0,0.0,0.0,0.0,0.0,0.0,0.0,0.0,0.0,0.0,0.0,0.0,0.0,0.0,0.0,0.0,0.0,0.0,0.0,0.0,0.0,0.0,0.0,0.0,0.0,0.0,3.2207,3.5677,3.8742,4.1016,4.2558,4.3762,4.394,4.3041,4.1704,3.9812,0.0,0.0,0.0,0.0,0.0,0.0,0.0,0.0,0.0,0.0,0.0,0.0,0.0,0.0,0.0,0.0,0.0,0.0,0.0,0.0,0.0,0.0,0.0,0.0,0.0,0.0,0.0,0.0,1.9123,1.9296,1.8773,0.0,0.0,0.0,0.0,0.0,0.0,0.0,0.0,0.0,0.0,3.1573,3.2437,3.4574,3.596,3.5607,3.6462,3.6821,3.5809,3.5568,3.4911,3.3206,0.0,0.0,0.0,0.0,0.0,0.0,0.0,0.0,0.0,0.0,0.0,0.0,0.0,0.0,0.0,0.0,0.0,0.0,0.0,0.0,0.0,0.0,0.0,0.0,0.0,0.0,0.0,2.168,0.0,0.0,2.0486,0.0,0.0,0.0,0.0,0.0,0.0,0.0,0.0,0.0,0.0,0.0,0.0,0.0,0.0,0.0,0.0,0.0,0.0,0.0,0.0,0.0,0.0,3.3732,3.7228,3.9316,4.1367,4.3427,4.4168,4.4522,4.4425,4.3218,4.1566,3.9441,0.0,0.0,0.0,0.0,0.0,0.0,0.0,0.0,0.0,0.0,0.0,0.0,0.0,0.0,0.0,0.0,0.0,0.0,0.0,0.0,0.0,0.0,0.0,0.0,0.0,0.0,2.0661,2.1227,2.1007,0.0,0.0,0.0,0.0,0.0,0.0,0.0,0.0,0.0,2.9594,3.2223,3.4395,3.5685,3.7052,3.7919,3.7889,3.81,3.8016,3.7282,3.6877,3.6212,0.0,0.0,0.0,0.0,0.0,0.0,0.0,0.0,0.0,0.0,0.0,0.0,0.0,0.0,0.0,0.0,0.0,0.0,0.0,0.0,0.0,0.0,0.0,0.0,0.0,0.0,0.0,2.4704,2.4679,0.0,0.0,0.0,0.0,0.0,0.0,0.0,0.0,0.0,0.0,0.0,3.2911,3.3416,0.0,0.0,0.0,0.0,0.0,0.0,0.0,0.0,0.0,0.0,0.0,0.0,3.5623,3.8653,4.1229,4.338,4.4996,4.5739,4.5868,4.5384,4.4528,4.2391,3.8861,0.0,0.0,0.0,0.0,0.0,0.0,0.0,0.0,0.0,0.0,0.0,0.0,0.0,0.0,0.0,0.0,0.0,0.0,0.0,0.0,0.0,0.0,0.0,0.0,0.0,2.1753,0.0,0.0,0.0,0.0,0.0,0.0,0.0,0.0,0.0,0.0,2.8204,3.0326,3.2558,3.4422,3.5921,3.692,3.826,3.9064,0.0,0.0,0.0,0.0,0.0,0.0,0.0,0.0,0.0,0.0,0.0,0.0,0.0,0.0,3.1733,2.9413,2.8859,2.8929,2.9581,0.0,0.0,0.0,0.0,0.0,0.0,0.0,0.0,0.0,0.0,0.0,0.0,0.0,0.0,2.8446,2.8357,2.742,0.0,0.0,0.0,0.0,0.0,0.0,0.0,0.0,3.4079,3.5412,3.652,3.7078,3.707,3.6548,3.6515,3.4593,0.0,0.0,0.0,0.0,0.0,0.0,0.0,0.0,3.7579,4.0156,4.2974,4.5014,4.6147,4.7119,4.741,4.6925,4.5759,4.3395,3.9638,3.6983,3.43,0.0,0.0,0.0,0.0,0.0,0.0,0.0,0.0,0.0,0.0,0.0,0.0,0.0,0.0,0.0,0.0,0.0,0.0,0.0,0.0,0.0,0.0,0.0,2.3933,0.0,0.0,0.0,0.0,0.0,0.0,0.0,0.0,0.0,2.9528,3.1058,3.3003,3.5334,3.677,3.799,3.9031,0.0,0.0,0.0,0.0,0.0,0.0,0.0,4.0307,3.9739,3.966,3.9375,3.8578,3.8259,3.813,3.8128,0.0,0.0,3.3836,3.3144,3.3412,3.4022,3.4006,3.4215,3.5322,3.5753,3.6446,0.0,0.0,0.0,0.0,3.2807,0.0,0.0,0.0,3.2917,3.2906,0.0,3.1427,0.0,0.0,0.0,0.0,3.0963,3.3723,0.0,0.0,3.8276,3.9558,4.0146,4.0704,4.0868,4.0672,4.0657,3.9897,3.8357,3.4626,0.0,0.0,0.0,0.0,0.0,0.0,3.9541,4.1774,4.4431,4.618,4.6974,4.8267,4.8979,4.8915,4.6957,4.4545,4.1839,3.9638,3.7177,3.4327,3.1602,0.0,0.0,0.0,0.0,0.0,0.0,0.0,0.0,0.0,0.0,0.0,0.0,0.0,0.0,0.0,0.0,0.0,0.0,0.0,0.0,2.5443,0.0,0.0,0.0,0.0,0.0,0.0,0.0,0.0,0.0,3.3546,3.2599,3.3459,3.518,3.7888,0.0,0.0,0.0,0.0,4.3331,4.3445,4.3668,4.3605,4.3173,4.3195,4.3054,4.243,0.0,0.0,4.235,4.2911,4.3214,4.3046,4.3538,4.2738,3.8464,3.8073,3.856,3.9076,3.9154,3.9466,4.0153,4.0714,4.1452,4.0315,0.0,0.0,0.0,0.0,3.6394,3.6916,3.7426,3.7392,3.7426,3.7359,3.6406,0.0,0.0,0.0,0.0,0.0,0.0,3.9269,4.1413,4.196,4.3092,4.471,4.4623,4.4561,4.4496,4.4334,4.3832,4.2957,4.1772,3.9174,3.526,0.0,0.0,0.0,0.0,4.1953,4.4496,4.5888,4.7184,4.8364,4.8785,4.9012,4.9012,4.7443,4.597,4.4625,4.2083,3.9588,3.7242,3.445,0.0,0.0,0.0,0.0,0.0,0.0,0.0,0.0,0.0,0.0,0.0,0.0,0.0,0.0,0.0,0.0,0.0,0.0,0.0,2.7849,2.8595,2.8919,0.0,0.0,0.0,0.0,0.0,0.0,0.0,0.0,0.0,3.9795,3.882,3.884,0.0,0.0,4.3122,4.4247,4.5031,4.5494,4.5547,4.5599,0.0,4.5434,4.5455,4.5408,4.5233,4.5201,4.5252,4.5372,4.5464,4.5664,4.6056,4.657,4.6648,4.5728,4.3549,4.2394,4.2796,4.2848,4.3153,4.4247,4.4703,4.5227,4.5119,4.1957,4.0335,3.9852,4.015,4.058,4.1177,4.1887,4.1887,4.1887,4.182,4.1077,4.0561,4.0117,4.0117,0.0,0.0,0.0,4.3396,4.5368,4.5853,4.6896,4.8347,4.8473,4.8417,4.8348,4.8157,4.7712,4.7013,4.6944,4.4885,4.1048,0.0,4.0707,4.1597,4.299,4.4674,4.6633,4.7687,4.8576,4.94,4.9724,4.9724,4.9432,4.868,4.7695,4.6396,4.4529,4.2395,3.9971,3.7414,3.4753,0.0,0.0,0.0,0.0,0.0,0.0,0.0,0.0,0.0,0.0,0.0,1.9722,2.1106,0.0,0.0,0.0,2.7016,2.9178,3.176,3.1987,0.0,0.0,0.0,0.0,0.0,0.0,0.0,3.8391,3.9991,4.1994,4.4631,4.4012,4.3606,4.4444,4.4953,4.5677,4.6813,0.0,4.775,4.8111,4.8194,4.8212,4.8303,4.8303,4.8303,4.8303,4.8303,4.8339,4.8447,4.8601,4.8813,4.9152,4.9699,5.0192,5.0341,4.8815,4.727,4.6767,4.6542,4.6862,4.7949,4.8357,4.895,4.9028,4.81,4.5434,4.454,4.4968,4.5101,4.5532,4.6146,4.6294,4.6278,4.6194,4.5532,4.52,4.5134,4.5134,0.0,4.53,4.6658,4.7669,4.8465,4.9839,5.0763,5.1283,5.1924,5.2163,5.1966,5.1796,5.1359,5.0688,5.0473,4.9714,4.8353,4.6458,4.5371,4.516,4.6374,4.7443,4.8235,4.958,5.0293,5.0357,5.0959,5.0959,5.033,5.0365,4.9497,4.7559,4.6846,4.5225,4.2571,4.0352,3.7912,3.514,0.0,0.0,0.0,0.0,0.0,0.0,0.0,0.0,0.0,0.0,0.0,0.0,0.0,0.0,2.818,3.0864,0.0,3.5344,3.5571,0.0,0.0,0.0,3.7339,3.8667,3.8991,4.0077,4.2716,0.0,0.0,4.7713,4.8711,4.885,4.8075,4.7864,4.8231,4.9544,4.9756,5.0101,5.0902,5.1114,5.1236,5.1305,5.144,5.1504,5.1504,5.1542,5.1523,5.1556,5.1944,5.2301,5.2268,5.2795,5.3218,5.3038,5.3405,5.3271,5.0873,5.035,5.0509,5.1245,5.1846,5.2457,5.1976,5.1298,5.0602,4.9127,4.7305,4.8431,4.8978,4.926,5.037,5.0502,4.9989,4.9823,4.9409,4.8895,4.8895,4.9177,4.974,5.0105,5.0916,5.2091,5.2488,5.3,5.3658,5.3676,5.3667,5.3611,5.3437,5.3245,5.3081,5.3024,5.2548,5.1782,5.1717,5.0214,4.7396,4.8073,4.9159,5.0441,5.1264,5.1977,5.2508,5.2305,5.2089,5.1945,5.1088,5.0397,4.9841,4.8141,4.6667,4.5389,4.2783,4.0315,3.8104,3.5778,0.0,0.0,0.0,0.0,0.0,0.0,0.0,0.0,0.0,2.5772,2.7706,0.0,3.0,0.0,3.5202,3.7307,3.8389,3.8954,0.0,0.0,4.0789,4.1469,4.2343,4.3881,4.5387,4.6584,4.7831,4.9238,5.0916,5.1771,5.2366,5.265,5.1682,5.1063,5.1533,5.2049,5.2456,5.2754,5.3226,5.3569,5.3641,5.4082,5.4373,5.4405,5.4405,5.4405,5.4405,5.4535,5.4746,5.5111,5.5274,5.5534,5.5772,5.605,5.5965,5.5315,5.4399,5.3857,5.458,5.4836,5.5187,5.3699,5.3334,5.3334,5.2572,5.1395,5.1561,5.1826,5.219,5.3003,5.3102,5.2705,5.2705,5.2506,5.2142,5.2458,5.2804,5.3202,5.3551,5.4313,5.5355,5.5355,5.5733,5.6448,5.6332,5.6294,5.6274,5.608,5.5982,5.5982,5.5883,5.5516,5.4828,5.486,5.3632,5.1238,5.1155,5.1559,5.2392,5.2783,5.3154,5.3545,5.325,5.3,5.2674,5.2167,5.1607,5.0948,4.9882,4.8646,4.7292,4.5313,4.3122,4.0706,3.8837,3.7039,0.0,0.0,0.0,0.0,0.0,0.0,0.0,0.0,0.0,0.0,0.0,3.4877,3.7649,3.9332,4.0836,4.218,4.2618,4.3265,4.4334,4.4787,4.5418,4.6422,4.7605,4.8835,5.0209,5.1051,5.2152,5.3855,5.447,5.5021,5.5721,5.5037,5.4402,5.4191,5.447,5.4826,5.5183,5.5571,5.5819,5.5798,5.6122,5.6381,5.6381,5.6381,5.6381,5.6381,5.6381,5.6469,5.6752,5.6828,5.6882,5.7174,5.7474,5.7645,5.7645,5.7571,5.7206,5.6499,5.6584,5.7022,5.5113,5.5132,5.5165,5.5492,5.597,5.4678,5.4446,5.4939,5.5038,5.5071,5.5071,5.5071,5.5071,5.5104,5.5733,5.6012,5.6065,5.668,5.7329,5.7906,5.7959,5.827,5.8899,5.8899,5.8899,5.8899,5.8718,5.8637,5.8617,5.8466,5.8056,5.7399,5.6776,5.6152,5.5496,5.4853,5.444,5.4186,5.4186,5.4186,5.4186,5.4107,5.3784,5.3283,5.3453,5.294,5.1633,5.1622,5.0793,4.8859,4.7782,4.5978,4.326,4.182,4.0395,0.0,3.6936,0.0,0.0,0.0,0.0,0.0,0.0,0.0,0.0,3.7764,4.0401,4.2926,4.3298,4.4221,4.618,4.6439,4.7054,4.8382,4.8641,4.9206,5.0455,5.0811,5.1653,5.3511,5.3803,5.458,5.6284,5.6705,5.7029,5.7514,5.7676,5.745,5.6996,5.6672,5.6758,5.7535,5.7665,5.76,5.7762,5.7859,5.7859,5.7892,5.7859,5.7859,5.7859,5.7892,5.7859,5.7871,5.8,5.8065,5.7989,5.8594,5.9025,5.9101,5.9931,5.9972,5.8213,5.8071,5.8671,5.8532,5.8566,5.8566,5.8516,5.8493,5.8227,5.7764,5.721,5.7806,5.8071,5.8071,5.8071,5.8071,5.8071,5.8204,5.8303,5.827,5.8403,5.8568,5.8701,5.8701,5.8767,5.8899,5.8899,5.8899,5.8899,5.8859,5.8839,5.8839,5.8799,5.8713,5.86,5.8415,5.8303,5.8171,0.0,0.0,0.0,5.5713,5.566,5.568,5.5245,5.5056,5.5095,5.4723,0.0,5.3501,5.2934,5.2182,5.1162,4.9726,0.0,0.0,0.0,0.0,0.0,0.0,0.0,0.0,0.0,0.0,0.0,4.2026,4.1502,4.0543,4.2842,4.4885,4.5986,4.7134,4.8202,4.9174,4.9807,5.0506,5.1297,5.1925,5.2637,5.3499,5.4567,5.5474,5.583,5.6434,5.692,5.7341,5.7871,5.8238,5.84,5.8918,5.9209,5.9047,5.8065,5.7471,5.7633,5.8097,5.8626,5.9231,5.9263,5.9166,5.9295,5.9328,5.9263,5.9231,5.9231,5.9295,5.9295,5.9781,6.0105,6.017,6.0753,6.1077,6.1174,6.14,6.1313,6.0285,6.0586,6.1126,5.9519,5.9519,5.9519,5.9661,0.0,5.991,5.9818,5.9665,5.9166,5.8899,5.8899,5.8899,5.8899,5.8899,5.9297,5.9429,5.9463,5.9827,5.9993,5.9993,5.9993,5.9993,5.9993,5.9993,5.9993,5.9993,5.9993,5.9993,5.9993,5.9993,5.9993,5.9993,5.9628,5.9429,5.9429,5.9065,5.8237,5.6949,5.6949,5.6784,5.6421,5.6123,5.5856,5.562,5.5536,0.0,0.0,0.0,0.0,0.0,0.0,0.0,0.0,4.7685,0.0,4.5335,4.4872,4.4688,4.464,4.464,4.5207,4.6501,4.7699,4.7477,4.5503,4.6927,4.8382,4.9418,5.0163,5.1038,5.2106,5.256,5.3175,5.4179,5.4665,5.5183,5.5895,5.6596,5.7158,5.7514,5.7871,5.8227,5.8583,5.8885,5.9112,5.9144,5.9468,5.9694,5.963,5.9101,5.8648,5.8615,5.8853,5.9274,5.9597,5.9694,5.9694,5.9694,5.9694,5.9694,5.9694,5.9694,5.9814,6.017,6.0558,6.0882,6.1239,6.1595,6.1834,6.2013,6.2295,6.2471,6.2171,6.2093,6.2133,6.0121,6.0121,6.0121,6.0452,6.0984,6.0944,6.122,6.1622,6.0017,0.0,0.0,5.9317,5.9297,5.933,5.9926,6.0191,6.0258,6.0821,6.1098,6.1098,6.1098,6.1098,6.1098,6.1098,6.1098,6.1098,6.1098,6.1098,6.1098,6.1098,6.1098,6.1032,6.049,6.0191,6.0158,5.9595,5.8933,5.8237,5.8058,5.7707,5.7111,5.7097,5.6766,5.6056,5.6377,5.6129,5.5314,5.5476,5.4838,5.3372,5.3147,5.2123,5.009,4.9873,4.9525,4.8796,4.8199,4.8133,4.873,4.8763,4.9308,5.0588,5.2286,5.2281,4.9936,5.0436,5.1459,5.2851,5.2948,5.3531,5.4826,5.4956,5.5409,5.6575,5.6802,5.7093,5.7697,5.7924,5.8194,5.8691,5.8788,5.9015,5.9533,5.963,5.9694,5.9694,5.9662,5.9694,5.9694,5.963,5.9565,5.9565,5.9565,5.9662,5.9694,5.9694,5.9694,5.9694,5.9694,5.9694,5.9694,5.9836,6.0182,6.0712,6.1037,6.1568,6.2022,6.2305,6.2383,6.2586,6.3121,6.3568,6.3684,6.3236,6.297,6.2472,6.2506,6.2506,6.2459,6.2402,6.2212,6.1983,6.1656,6.1245,6.1043,6.1043,6.087,6.0788,6.0821,6.092,6.0933,6.0953,6.1086,6.1098,6.1098,6.1098,6.1098,6.1098,6.1098,6.1098,6.1098,6.1098,6.1098,6.1098,6.1119,6.1098,6.1065,6.0966,6.0953,6.0953,6.0854,6.0423,5.9694,5.9065,5.8701,5.8568,5.8601,5.8316,5.7795,5.7806,5.7268,5.6099,5.6069,5.5701,5.4843,5.4613,5.4038,5.3121,5.2843,5.2506,5.1861,5.1695,5.1695,5.1762,5.1795,5.2302,5.354,5.5013,5.4972,5.2955,5.335,5.4373,5.5701,5.5798,5.6219,5.705,5.7082,5.7147,5.7471,5.7968,5.8367,5.8464,5.895,5.936,5.9468,5.9533,5.9533,5.9662,5.9694,5.9694,5.9694,5.9694,5.9694,5.9716,5.9694,5.9694,5.9694,5.9694,5.9694,5.9716,5.9694,5.9716,5.9694,5.9738,5.976,5.976,6.0336,6.0869,6.1086,6.2132,6.3005,6.3322,6.389,6.4064,6.4165,6.4329,6.445,6.4485,6.4478,6.4556,6.334,6.3321,6.3208,6.3095,6.3034,6.2808,6.2819,6.2962,6.2797,6.226,6.1601,6.1478,6.1437,6.1437,6.1437,6.1637,6.2024,6.1912,6.2049,6.2448,6.2342,6.2278,6.2278,6.2278,6.2278,6.2278,6.2278,6.2101,6.1736,6.1703,6.1483,6.1152,6.1098,6.1098,6.1098,6.1098,6.0953,6.0589,5.986,5.9297,5.8899,5.8899,5.8794,5.8541,5.8627,5.8425,5.7835,5.7549,5.6999,5.6152,5.5658,5.5,5.4192,5.4033,5.3864,5.3566,5.393,5.4129,5.4129,5.491,5.5709,5.654,5.7212,5.7329,5.6609,5.6368,5.6526,5.7017,5.7114,5.7385,5.8065,5.8162,5.8292,5.8713,5.9015,5.9209,5.9241,5.9468,5.9694,5.9694,5.9694,5.9694,5.9694,5.9694,5.9694,5.9694,5.9694,5.9793,5.9924,5.9946,5.987,5.9738,5.9694,5.9782,5.9892,5.9913,5.9957,6.0066,6.0109,6.0076,6.012,6.0805,6.1404,6.1883,6.2888,6.3686,6.4069,6.444,6.4715,6.4918,6.4918,6.493,6.5066,6.5179,6.5201,6.385,6.3952,6.3804,6.3814,6.393,6.3798,6.3993,6.441,6.4327,6.3634,6.2649,6.2435,6.2374,6.2354,6.2313,6.2595,6.3043,6.2937,6.3133,6.3624,6.3466,6.3358,6.3358,6.3315,6.3294,6.3294,6.3294,6.2996,6.252,6.2432,6.2167,6.1616,6.1417,6.1351,6.1318,6.1185,6.1098,6.1065,6.0556,5.9993,5.9429,5.9396,5.933,5.9164,5.9292,5.9305,5.9139,5.873,5.8183,5.7462,5.6877,5.6236,5.5554,5.5502,5.5502,5.5535,5.6031,5.6363,5.6396,5.7409,5.831,5.8876,5.8921,5.9083,5.95,5.8951,5.8435,5.8266,5.8256,5.8463,5.8864,5.8939,5.9145,5.9652,5.9694,5.9662,5.9694,5.9694,5.9694,5.9694,5.976,5.9837,5.9966,6.0075,6.0249,6.0411,6.0357,6.0445,6.062,6.0663,6.0576,6.0347,6.0097,5.9957,6.0152,6.0337,6.0467,6.064,6.0836,6.0978,6.1131,6.1568,6.2224,6.288,6.3548,6.4217,6.4753,6.4852,6.4953,6.5144,6.5167,6.5212,6.5336,6.5348,6.537,6.4544,6.51,6.5133,6.5424,6.5865,6.5846,6.5707,6.5508,6.5623,6.5551,6.5172,6.4585,6.4343,6.4302,6.4085,6.407,6.4151,6.3957,6.3919,6.3999,6.3679,6.3572,6.3617,6.3434,6.3294,6.3348,6.3382,6.3403,6.3237,6.3183,6.3183,6.3029,6.2432,6.2089,6.2034,6.1471,6.1119,6.1098,6.1032,6.0986,6.092,6.092,6.0589,5.9926,5.9914,5.9603,5.9072,5.8873,5.8827,5.8741,5.8608,5.8555,5.8436,5.8469,5.8469,5.8403,5.8502,5.8601,5.8601,5.8734,5.9111,5.9773,5.9886,6.0101,6.0499,6.049,6.0351,6.0181,6.0138,6.0043,5.999,5.9968,6.0011,5.9966,5.9868,5.9694,5.9836,5.9694,5.9694,5.9694,6.0098,6.0294,6.088,6.1142,6.1535,6.1949,6.1982,6.2004,6.2125,6.2114,6.2169,6.1972,6.1284,6.051,6.0553,6.0978,6.1317,6.1469,6.1961,6.218,6.2377,6.298,6.3814,6.365,6.4486,6.5071,6.5192,6.5336,6.5314,6.5314,6.5336,6.5381,6.5403,6.5403,6.5403,6.602,6.6282,6.6244,6.6272,6.635,6.6385,6.6535,6.6784,6.686,6.7118,6.7404,6.7152,6.6357,6.5181,6.4997,6.5134,6.5501,6.5174,6.5223,6.5607,6.5268,6.5096,6.5075,6.501,6.4967,6.4967,6.4967,6.4734,6.4312,6.3933,6.37,6.37,6.34,6.3203,6.3043,6.2701,6.2306,6.1769,6.1715,6.1516,6.1152,6.1098,6.0986,6.0688,6.0655,6.0523,6.0191,5.9794,5.9562,5.9529,5.9164,5.8899,5.8899,5.8899,5.8899,5.8933,5.9297,5.9761,6.0191,6.0225,6.0324,6.0634,6.1053,6.1396,6.161,6.1952,6.2174,6.2055,6.149,6.1011,6.0957,6.1317,6.1535,6.1424,6.1424,6.1392,6.1424,6.1402,6.1424,6.1424,6.1513,6.1644,6.1906,6.207,6.2267,6.2562,6.2595,6.2727,6.2782,6.2793,6.2859,6.2924,6.2451,6.2123,6.1916,6.2103,6.2377,6.2573,6.2814,6.3012,6.3177,6.3705,6.4222,6.4233,6.4895,6.537,6.5348,6.5403,6.5403,6.5469,6.5403,6.5403,6.5403,6.5403,6.5403,6.7146,6.7338,6.744,6.7453,6.7308,6.7289,6.7566,6.7982,6.8055,6.8369,6.8765,6.88,6.8015,6.6643,6.6269,6.6436,6.6796,6.6453,6.652,6.6904,6.6503,6.629,6.629,6.6139,6.6095,6.6095,6.6062,6.5816,6.5377,6.4992,6.4724,6.4648,6.4481,6.4233,6.3988,6.3833,6.337,6.2743,6.2523,6.2091,6.1605,6.1351,6.119,6.1119,6.1098,6.1098,6.1086,6.0589,6.0324,6.0291,5.9794,5.9496,5.9529,5.9496,5.9529,5.9562,5.9993,6.0622,6.1351,6.1417,6.1483,6.1715,6.2233,6.2498,6.2565,6.2996,6.3261,6.3206,6.2693,6.2267,6.1961,6.2355,6.2628,6.2617,6.2595,6.2595,6.2562,6.2595,6.2507,6.2595,6.2486,6.2826,6.3034,6.3276,6.3473,6.3473,6.344,6.3407,6.3529,6.3639,6.3705,6.3847,6.3868,6.3605,6.3188,6.3177,6.3352,6.3571,6.3736,6.3957,6.3868,6.4399,6.4686,6.4829,6.5204,6.537,6.5469,6.5469,6.5834,6.5933,6.5999,6.5999,6.6198,6.6032,6.5933,6.7427,6.8199,6.8954,6.9182,6.9252,6.9217,6.9141,6.8956,6.9194,6.9211,6.9096,6.9078,6.8989,6.8809,6.8289,6.8137,6.7975,6.7736,6.7515,6.7414,6.698,6.677,6.6728,6.6311,6.6139,6.6225,6.6247,6.6278,6.6415,6.6551,6.6563,6.6347,6.5708,6.5224,6.4933,6.443,6.3986,6.3865,6.3241,6.2773,6.2606,6.2037,6.1511,6.1202,6.1119,6.114,6.1086,6.1053,6.1053,6.1053,6.0953,6.0933,6.0953,6.0953,6.0953,6.102,6.1053,6.1384,6.2034,6.2134,6.2399,6.3029,6.3161,6.3261,6.3261,6.3393,6.3493,6.336,6.3891,6.3782,6.3078,6.3068,6.3002,6.2825,6.2715,6.2737,6.2715,6.2913,6.265,6.2759,6.299,6.343,6.4178,6.4906,6.5005,6.5071,6.516,6.5127,6.5005,6.5149,6.5116,6.5138,6.5061,6.4829,6.3703,6.3836,6.4222,6.4387,6.4664,6.5105,6.5271,6.5337,6.5326,6.5293,6.5359,6.5436,6.5536,6.5933,6.6562,6.6893,6.7092,6.7191,6.696,6.7324,6.7158,6.8727,6.8989,6.9289,6.9394,6.9394,6.9394,6.9357,6.9302,6.9357,6.9357,6.9302,6.9283,6.9283,6.9283,6.9099,6.8854,6.8474,6.8143,6.7959,6.7839,6.7455,6.7229,6.7229,6.7063,6.7001,6.7001,6.6967,6.7043,6.7126,6.7208,6.7208,6.7146,6.6888,6.6615,6.6339,6.6115,6.5652,6.4942,6.4585,6.3952,6.2956,6.2546,6.213,6.1552,6.1465,6.1465,6.1499,6.1375,6.1293,6.1314,6.1169,6.1098,6.1131,6.155,6.2034,6.2465,6.2532,6.2631,6.2863,6.2896,6.2996,6.3294,6.3758,6.399,6.4089,6.4365,6.463,6.4697,6.4829,6.4796,6.4619,6.4498,6.4454,6.4409,6.4365,6.4332,6.4387,6.442,6.4387,6.4387,6.4454,6.4674,6.4884,6.526,6.537,6.5403,6.5403,6.5403,6.5403,6.5403,6.5403,6.5403,6.5392,6.526,6.4829,6.4829,6.5061,6.5094,6.5238,6.5271,6.537,6.537,6.5359,6.5359,6.537,6.5536,6.5701,6.6198,6.6893,6.7556,6.7787,6.792,6.7589,6.792,6.7721,6.9394,6.9394,6.9394,6.9534,6.9745,6.9745,6.9921,7.0131,7.0148,7.0148,7.0167,7.0167,7.0113,7.0148,7.0131,6.9982,6.9593,6.8864,6.8392,6.826,6.7925,6.7799,6.7779,6.7719,6.7699,6.7699,6.7759,6.7799,6.7799,6.7859,6.7825,6.7799,6.7799,6.7604,6.736,6.7319,6.6861,6.6198,6.5865,6.5106,6.4038,6.3735,6.3397,6.2959,6.2838,6.2461,6.1796,6.1801,6.1832,6.1783,6.1837,6.1878,6.1881,6.2266,6.2764,6.3227,6.3261,6.3393,6.3592,6.3658,6.3758,6.399,6.442,6.4752,6.4752,6.516,6.5337,6.5403,6.5403,6.5403,6.5403,6.537,6.5403,6.5403,6.5403,6.5403,6.5403,6.537,6.5337,6.5281,6.5281,6.5337,6.5403,6.537,6.5403,6.5403,6.5403,6.5403,6.5403,6.5403,6.5403,6.5403,6.5403,6.537,6.5194,6.5227,6.5238,6.5304,6.5304,6.537,6.5403,6.5403,6.5403,6.5403,6.5502,6.5668,6.6032,6.6529,6.7191,6.7986,6.8483,6.8738,6.8549,6.8417,6.8251,6.9483,6.9571,6.9448,6.9958,7.052,7.0555,7.0974,7.1466,7.1571,7.1466,7.1412,7.1568,7.1428,7.1568,7.1447,7.1549,7.1176,6.992,6.9101,6.8806,6.8559,6.8427,6.8338,6.8162,6.8083,6.8103,6.828,6.8377,6.8358,6.8494,6.8513,6.8397,6.8338,6.8162,6.7819,6.7819,6.7719,6.7331,6.6792,6.6382,6.6314,6.5576,6.5147,6.5064,6.5064,6.4075,6.2011,6.2541,6.2773,6.2666,6.3136,6.3442,6.3259,6.3337,6.3348,6.3459,6.3393,6.367,6.4233,6.4365,6.4664,6.5028,6.5326,6.5293,6.5293,6.5337,6.5403,6.5403,6.5403,6.5403,6.5403,6.5403,6.5403,6.5403,6.5403,6.5403,6.5403,6.5403,6.5403,6.5403,6.5403,6.5403,6.5403,6.5403,6.5403,6.5403,6.5403,6.5403,6.5403,6.5403,6.5403,6.5403,6.5403,6.5403,6.5403,6.5403,6.537,6.537,6.537,6.5403,6.5403,6.5403,6.5403,6.5403,6.5403,6.5602,6.6728,6.7258,6.8009,6.8738,6.9169,6.9434,6.9301,6.9136,6.9069,7.1384,7.1419,7.1419,7.1507,7.1719,7.1719,7.1839,7.192,7.192,7.1826,7.1728,7.1674,7.1674,7.1709,7.1674,7.1709,7.1639,7.109,7.0466,6.9821,6.954,6.9185,6.8713,6.8551,6.8513,6.8532,6.8571,6.8609,6.8628,6.8686,6.8667,6.8628,6.8609,6.8551,6.8416,6.8416,6.8319,6.8108,6.7896,6.7492,6.6892,6.6598,6.6161,6.5563,6.5529,6.504,6.4237,6.4106,6.3943,6.3784,6.3819,6.3997,6.4205,6.4261,6.4407,6.4719,6.4763,6.4796,6.4995,6.5039,6.516,6.5337,6.5403,6.5403,6.5403,6.5403,6.5403,6.5403,6.5403,6.5403,6.5403,6.5403,6.5403,6.5403,6.5403,6.5403,6.5403,6.5403,6.5403,6.5403,6.5403,6.5403,6.5403,6.5403,6.5403,6.5403,6.5403,6.5403,6.5403,6.5403,6.5403,6.5403,6.5403,6.5403,6.5403,6.5403,6.5403,6.5403,6.5403,6.5403,6.5403,6.5403,6.5403,6.5403,6.5403,6.59,6.7026,6.7854,6.8384,6.9103,6.95,6.9666,6.9765,6.9666,6.95,7.2292,7.2292,7.2292,7.2469,7.2681,7.2735,7.2747,7.2844,7.286,7.2727,7.259,7.2551,7.257,7.2551,7.2551,7.2551,7.2551,7.257,7.2037,7.1186,7.0721,7.0259,6.9771,6.9491,6.9351,6.9317,6.9072,6.8932,6.8932,6.8967,6.8967,6.8986,6.8967,6.893,6.8838,6.8854,6.8724,6.8551,6.8478,6.8212,6.7769,6.7646,6.7346,6.6869,6.6781,6.6631,6.6436,6.608,6.5603,6.51,6.4904,6.5033,6.522,6.5232,6.5345,6.5547,6.5603,6.5526,6.5537,6.5404,6.5403,6.5403,6.5403,6.5403,6.5403,6.5403,6.5403,6.5403,6.5403,6.5403,6.5403,6.5403,6.5403,6.5403,6.5403,6.5403,6.5403,6.5403,6.5403,6.5403,6.5403,6.5403,6.5403,6.5403,6.5403,6.5403,6.5403,6.5403,6.5403,6.5403,6.5403,6.5403,6.5403,6.5403,6.5403,6.5403,6.5403,6.5403,6.5403,6.5403,6.5403,6.5403,6.5403,6.5403,6.5403,6.5767,6.6761,6.739,6.7986,6.8804,6.9599,6.9765,6.9798,6.9798,6.9666,7.247,7.247,7.247,7.2968,7.3499,7.3535,7.3796,7.4242,7.4258,7.4127,7.3967,7.3862,7.3948,7.3963,7.3862,7.3862,7.3979,7.3838,7.3452,7.2765,7.2181,7.1686,7.1301,7.0739,7.0494,7.0408,6.983,6.9497,6.9495,6.939,6.9394,6.9339,6.932,6.9302,6.9134,6.9115,6.8986,6.88,6.8762,6.8708,6.8673,6.8673,6.8654,6.8566,6.8512,6.8416,6.8115,6.7886,6.7304,6.631,6.6284,6.6314,6.6213,6.616,6.6127,6.6095,6.5933,6.5824,6.5758,6.5603,6.547,6.547,6.5448,6.5403,6.5403,6.5403,6.5403,6.5403,6.5403,6.5403,6.5403,6.5403,6.5403,6.5403,6.5403,6.5403,6.5403,6.5403,6.5403,6.5403,6.5403,6.5403,6.5403,6.5403,6.5403,6.5403,6.5403,6.5403,6.5403,6.5403,6.5403,6.5403,6.5403,6.5403,6.5403,6.5403,6.5403,6.5403,6.5403,6.5403,6.5403,6.5403,6.5403,6.5403,6.5436,6.5834,6.633,6.6993,6.7754,6.8639,6.9202,6.9599,6.9798,6.9798,6.9765,7.4437,7.4437,7.4418,7.4579,7.4703,7.4757,7.4699,7.4728,7.4744,7.4612,7.446,7.4441,7.4402,7.4422,7.4422,7.4422,7.4383,7.4267,7.4174,7.3908,7.3577,7.2676,7.1884,7.1498,7.1377,7.1271,7.0604,7.0218,7.0183,6.971,6.9429,6.9394,6.9394,6.9376,6.932,6.9302,6.9302,6.9246,6.9227,6.9209,6.9209,6.9209,6.9118,6.8986,6.8967,6.8873,6.8647,6.8571,6.8113,6.7236,6.7175,6.7105,6.6842,6.6694,6.658,6.6397,6.6182,6.603,6.5965,6.5824,6.5692,6.567,6.5537,6.5425,6.5403,6.5403,6.5403,6.5403,6.5403,6.5403,6.5403,6.5403,6.5403,6.5403,6.5403,6.5403,6.5403,6.5403,6.5403,6.5403,6.5403,6.5403,6.5403,6.5403,6.5403,6.5403,6.5403,6.5403,6.5403,6.5403,6.5403,6.5403,6.5403,6.5403,6.5403,6.5403,6.5403,6.5403,6.5403,6.5403,6.5403,6.5403,6.5403,6.5403,6.5403,6.5668,6.6132,6.6695,6.7546,6.8341,6.8828,6.9169,6.9633,6.9798,6.9732,7.5206,7.5206,7.5206,7.5206,7.5206,7.5206,7.5079,7.4931,7.4913,7.4782,7.4631,7.4593,7.4593,7.4593,7.4593,7.4593,7.4574,7.4479,7.4422,7.4402,7.4271,7.3623,7.282,7.2395,7.2149,7.2079,7.1377,7.0831,7.0499,7.0043,6.9745,6.9464,6.9394,6.9394,6.9376,6.9394,6.9394,6.9376,6.9394,6.9394,6.9394,6.9394,6.9339,6.9246,6.9227,6.9134,6.8911,6.8873,6.8567,6.7984,6.7799,6.7638,6.74,6.7208,6.7043,6.6896,6.6622,6.6375,6.6333,6.6129,6.5933,6.5889,6.5714,6.5581,6.5559,6.5492,6.5403,6.5403,6.5403,6.5403,6.5403,6.5403,6.5403,6.5403,6.5403,6.5403,6.5403,6.5403,6.5403,6.5403,6.5403,6.5403,6.5403,6.5403,6.5403,6.5403,6.5403,6.5403,6.5403,6.5403,6.5403,6.5403,6.5403,6.5403,6.5403,6.5403,6.5403,6.5403,6.5403,6.5403,6.5403,6.5403,6.5403,6.5403,6.5403,6.5502,6.59,6.6363,6.7092,6.7777,6.8274,6.8871,6.9368,6.9467,6.9467,7.5206,7.5206,7.5206,7.5206,7.5206,7.5171,7.5097,7.4968,7.495,7.4857,7.4725,7.4669,7.4707,7.465,7.4725,7.4704,7.4669,7.465,7.4593,7.4574,7.4517,7.4242,7.3885,7.3338,7.3092,7.2932,7.2261,7.1612,7.1157,7.0787,7.0169,6.9765,6.9555,6.9412,6.9394,6.9394,6.9394,6.9394,6.9394,6.9394,6.9394,6.9394,6.9376,6.9357,6.9357,6.9302,6.9171,6.9115,6.8911,6.8532,6.8314,6.8083,6.7865,6.7699,6.7577,6.7475,6.7167,6.6938,6.6812,6.6482,6.6204,6.6182,6.602,6.5846,6.5802,6.5625,6.5459,6.5492,6.5425,6.5403,6.5403,6.5403,6.5403,6.5403,6.5403,6.5403,6.5403,6.5403,6.5403,6.5403,6.5403,6.5403,6.5403,6.5403,6.5403,6.5403,6.5403,6.5403,6.5403,6.5403,6.5403,6.5403,6.5403,6.5403,6.5403,6.5403,6.5403,6.5403,6.5403,6.5403,6.5403,6.5403,6.5403,6.5403,6.5403,6.5403,6.5502,6.6065,6.6662,6.7125,6.7645,6.844,6.9169,6.9003,6.8937,7.5206,7.5206,7.5206,7.5206,7.5206,7.5206,7.5188,7.5116,7.5116,7.5079,7.5061,7.5042,7.5042,7.5078,7.5024,7.5096,7.5005,7.4894,7.4763,7.4593,7.4593,7.4555,7.446,7.4212,7.4212,7.3981,7.34,7.294,7.2552,7.1525,7.0818,7.0478,6.9789,6.9487,6.9412,6.9394,6.9394,6.9394,6.9394,6.9394,6.9394,6.9394,6.9394,6.9394,6.9394,6.9376,6.9339,6.932,6.9283,6.9134,6.8835,6.8532,6.8435,6.828,6.8103,6.7925,6.7759,6.7516,6.7332,6.7084,6.6821,6.6652,6.6473,6.628,6.603,6.5867,6.5736,6.567,6.5537,6.5448,6.5403,6.5403,6.5403,6.5403,6.5403,6.5403,6.5403,6.5403,6.5403,6.5403,6.5403,6.5403,6.5403,6.5403,6.5403,6.5403,6.5403,6.5403,6.5403,6.5403,6.5403,6.5403,6.5403,6.5403,6.5403,6.5403,6.5403,6.5403,6.5403,6.5403,6.5403,6.5403,6.5403,6.5403,6.5403,6.5403,6.5403,6.5469,6.6032,6.6496,6.6993,6.7655,6.8152,6.8185,6.8185,7.5206,7.5206,7.5206,7.5206,7.5206,7.5206,7.5206,7.5206,7.5206,7.5206,7.5206,7.5206,7.5206,7.5206,7.5206,7.5206,7.5206,7.5097,7.4987,7.4894,7.4875,7.4875,7.4911,7.4838,7.4801,7.456,7.4185,7.3814,7.3196,7.231,7.1351,7.0763,7.0021,6.9559,6.9412,6.9394,6.9394,6.9394,6.9394,6.9394,6.9394,6.9394,6.9394,6.9394,6.9394,6.9394,6.9376,6.9394,6.9394,6.9339,6.9155,6.8986,6.8838,6.8667,6.8494,6.8377,6.8182,6.8078,6.7865,6.7638,6.736,6.7236,6.6967,6.6673,6.644,6.6259,6.602,6.5824,6.567,6.5559,6.5425,6.5403,6.5403,6.5403,6.5403,6.5403,6.5403,6.5403,6.5403,6.5403,6.5403,6.5403,6.5403,6.5403,6.5425,6.5425,6.5425,6.5425,6.5403,6.5403,6.5403,6.5403,6.5403,6.5403,6.5403,6.5403,6.5403,6.5403,6.5403,6.5403,6.5403,6.5403,6.5403,6.5403,6.5403,6.5403,6.5403,6.5436,6.5602,6.6264,6.6761,6.6993,6.7291,6.7655,6.7556,7.5206,7.5206,7.5206,7.5206,7.5206,7.5206,7.5206,7.5206,7.5206,7.5206,7.5206,7.5206,7.5206,7.5206,7.5206,7.5206,7.5206,7.5206,7.5151,7.5151,7.5151,7.5116,7.5151,7.5133,7.5041,7.4707,7.4655,7.43,7.3732,7.2915,7.2152,7.1137,7.027,6.979,6.9519,6.9429,6.9534,6.9675,6.971,6.985,6.9902,6.9902,6.9867,6.9675,6.9429,6.9429,6.9394,6.9394,6.9394,6.9394,6.9394,6.9302,6.9153,6.8967,6.8781,6.8762,6.8605,6.8455,6.8358,6.8123,6.7939,6.7845,6.7502,6.7112,6.6896,6.6622,6.6323,6.5977,6.5758,6.5581,6.5448,6.5403,6.5403,6.5403,6.5403,6.5403,6.5425,6.5425,6.5492,6.5403,6.5403,6.5403,6.5403,6.5403,6.5425,6.5437,6.5437,6.5459,6.5492,6.5514,6.5548,6.5592,6.5658,6.5603,6.5581,6.5425,6.5425,6.5403,6.5403,6.5403,6.5403,6.5403,6.5403,6.5403,6.5403,6.5403,6.5403,6.5403,6.5701,6.6231,6.633,6.6363,6.6728,6.7191,6.6893,7.5206,7.5206,7.5206,7.5206,7.5206,7.5206,7.5206,7.5206,7.5206,7.5206,7.5206,7.5206,7.5206,7.5206,7.5206,7.5206,7.5206,7.5206,7.5206,7.5206,7.5206,7.5206,7.5206,7.5206,7.5151,7.5116,7.5061,7.4935,7.4669,7.4117,7.3009,7.2063,7.1229,7.0483,6.9804,6.9464,6.9941,7.0382,7.0433,7.0644,7.1012,7.1012,7.0747,7.022,6.9712,6.9448,6.9394,6.9394,6.9394,6.9394,6.9394,6.9376,6.932,6.9283,6.9155,6.9024,6.8967,6.8854,6.8686,6.859,6.8358,6.8123,6.7925,6.7638,6.725,6.6875,6.658,6.6151,6.5758,6.5492,6.5425,6.5459,6.5425,6.5425,6.547,6.547,6.5492,6.5581,6.567,6.5603,6.5514,6.547,6.5503,6.5548,6.5592,6.5658,6.5714,6.5746,6.5812,6.5856,6.5922,6.5965,6.6009,6.5878,6.578,6.5559,6.5448,6.5425,6.5403,6.5403,6.5403,6.5403,6.5403,6.5403,6.5403,6.5403,6.5403,6.5403,6.5502,6.5801,6.5767,6.569,6.6032,6.6363,6.6132,7.5206,7.5206,7.5206,7.5206,7.5206,7.5206,7.5206,7.5206,7.5206,7.5206,7.5206,7.5206,7.5206,7.5206,7.5206,7.5206,7.5206,7.5206,7.5206,7.5206,7.5206,7.5206,7.5206,7.5206,7.5206,7.5171,7.5171,7.5206,7.5099,7.4386,7.3652,7.3062,7.2244,7.1531,7.1065,7.101,7.1062,7.1396,7.1466,7.1607,7.1889,7.1678,7.113,7.0615,6.9945,6.9521,6.9394,6.9394,6.9394,6.9394,6.9394,6.9394,6.9394,6.9376,6.9392,6.9264,6.9246,6.9209,6.9061,6.8986,6.8797,6.8644,6.8397,6.8083,6.7719,6.7353,6.6896,6.6388,6.6009,6.5746,6.5768,6.5746,6.5746,6.5746,6.5746,6.5746,6.579,6.5911,6.5933,6.5933,6.59,6.5878,6.579,6.5834,6.5834,6.5878,6.5977,6.6052,6.6182,6.6204,6.6247,6.616,6.616,6.6064,6.5933,6.5758,6.5548,6.5503,6.5459,6.5459,6.547,6.5481,6.5448,6.5403,6.5403,6.5448,6.5403,6.5403,6.5403,6.5403,6.5469,6.5502,6.5436,6.5403,6.5403,7.5206,7.5206,7.5206,7.5206,7.5206,7.5206,7.5206,7.5206,7.5206,7.5206,7.5206,7.5206,7.5206,7.5206,7.5206,7.5206,7.5206,7.5206,7.5206,7.5206,7.5206,7.5206,7.5206,7.5206,7.5206,7.5206,7.5206,7.5206,7.5099,7.4635,7.4134,7.3561,7.301,7.2618,7.224,7.1989,7.2292,7.2504,7.2504,7.2504,7.2327,7.1796,7.1157,7.0763,7.0021,6.9542,6.9412,6.9394,6.9394,6.9394,6.9394,6.9394,6.9394,6.9394,6.9394,6.9394,6.9394,6.9394,6.9339,6.9264,6.9115,6.9002,6.874,6.8416,6.8004,6.7577,6.7126,6.6622,6.6323,6.6095,6.603,6.6074,6.6117,6.616,6.616,6.6204,6.6247,6.6333,6.6461,6.644,6.6397,6.6354,6.6333,6.6247,6.629,6.6397,6.6482,6.6516,6.6567,6.6537,6.6516,6.6354,6.6247,6.6172,6.6064,6.5977,6.5824,6.5724,6.5702,6.5702,6.5658,6.5614,6.557,6.5592,6.5537,6.5559,6.5492,6.5425,6.5403,6.5403,6.5403,6.5403,6.5403,6.5403,6.5403,7.5206,7.5206,7.5206,7.5206,7.5206,7.5206,7.5206,7.5206,7.5206,7.5206,7.5206,7.5206,7.5206,7.5206,7.5206,7.5206,7.5206,7.5206,7.5206,7.5206,7.5206,7.5206,7.5206,7.5206,7.5206,7.5206,7.5206,7.5206,7.5064,7.4957,7.4563,7.3918,7.3597,7.3221,7.2615,7.2419,7.2646,7.3125,7.3214,7.3196,7.3054,7.2435,7.1652,7.0853,7.0109,6.9597,6.9504,6.9468,6.9449,6.9431,6.9412,6.9412,6.9394,6.9394,6.9394,6.9394,6.9394,6.9394,6.9394,6.9339,6.9264,6.9171,6.9021,6.8682,6.8143,6.7624,6.7154,6.6812,6.6601,6.644,6.6311,6.6182,6.6247,6.6397,6.6525,6.6643,6.6707,6.6862,6.6967,6.7154,6.7174,6.7029,6.6925,6.6854,6.6791,6.6883,6.6988,6.7001,6.6959,6.6917,6.6812,6.6686,6.6558,6.6452,6.6237,6.6151,6.6064,6.5943,6.5922,6.5922,6.5856,6.5834,6.5922,6.5922,6.579,6.5658,6.5592,6.5526,6.547,6.5403,6.5403,6.5403,6.5403,6.5403,6.5403,7.5424,7.5206,7.5206,7.5206,7.5206,7.5206,7.5206,7.5206,7.5206,7.5206,7.5206,7.5206,7.5206,7.5206,7.5206,7.5206,7.5206,7.5206,7.5206,7.5206,7.5206,7.5206,7.5206,7.5206,7.5206,7.5135,7.5135,7.4814,7.4814,7.4921,7.4902,7.4509,7.4045,7.3724,7.301,7.2762,7.2815,7.2958,7.3064,7.3064,7.2904,7.2353,7.1712,7.1142,7.0345,6.9902,6.9705,6.9687,6.9687,6.9687,6.9687,6.9687,6.9687,6.9687,6.9687,6.9669,6.956,6.9469,6.9412,6.9394,6.9339,6.9264,6.9134,6.8778,6.8201,6.7845,6.7502,6.7208,6.7126,6.7001,6.6883,6.6883,6.6925,6.7022,6.7063,6.7208,6.7312,6.7414,6.7577,6.7745,6.7885,6.7725,6.7543,6.74,6.7332,6.7312,6.7353,6.7332,6.7312,6.727,6.7146,6.7035,6.6909,6.6804,6.6571,6.6378,6.628,6.616,6.6095,6.6074,6.6052,6.6074,6.6247,6.6204,6.603,6.59,6.579,6.5614,6.5481,6.5448,6.5403,6.5448,6.547,6.5403,6.5403,7.5621,7.5334,7.5352,7.5352,7.5352,7.528,7.5262,7.5297,7.5243,7.5206,7.5206,7.5206,7.5206,7.5206,7.5206,7.5206,7.5206,7.5206,7.5206,7.5206,7.5206,7.5206,7.5206,7.5206,7.5064,7.4885,7.4778,7.4386,7.4065,7.4136,7.4404,7.4582,7.3797,7.3619,7.3494,7.3084,7.2816,7.2816,7.2834,7.2727,7.2442,7.1995,7.1498,7.1037,7.054,7.0114,6.992,6.9867,6.9902,6.9867,6.9849,6.9867,6.9831,6.9831,6.9867,6.9796,6.967,6.956,6.9504,6.9431,6.9394,6.9339,6.9209,6.8927,6.8528,6.828,6.8123,6.7779,6.7739,6.7699,6.7658,6.7618,6.7658,6.7678,6.7739,6.7879,6.7979,6.7984,6.8044,6.8182,6.8338,6.8435,6.8241,6.8004,6.7879,6.7759,6.7699,6.7658,6.7597,6.7557,6.7414,6.7284,6.7243,6.7139,6.6993,6.6728,6.6601,6.6537,6.644,6.6461,6.6567,6.6588,6.6673,6.6546,6.6375,6.6311,6.629,6.5922,6.5548,6.5636,6.5658,6.5581,6.5537,6.547,6.5425,7.578,7.5745,7.5745,7.5745,7.571,7.5532,7.546,7.5478,7.5316,7.5261,7.5244,7.5225,7.5243,7.5225,7.5225,7.5206,7.5206,7.5206,7.5206,7.5206,7.5171,7.5153,7.5082,7.4921,7.4761,7.4172,7.4065,7.3654,7.3083,7.3012,7.3083,7.2941,7.2905,7.2905,7.2798,7.2584,7.2441,7.2441,7.2441,7.2191,7.1906,7.1549,7.1212,7.0539,7.0273,7.0114,6.9902,6.9938,6.9956,6.9956,6.9973,6.9973,6.9991,6.9973,6.9973,6.9973,6.9796,6.9688,6.9651,6.9504,6.9394,6.9339,6.9227,6.9078,6.8854,6.8724,6.8551,6.8319,6.8221,6.8182,6.8103,6.8064,6.8123,6.8162,6.8201,6.8319,6.8416,6.8513,6.8571,6.8647,6.8724,6.88,6.8819,6.8605,6.8319,6.8182,6.8044,6.8004,6.7799,6.7719,6.7577,6.7475,6.7496,6.7489,6.7469,6.7312,6.725,6.7229,6.7208,6.725,6.7332,6.7312,6.725,6.7167,6.7029,6.6938,6.6791,6.6482,6.6225,6.6052,6.5922,6.579,6.568,6.5692,6.557,7.6108,7.6108,7.6108,7.5971,7.578,7.571,7.5692,7.5674,7.5603,7.5568,7.555,7.5424,7.5406,7.537,7.5225,7.5206,7.5206,7.5206,7.5189,7.5206,7.5171,7.4903,7.4707,7.435,7.4029,7.3422,7.3208,7.2869,7.2191,7.212,7.1727,7.1656,7.1906,7.2084,7.2049,7.1727,7.1513,7.1478,7.1442,7.1192,7.1085,7.0942,7.0765,7.0447,7.0411,7.0341,7.0272,7.0272,7.0272,7.0254,7.0237,7.0237,7.0219,7.0219,7.0219,7.0202,7.0044,6.992,6.9831,6.9615,6.9394,6.9394,6.932,6.9227,6.9134,6.8986,6.8835,6.8667,6.8609,6.8551,6.8513,6.8474,6.8494,6.8571,6.8647,6.8743,6.8819,6.8911,6.8967,6.8986,6.908,6.9155,6.919,6.9153,6.8892,6.8628,6.8494,6.8319,6.8103,6.7979,6.7879,6.7819,6.7839,6.7799,6.7779,6.7819,6.7879,6.7879,6.7879,6.7879,6.7879,6.7859,6.7799,6.7739,6.7638,6.7496,6.7277,6.7126,6.6854,6.6461,6.6204,6.6009,6.5922,6.59,6.5856,7.6292,7.6292,7.6292,7.6176,7.5972,7.5903,7.5832,7.5868,7.5798,7.5798,7.578,7.5657,7.5603,7.555,7.5478,7.5406,7.5406,7.5316,7.5119,7.494,7.4726,7.4368,7.3886,7.353,7.3262,7.2655,7.2405,7.2102,7.1335,7.1335,7.1085,7.0942,7.1014,7.1264,7.1228,7.0835,7.0514,7.0514,7.0514,7.0514,7.0514,7.055,7.055,7.0497,7.0497,7.048,7.0463,7.0427,7.0463,7.0463,7.048,7.0497,7.0497,7.0514,7.0514,7.0445,7.0324,7.0202,7.0079,6.9795,6.9468,6.9412,6.9394,6.9302,6.9227,6.919,6.9061,6.8986,6.8948,6.8895,6.8876,6.893,6.893,6.8986,6.8986,6.9043,6.9099,6.919,6.9246,6.9302,6.9357,6.9339,6.932,6.9283,6.9134,6.8838,6.8647,6.8532,6.8416,6.8299,6.826,6.8221,6.8221,6.8162,6.8138,6.8201,6.828,6.828,6.828,6.828,6.828,6.828,6.826,6.8201,6.8083,6.7979,6.7805,6.7644,6.7216,6.6715,6.6546,6.644,6.6333,6.6366,6.6345,7.6292,7.6292,7.6292,7.6275,7.6208,7.6108,7.5986,7.6005,7.5867,7.585,7.585,7.5798,7.578,7.578,7.571,7.5602,7.5477,7.5388,7.5012,7.4404,7.4119,7.3583,7.3101,7.2744,7.2441,7.187,7.1673,7.1299,7.0621,7.0728,7.0585,7.055,7.0657,7.0693,7.0585,7.055,7.0514,7.0514,7.0514,7.0514,7.0514,7.0514,7.0514,7.0514,7.0514,7.0514,7.0514,7.0514,7.0514,7.0514,7.0514,7.0514,7.0514,7.0514,7.0514,7.0497,7.0324,7.0219,7.0167,6.9831,6.9633,6.9504,6.9504,6.9412,6.9394,6.9376,6.9339,6.9227,6.9283,6.932,6.9339,6.9339,6.932,6.9283,6.9264,6.9264,6.9302,6.932,6.9357,6.9376,6.9376,6.9394,6.9376,6.9357,6.9264,6.9061,6.8819,6.8705,6.8628,6.8571,6.8513,6.8513,6.8513,6.8586,6.8567,6.8628,6.8705,6.8686,6.8705,6.8705,6.8705,6.874,6.8686,6.8647,6.8551,6.8416,6.8299,6.8201,6.7825,6.7462,6.7133,6.6967,6.6875,6.6791,6.6791,7.6292,7.6292,7.6292,7.6292,7.6275,7.6261,7.6191,7.6174,7.6123,7.6125,7.6091,7.6005,7.5936,7.5919,7.5742,7.5527,7.5061,7.4936,7.4471,7.3754,7.349,7.292,7.242,7.2064,7.1673,7.1121,7.0871,7.0871,7.055,7.0407,7.0478,7.0514,7.0264,7.0514,7.0514,7.0514,7.0514,7.0514,7.0514,7.0514,7.0514,7.0514,7.0514,7.0514,7.0514,7.0514,7.0514,7.0514,7.0514,7.0514,7.0514,7.0514,7.0514,7.0514,7.0514,7.0514,7.0375,7.0324,7.0237,7.0044,6.9938,6.9777,6.9615,6.9542,6.9542,6.9449,6.9412,6.9412,6.9449,6.9431,6.9376,6.9376,6.9357,6.9357,6.9357,6.9357,6.9376,6.9376,6.9394,6.9394,6.9394,6.9253,6.9218,6.8973,6.8864,6.9054,6.8833,6.8822,6.8762,6.8705,6.8647,6.874,6.8778,6.8892,6.8967,6.8986,6.9043,6.9043,6.9099,6.919,6.9155,6.908,6.9024,6.8948,6.893,6.8892,6.8701,6.8513,6.8474,6.8241,6.7805,6.7502,6.7414,6.7312,6.727,7.6292,7.6292,7.6292,7.6292,7.6292,7.6292,7.6292,7.6292,7.6292,7.6292,7.6258,7.614,7.6106,7.5983,7.568,7.5395,7.4747,7.439,7.3833,7.3152,7.2891,7.2285,7.1787,7.1453,7.1187,7.0654,7.046,7.039,7.0015,7.0086,6.9836,6.9586,6.9693,6.9515,6.9693,6.9979,7.0514,7.0514,7.0514,7.0514,7.0514,7.0514,7.0514,7.0514,7.0514,7.0514,7.0514,7.0514,7.0514,7.0514,7.0514,7.0514,7.0514,7.0514,7.0514,7.0514,7.0497,7.0445,7.0324,7.0306,7.0202,7.0132,6.9849,6.9724,6.9688,6.9651,6.9632,6.9614,6.9577,6.9577,6.9542,6.9524,6.9524,6.9559,6.9489,6.9507,6.9399,6.9399,6.9098,6.9115,6.8954,6.8902,6.8727,6.8586,6.8339,6.8583,6.8809,6.8835,6.8844,6.8895,6.8857,6.8948,6.9005,6.9134,6.9209,6.9264,6.932,6.9376,6.9394,6.9394,6.9376,6.9264,6.9246,6.9227,6.9155,6.9045,6.893,6.8781,6.8619,6.8486,6.8299,6.8044,6.7939,6.7859,6.7799,7.6239,7.6292,7.6292,7.6292,7.6292,7.6292,7.6292,7.6292,7.6292,7.6292,7.6275,7.6275,7.6169,7.6041,7.5445,7.4977,7.4619,7.3977,7.3241,7.2598,7.2249,7.166,7.1253,7.0886,7.0659,7.0611,7.0329,6.9708,6.9318,6.9248,6.8908,6.848,6.8516,6.8516,6.8873,6.9408,7.005,7.0157,7.0229,7.03,7.0443,7.0514,7.0514,7.0514,7.0514,7.0514,7.0514,7.0514,7.0514,7.0514,7.0514,7.0514,7.0514,7.0514,7.0514,7.0514,7.0514,7.0497,7.048,7.0463,7.0463,7.0376,7.0132,6.9991,6.9902,6.9849,6.9795,6.9795,6.9795,6.9796,6.9831,6.9813,6.9796,6.976,6.9689,6.96,6.9457,6.9209,6.8767,6.8536,6.827,6.8041,6.7655,6.748,6.7725,6.8023,6.8303,6.867,6.8788,6.9176,6.9192,6.9246,6.9283,6.9339,6.9376,6.9394,6.9376,6.9394,6.9394,6.9394,6.9394,6.9394,6.9339,6.932,6.9305,6.9091,6.8488,6.8395,6.8567,6.8433,6.8056,6.8339,6.8131,6.8362,6.8397,7.5426,7.5498,7.6058,7.6292,7.6292,7.6292,7.6292,7.6292,7.6292,7.6292,7.6292,7.6292,7.5949,7.5426,7.5172,7.4375,7.3671,7.304,7.2517,7.2002,7.1637,7.1408,7.1002,7.0456,7.0179,6.9845,6.9476,6.9003,6.87,6.8527,6.839,6.8159,6.7923,6.7958,6.8156,6.8568,6.912,6.9568,6.971,7.0086,7.0371,7.0514,7.0514,7.0514,7.0514,7.0514,7.0514,7.0514,7.0514,7.0514,7.0514,7.0514,7.0514,7.0514,7.0514,7.0514,7.0514,7.0514,7.0514,7.0514,7.0514,7.0514,7.0341,7.0254,7.0132,7.0026,6.9938,6.9956,6.9973,6.9991,6.9955,6.9902,6.9831,6.9725,6.9548,6.9141,6.8965,6.8629,6.8188,6.7729,6.7464,6.7093,6.6654,6.6742,6.7023,6.7374,6.7796,6.8217,6.8708,6.9095,6.9359,6.9394,6.9394,6.9394,6.9412,6.9412,6.9394,6.9394,6.9412,6.9412,6.9359,6.9359,6.9394,6.9183,6.8797,6.8217,6.7601,6.7704,6.7981,6.7686,6.7385,6.7936,6.8401,6.854,6.8642,7.4629,7.4701,7.5152,7.537,7.5334,7.537,7.5334,7.5442,7.5985,7.6167,7.5841,7.5804,7.5406,7.4665,7.4231,7.3579,7.2818,7.2348,7.1805,7.1209,7.0965,7.0645,7.0277,6.9841,6.9529,6.9162,6.883,6.8466,6.804,6.7577,6.735,6.7314,6.737,6.7406,6.7386,6.7474,6.8083,6.8769,6.933,6.9782,7.0193,7.0531,7.0514,7.0514,7.0514,7.0514,7.0514,7.0514,7.0514,7.0514,7.0514,7.0514,7.0514,7.0514,7.0514,7.0514,7.0514,7.0514,7.0514,7.0514,7.0514,7.0514,7.0514,7.041,7.0341,7.0237,7.0202,7.0184,7.0167,7.0114,7.0007,6.9901,6.9759,6.9652,6.9102,6.8535,6.8218,6.7902,6.741,6.6918,6.6497,6.6128,6.6023,6.6145,6.6303,6.6637,6.7164,6.7796,6.8392,6.9024,6.9289,6.9394,6.9412,6.9412,6.9449,6.9469,6.9452,6.9452,6.9506,6.9487,6.9379,6.9008,6.8692,6.834,6.7971,6.748,6.7059,6.7093,6.718,6.6988,6.7129,6.7791,6.8241,6.8381,6.8448,7.3796,7.3832,7.3868,7.4013,7.3905,7.4013,7.4013,7.405,7.5406,7.5696,7.5063,7.4991,7.4556,7.3832,7.3289,7.2891,7.2255,7.1748,7.1168,7.0387,7.0299,7.003,6.955,6.8987,6.8837,6.8759,6.8377,6.7764,6.7296,6.689,6.6587,6.632,6.6418,6.6531,6.6623,6.6587,6.7362,6.8622,6.9157,6.9597,7.0331,7.0582,7.0513,7.0548,7.0548,7.0513,7.0514,7.0514,7.0514,7.0514,7.0514,7.0514,7.0514,7.0514,7.0514,7.0514,7.0514,7.0514,7.0514,7.0514,7.0514,7.0514,7.0514,7.0497,7.0445,7.0393,7.0376,7.027,7.0217,6.9967,6.9808,6.9362,6.9077,6.8864,6.842,6.7994,6.7731,6.7293,6.6715,6.6261,6.5877,6.5528,6.5476,6.5616,6.5985,6.6127,6.6743,6.7517,6.8255,6.8994,6.9292,6.9468,6.9468,6.9506,6.9615,6.9634,6.951,6.9545,6.9475,6.9175,6.8803,6.8326,6.7867,6.7552,6.7253,6.7007,6.6725,6.6708,6.6761,6.6866,6.7147,6.7796,6.811,6.8233,6.8528,7.2963,7.3036,7.3651,7.3905,7.3868,7.3905,7.3868,7.3941,7.4267,7.4339,7.4194,7.4122,7.3724,7.2963,7.2746,7.2364,7.1675,7.1168,7.0641,7.0097,6.9735,6.93,6.9011,6.8392,6.8217,6.7933,6.7502,6.7076,6.6777,6.6459,6.63,6.63,6.6315,6.633,6.633,6.6366,6.7158,6.8685,6.895,6.9699,7.0704,7.0867,7.085,7.0769,7.0718,7.065,7.0599,7.0531,7.0514,7.0514,7.0514,7.0514,7.0514,7.0514,7.0514,7.0514,7.0548,7.0565,7.0531,7.0496,7.0496,7.0443,7.0443,7.0478,7.0497,7.0514,7.0407,7.0264,7.005,6.9748,6.9427,6.8837,6.8337,6.8052,6.7731,6.7484,6.7185,6.6661,6.6051,6.567,6.5305,6.5184,6.5132,6.5309,6.5625,6.6226,6.7003,6.7781,6.8541,6.9229,6.9493,6.9651,6.9578,6.9598,6.9742,6.9743,6.9637,6.9318,6.9141,6.8717,6.8205,6.7782,6.7376,6.6899,6.6544,6.6493,6.6424,6.6266,6.639,6.6725,6.7218,6.7869,6.8026,6.8096,6.8586,7.2183,7.2219,7.2637,7.2818,7.2818,7.2818,7.2818,7.2818,7.2818,7.2818,7.2927,7.3108,7.2927,7.2239,7.2183,7.1784,7.106,7.0641,6.9844,6.9285,6.8974,6.8467,6.8054,6.7764,6.7568,6.7249,6.6987,6.6665,6.6503,6.6533,6.6548,6.6518,6.6518,6.6503,6.6518,6.6662,6.7348,6.8858,6.8914,6.9801,7.1015,7.1078,7.0963,7.0883,7.085,7.0783,7.0783,7.0716,7.0733,7.0733,7.075,7.0665,7.0701,7.0735,7.0733,7.0733,7.0733,7.0682,7.0615,7.0509,7.0349,7.0137,6.9943,6.9872,6.9229,6.9194,6.9551,6.9408,6.9087,6.8801,6.8587,6.8088,6.7766,6.7445,6.6946,6.6537,6.6365,6.6089,6.5762,6.5625,6.5367,6.5268,6.5339,6.5746,6.6046,6.6435,6.7229,6.8114,6.8822,6.9442,6.9725,6.9884,6.9796,6.9831,6.9956,6.9902,6.9725,6.9335,6.8892,6.822,6.7708,6.7301,6.6858,6.6574,6.6397,6.6311,6.6224,6.6455,6.6685,6.7145,6.7552,6.7993,6.8081,6.8292,6.8874,7.1531,7.1494,7.1531,7.1531,7.1531,7.1531,7.1567,7.1567,7.1531,7.1567,7.1712,7.2311,7.2022,7.1712,7.135,7.0879,7.0423,6.988,6.9032,6.8416,6.7981,6.7655,6.7293,6.6931,6.6967,6.6967,6.6793,6.6793,6.6763,6.6727,6.6727,6.6808,6.6822,6.6858,6.6931,6.7133,6.7791,6.9022,6.9637,7.0196,7.0789,7.1223,7.111,7.1081,7.1065,7.1012,7.0996,7.0979,7.0979,7.0963,7.093,7.09,7.085,7.0883,7.0897,7.0913,7.0646,7.0615,7.0513,7.0301,6.9859,6.949,6.9297,6.8923,6.8332,6.8244,6.8566,6.8442,6.8137,6.7909,6.7747,6.7426,6.7053,6.6839,6.6268,6.5875,6.5759,6.5659,6.5611,6.5562,6.548,6.5382,6.5807,6.6199,6.6624,6.6962,6.7581,6.8378,6.9122,6.9635,7.0043,7.0132,7.0114,7.0167,7.0237,7.0113,6.997,6.9437,6.8922,6.7984,6.733,6.7381,6.7132,6.6531,6.6372,6.6708,6.7029,6.735,6.7581,6.7795,6.8293,6.8753,6.8876,6.9141,6.9477,7.1494,7.1494,7.1494,7.1494,7.1494,7.1494,7.1494,7.1494,7.1494,7.1494,7.1567,7.1603,7.1603,7.1494,7.0858,7.0423,7.0134,6.9373,6.8633,6.8002,6.7438,6.704,6.6844,6.6822,6.6822,6.6822,6.6822,6.6822,6.6822,6.6822,6.6858,6.6895,6.6858,6.7148,6.7749,6.8017,6.8452,6.9554,7.0134,7.0568,7.1132,7.142,7.1372,7.1308,7.1243,7.1146,7.1045,7.0996,7.0996,7.0996,7.094,7.0924,7.0852,7.0796,7.0757,7.0574,7.0341,7.0133,6.9976,6.962,6.9108,6.8825,6.8649,6.8593,6.804,6.7581,6.7708,6.7569,6.7322,6.7244,6.6998,6.6569,6.6196,6.6196,6.5839,6.5839,6.5772,6.5756,6.574,6.5707,6.5691,6.598,6.6549,6.6996,6.7494,6.794,6.8599,6.9364,6.9809,7.0146,7.0341,7.0341,7.0324,7.0393,7.041,7.0393,7.0162,6.9608,6.9021,6.8277,6.785,6.7917,6.7596,6.7069,6.728,6.7741,6.8028,6.8266,6.8533,6.8801,6.9265,6.9655,6.9743,6.9778,6.9973]}]]